[[{"header":{"parameterUnit":"m.s-1","parameterCategory":1,"la1":30.6,"la2":28.766,"lo1":-90.7593,"lo2":-88.6598,"dy":0.0162,"dx":0.0183,"nx":116,"ny":114,"refTime":"2024-03-04T18:00:00:Z","depth":0,"parameterNumber":2,"parameterNumberName":"U-component_of_WINDS"},"data":[0.0,0.0,0.0,0.0,0.0,0.0,0.0,0.0,0.0,0.0,0.0,0.0,0.0,0.0,0.0,0.0,0.0,0.0,0.0,0.0,0.0,0.0,0.0,0.0,0.0,0.0,0.0,0.0,0.0,0.0,0.0,0.0,0.0,0.0,0.0,0.0,0.0,0.0,0.0,0.0,0.0,0.0,0.0,0.0,0.0,0.0,0.0,0.0,0.0,0.0,0.0,0.0,0.0,0.0,0.0,0.0,0.0,0.0,0.0,0.0,0.0,0.0,0.0,0.0,0.0,0.0,0.0,0.0,0.0,0.0,0.0,0.0,0.0,0.0,0.0,0.0,0.0,0.0,0.0,0.0,0.0,0.0,0.0,0.0,0.0,0.0,0.0,0.0,0.0,0.0,0.0,0.0,0.0,0.0,0.0,0.0,0.0,0.0,0.0,0.0,0.0,0.0,0.0,0.0,0.0,0.0,0.0,0.0,0.0,0.0,0.0,0.0,0.0,0.0,0.0,0.0,0.0,0.0,0.0,0.0,0.0,0.0,0.0,0.0,0.0,0.0,0.0,0.0,0.0,0.0,0.0,0.0,0.0,0.0,0.0,0.0,0.0,0.0,0.0,0.0,0.0,0.0,0.0,0.0,0.0,0.0,0.0,0.0,0.0,0.0,0.0,0.0,0.0,0.0,0.0,0.0,0.0,0.0,0.0,0.0,0.0,0.0,0.0,0.0,0.0,0.0,0.0,0.0,0.0,0.0,0.0,0.0,0.0,0.0,0.0,0.0,0.0,0.0,0.0,0.0,0.0,0.0,0.0,0.0,0.0,0.0,0.0,0.0,0.0,0.0,0.0,0.0,0.0,0.0,0.0,0.0,0.0,0.0,0.0,0.0,0.0,0.0,0.0,0.0,0.0,0.0,0.0,0.0,0.0,0.0,0.0,0.0,0.0,0.0,0.0,0.0,0.0,0.0,0.0,0.0,0.0,0.0,0.0,0.0,0.0,0.0,0.0,0.0,0.0,0.0,0.0,0.0,0.0,0.0,0.0,0.0,0.0,0.0,0.0,0.0,0.0,0.0,0.0,0.0,0.0,0.0,0.0,0.0,0.0,0.0,0.0,0.0,0.0,0.0,0.0,0.0,0.0,0.0,0.0,0.0,0.0,0.0,0.0,0.0,0.0,0.0,0.0,0.0,0.0,0.0,0.0,0.0,0.0,0.0,0.0,0.0,0.0,0.0,0.0,0.0,0.0,0.0,0.0,0.0,0.0,0.0,0.0,0.0,0.0,0.0,0.0,0.0,0.0,0.0,0.0,0.0,0.0,0.0,0.0,0.0,0.0,0.0,0.0,0.0,0.0,0.0,0.0,0.0,0.0,0.0,0.0,0.0,0.0,0.0,0.0,0.0,0.0,0.0,0.0,0.0,0.0,0.0,0.0,0.0,0.0,0.0,0.0,0.0,0.0,0.0,0.0,0.0,0.0,0.0,0.0,0.0,0.0,0.0,0.0,0.0,0.0,0.0,0.0,0.0,0.0,0.0,0.0,0.0,0.0,0.0,0.0,0.0,0.0,0.0,0.0,0.0,0.0,0.0,0.0,0.0,0.0,0.0,0.0,0.0,0.0,0.0,0.0,0.0,0.0,0.0,0.0,0.0,0.0,0.0,0.0,0.0,0.0,0.0,0.0,0.0,0.0,0.0,0.0,0.0,0.0,0.0,0.0,0.0,0.0,0.0,0.0,0.0,0.0,0.0,0.0,0.0,0.0,0.0,0.0,0.0,0.0,0.0,0.0,0.0,0.0,0.0,0.0,0.0,0.0,0.0,0.0,0.0,0.0,0.0,0.0,0.0,0.0,0.0,0.0,0.0,0.0,0.0,0.0,0.0,0.0,0.0,0.0,0.0,0.0,0.0,0.0,0.0,0.0,0.0,0.0,0.0,0.0,0.0,0.0,0.0,0.0,0.0,0.0,0.0,0.0,0.0,0.0,0.0,0.0,0.0,0.0,0.0,0.0,0.0,0.0,0.0,0.0,0.0,0.0,0.0,0.0,0.0,0.0,0.0,0.0,0.0,0.0,0.0,0.0,0.0,0.0,0.0,0.0,0.0,0.0,0.0,0.0,0.0,0.0,0.0,0.0,0.0,0.0,0.0,0.0,0.0,0.0,0.0,0.0,0.0,0.0,0.0,0.0,0.0,0.0,0.0,0.0,0.0,0.0,0.0,0.0,0.0,0.0,0.0,0.0,0.0,0.0,0.0,0.0,0.0,0.0,0.0,0.0,0.0,0.0,0.0,0.0,0.0,0.0,0.0,0.0,0.0,0.0,0.0,0.0,0.0,0.0,0.0,0.0,0.0,0.0,0.0,0.0,0.0,0.0,0.0,0.0,0.0,0.0,0.0,0.0,0.0,0.0,0.0,0.0,0.0,0.0,0.0,0.0,0.0,0.0,0.0,0.0,0.0,0.0,0.0,0.0,0.0,0.0,0.0,0.0,0.0,0.0,0.0,0.0,0.0,0.0,0.0,0.0,0.0,0.0,0.0,0.0,0.0,0.0,0.0,0.0,0.0,0.0,0.0,0.0,0.0,0.0,0.0,0.0,0.0,0.0,0.0,0.0,0.0,0.0,0.0,0.0,0.0,0.0,0.0,0.0,0.0,0.0,0.0,0.0,0.0,0.0,0.0,0.0,0.0,0.0,0.0,0.0,0.0,0.0,0.0,0.0,0.0,0.0,0.0,0.0,0.0,0.0,0.0,0.0,0.0,0.0,0.0,0.0,0.0,0.0,0.0,0.0,0.0,0.0,0.0,0.0,0.0,0.0,0.0,0.0,0.0,0.0,0.0,0.0,0.0,0.0,0.0,0.0,0.0,0.0,0.0,0.0,0.0,0.0,0.0,0.0,0.0,0.0,0.0,0.0,0.0,0.0,0.0,0.0,0.0,0.0,0.0,0.0,0.0,0.0,0.0,0.0,0.0,0.0,0.0,0.0,0.0,0.0,0.0,0.0,0.0,0.0,0.0,0.0,0.0,0.0,0.0,0.0,0.0,0.0,0.0,0.0,0.0,0.0,0.0,0.0,0.0,0.0,0.0,0.0,0.0,0.0,0.0,0.0,0.0,0.0,0.0,0.0,0.0,0.0,0.0,0.0,0.0,0.0,0.0,0.0,0.0,0.0,0.0,0.0,0.0,0.0,0.0,0.0,0.0,0.0,0.0,0.0,0.0,0.0,0.0,0.0,0.0,0.0,0.0,0.0,0.0,0.0,0.0,0.0,0.0,0.0,0.0,0.0,0.0,0.0,0.0,0.0,0.0,0.0,0.0,0.0,0.0,0.0,0.0,0.0,0.0,0.0,0.0,0.0,0.0,0.0,0.0,0.0,0.0,0.0,0.0,0.0,0.0,0.0,0.0,0.0,0.0,0.0,0.0,0.0,0.0,0.0,0.0,0.0,0.0,0.0,0.0,0.0,0.0,0.0,0.0,0.0,0.0,0.0,0.0,0.0,0.0,0.0,0.0,0.0,0.0,0.0,0.0,0.0,0.0,0.0,0.0,0.0,0.0,0.0,0.0,0.0,0.0,0.0,0.0,0.0,0.0,0.0,0.0,0.0,0.0,0.0,0.0,0.0,0.0,0.0,0.0,0.0,0.0,0.0,0.0,0.0,0.0,0.0,0.0,0.0,0.0,0.0,0.0,0.0,0.0,0.0,0.0,0.0,0.0,0.0,0.0,0.0,0.0,0.0,0.0,0.0,0.0,0.0,0.0,0.0,0.0,0.0,0.0,0.0,0.0,0.0,0.0,0.0,0.0,0.0,0.0,0.0,0.0,0.0,0.0,0.0,0.0,0.0,0.0,0.0,0.0,0.0,0.0,0.0,0.0,0.0,0.0,0.0,0.0,0.0,0.0,0.0,0.0,0.0,0.0,0.0,0.0,0.0,0.0,0.0,0.0,0.0,0.0,0.0,0.0,0.0,0.0,0.0,0.0,0.0,0.0,0.0,0.0,0.0,0.0,0.0,0.0,0.0,0.0,0.0,0.0,0.0,0.0,0.0,0.0,0.0,0.0,0.0,0.0,0.0,0.0,0.0,0.0,0.0,0.0,0.0,0.0,0.0,0.0,0.0,0.0,0.0,0.0,0.0,0.0,0.0,0.0,0.0,0.0,0.0,0.0,0.0,0.0,0.0,0.0,0.0,0.0,0.0,0.0,0.0,0.0,0.0,0.0,0.0,0.0,0.0,0.0,0.0,0.0,0.0,0.0,0.0,0.0,0.0,0.0,0.0,0.0,0.0,0.0,0.0,0.0,0.0,0.0,0.0,0.0,0.0,0.0,0.0,0.0,0.0,0.0,0.0,0.0,0.0,0.0,0.0,0.0,0.0,0.0,0.0,0.0,0.0,0.0,0.0,0.0,0.0,0.0,0.0,0.0,0.0,0.0,0.0,0.0,0.0,0.0,0.0,0.0,0.0,0.0,0.0,0.0,0.0,0.0,0.0,0.0,0.0,0.0,0.0,0.0,0.0,0.0,0.0,0.0,0.0,0.0,0.0,0.0,0.0,0.0,0.0,0.0,0.0,0.0,0.0,0.0,0.0,0.0,0.0,0.0,0.0,0.0,0.0,0.0,0.0,0.0,0.0,0.0,0.0,0.0,0.0,0.0,0.0,0.0,0.0,0.0,0.0,0.0,0.0,0.0,0.0,0.0,0.0,0.0,0.0,0.0,0.0,0.0,0.0,0.0,0.0,0.0,0.0,0.0,0.0,0.0,0.0,0.0,0.0,0.0,0.0,0.0,0.0,0.0,0.0,0.0,0.0,0.0,0.0,0.0,0.0,0.0,0.0,0.0,0.0,0.0,0.0,0.0,0.0,0.0,0.0,0.0,0.0,0.0,0.0,0.0,0.0,0.0,0.0,0.0,0.0,0.0,0.0,0.0,0.0,0.0,0.0,0.0,0.0,0.0,0.0,0.0,0.0,0.0,0.0,0.0,0.0,0.0,0.0,0.0,0.0,0.0,0.0,0.0,0.0,0.0,0.0,0.0,0.0,0.0,0.0,0.0,0.0,0.0,0.0,0.0,0.0,0.0,0.0,0.0,0.0,0.0,0.0,0.0,0.0,0.0,0.0,0.0,0.0,0.0,0.0,0.0,0.0,0.0,0.0,0.0,0.0,0.0,0.0,0.0,0.0,0.0,0.0,0.0,0.0,0.0,0.0,0.0,0.0,0.0,0.0,0.0,0.0,0.0,0.0,0.0,0.0,0.0,0.0,0.0,0.0,0.0,0.0,0.0,0.0,0.0,0.0,0.0,0.0,0.0,0.0,0.0,0.0,0.0,0.0,0.0,0.0,0.0,0.0,0.0,0.0,0.0,0.0,0.0,0.0,0.0,0.0,0.0,0.0,0.0,0.0,0.0,0.0,0.0,0.0,0.0,0.0,0.0,0.0,0.0,0.0,0.0,0.0,0.0,0.0,0.0,0.0,0.0,0.0,0.0,0.0,0.0,0.0,0.0,0.0,0.0,0.0,0.0,0.0,0.0,0.0,0.0,0.0,0.0,0.0,0.0,0.0,0.0,0.0,0.0,0.0,0.0,0.0,0.0,0.0,0.0,0.0,0.0,0.0,0.0,0.0,0.0,0.0,0.0,0.0,0.0,0.0,0.0,0.0,0.0,0.0,0.0,0.0,0.0,0.0,0.0,0.0,0.0,0.0,0.0,0.0,0.0,0.0,0.0,0.0,0.0,0.0,0.0,0.0,0.0,0.0,0.0,0.0,0.0,0.0,0.0,0.0,0.0,0.0,0.0,0.0,0.0,0.0,0.0,0.0,0.0,0.0,0.0,0.0,0.0,0.0,0.0,0.0,0.0,0.0,0.0,0.0,0.0,0.0,0.0,0.0,0.0,0.0,0.0,0.0,0.0,0.0,0.0,0.0,0.0,0.0,0.0,0.0,0.0,0.0,0.0,0.0,0.0,0.0,0.0,0.0,0.0,0.0,0.0,0.0,0.0,0.0,0.0,0.0,0.0,0.0,0.0,0.0,0.0,0.0,0.0,0.0,0.0,0.0,0.0,0.0,0.0,0.0,0.0,0.0,0.0,0.0,0.0,0.0,0.0,0.0,0.0,6.5489,0.0,0.0,0.0,0.0,0.0,0.0,0.0,0.0,0.0,0.0,0.0,0.0,0.0,0.0,0.0,0.0,0.0,0.0,0.0,0.0,0.0,0.0,0.0,0.0,0.0,0.0,0.0,0.0,0.0,0.0,0.0,0.0,0.0,0.0,0.0,0.0,0.0,6.0843,6.0866,6.0888,6.0933,6.0955,6.0911,6.0888,0.0,0.0,0.0,0.0,0.0,0.0,0.0,0.0,0.0,0.0,0.0,0.0,0.0,0.0,0.0,0.0,0.0,0.0,0.0,0.0,0.0,0.0,0.0,0.0,0.0,0.0,0.0,0.0,0.0,0.0,0.0,0.0,0.0,0.0,0.0,0.0,0.0,0.0,0.0,0.0,0.0,0.0,0.0,0.0,0.0,0.0,0.0,0.0,0.0,0.0,0.0,0.0,0.0,0.0,0.0,0.0,0.0,0.0,0.0,0.0,0.0,0.0,0.0,0.0,0.0,0.0,0.0,0.0,0.0,0.0,0.0,0.0,6.6029,0.0,0.0,0.0,0.0,0.0,0.0,0.0,0.0,0.0,0.0,0.0,0.0,0.0,0.0,0.0,0.0,0.0,0.0,0.0,0.0,0.0,0.0,0.0,5.8665,5.955,5.9704,6.0419,6.0804,0.0,0.0,0.0,0.0,0.0,6.0781,6.0781,6.0804,6.0827,6.0911,6.0894,6.0976,6.1018,6.1018,0.0,0.0,0.0,0.0,0.0,0.0,0.0,0.0,0.0,0.0,0.0,0.0,0.0,0.0,0.0,0.0,0.0,0.0,0.0,0.0,0.0,0.0,0.0,0.0,0.0,0.0,0.0,0.0,0.0,0.0,0.0,0.0,0.0,0.0,0.0,0.0,0.0,0.0,0.0,0.0,0.0,0.0,0.0,0.0,0.0,0.0,0.0,0.0,0.0,0.0,0.0,0.0,0.0,0.0,0.0,0.0,0.0,0.0,0.0,0.0,0.0,0.0,0.0,0.0,0.0,0.0,6.6267,6.6344,6.6499,6.6499,6.6521,6.6565,6.6521,6.6444,6.6333,0.0,0.0,0.0,0.0,0.0,0.0,0.0,0.0,0.0,0.0,0.0,0.0,0.0,0.0,0.0,0.0,0.0,0.0,0.0,0.0,0.0,0.0,5.9358,5.9819,6.055,6.0789,6.0866,6.0781,0.0,6.0866,6.0781,6.0781,6.0781,6.0781,6.0866,6.0911,6.0911,6.098,6.1002,6.1099,6.1099,6.1022,6.0982,6.1018,0.0,0.0,0.0,0.0,0.0,0.0,0.0,0.0,0.0,0.0,0.0,0.0,0.0,0.0,0.0,0.0,0.0,0.0,0.0,0.0,0.0,0.0,0.0,0.0,0.0,0.0,0.0,0.0,0.0,0.0,0.0,0.0,0.0,0.0,0.0,0.0,0.0,0.0,0.0,0.0,0.0,0.0,0.0,6.3158,6.3158,0.0,0.0,0.0,0.0,0.0,0.0,0.0,0.0,0.0,0.0,0.0,0.0,0.0,6.5951,6.5859,6.5981,6.6466,6.72,6.7265,6.7712,6.8446,6.8446,6.8446,6.8446,6.8446,0.0,6.7299,6.8033,0.0,0.0,0.0,0.0,0.0,0.0,0.0,0.0,0.0,0.0,0.0,0.0,0.0,0.0,0.0,0.0,0.0,0.0,0.0,0.0,0.0,5.998,6.0465,6.0872,6.0933,6.0955,6.0911,6.0911,6.0888,6.0866,6.0804,6.0843,6.0866,6.0888,6.0894,6.098,6.1002,6.106,6.1118,6.1118,6.106,6.1041,6.106,6.1041,6.1,6.1,0.0,0.0,0.0,0.0,0.0,0.0,0.0,0.0,0.0,0.0,0.0,0.0,0.0,0.0,0.0,0.0,0.0,0.0,0.0,0.0,0.0,0.0,0.0,0.0,0.0,0.0,0.0,0.0,0.0,0.0,0.0,0.0,0.0,0.0,0.0,0.0,0.0,0.0,0.0,6.3207,6.3422,6.3422,6.3862,6.4147,0.0,0.0,0.0,0.0,0.0,0.0,0.0,0.0,0.0,6.6753,6.6791,6.7045,6.757,6.7613,6.7806,6.8193,6.8214,6.8429,6.8816,6.8816,6.8816,6.8816,6.928,6.922,6.885,6.8751,6.8668,6.8621,0.0,0.0,0.0,0.0,6.8574,6.8574,0.0,0.0,0.0,0.0,0.0,0.0,0.0,0.0,0.0,0.0,0.0,0.0,5.9909,6.0547,6.0955,6.0997,6.0997,6.1018,6.0997,6.0955,6.0933,6.0911,6.0866,6.0804,6.0911,6.0933,6.0959,6.1022,6.1099,6.1118,6.1118,6.1118,6.1118,6.1118,6.1118,6.106,6.1022,6.1022,6.1022,0.0,0.0,0.0,0.0,0.0,0.0,0.0,0.0,0.0,0.0,0.0,0.0,0.0,0.0,0.0,0.0,0.0,0.0,0.0,0.0,0.0,0.0,0.0,0.0,0.0,0.0,0.0,0.0,0.0,0.0,0.0,0.0,0.0,0.0,0.0,0.0,0.0,0.0,6.3939,6.4078,6.4055,6.4656,6.5018,0.0,0.0,0.0,0.0,0.0,0.0,6.6383,6.6576,6.7023,6.7746,6.7746,6.8077,6.8777,6.8816,6.8893,6.9125,6.9125,6.9241,6.9435,6.9435,6.9435,6.9473,7.0054,7.0324,7.0286,6.9623,6.9369,6.9308,6.9262,6.9239,6.9215,6.9239,6.9278,6.9262,0.0,0.0,0.0,0.0,0.0,0.0,0.0,0.0,0.0,0.0,0.0,5.9909,6.0757,6.0916,6.0997,6.0997,6.1,6.1021,6.0997,6.0997,6.0955,6.0911,6.0866,6.0804,6.0911,6.0941,6.1022,6.1079,6.1118,6.1118,6.1118,6.1118,6.1118,6.1118,6.1118,6.1118,6.1079,6.1079,6.1041,6.1002,0.0,0.0,0.0,0.0,0.0,0.0,0.0,0.0,0.0,0.0,0.0,0.0,0.0,0.0,0.0,0.0,0.0,0.0,0.0,0.0,0.0,0.0,0.0,0.0,0.0,0.0,0.0,0.0,0.0,0.0,0.0,0.0,0.0,0.0,0.0,0.0,0.0,0.0,0.0,6.5897,6.5981,0.0,0.0,0.0,0.0,6.599,6.6785,6.7271,6.7316,6.8111,6.8596,6.8738,6.8738,6.8738,6.8816,6.8816,6.9164,6.9938,6.9938,7.0363,7.1175,7.1175,7.1175,7.1175,7.1214,7.1214,7.1214,7.1175,7.1131,7.1047,7.1085,7.1038,7.099,7.1062,7.1085,7.1085,0.0,0.0,0.0,0.0,0.0,0.0,0.0,0.0,5.8149,5.9018,5.9887,6.0547,6.0941,6.1,6.1021,6.106,6.108,6.1041,6.106,6.1021,6.1,6.098,6.0938,6.0916,6.0941,6.1022,6.1099,6.1118,6.1118,6.1118,6.1118,6.166,6.193,6.1969,6.2511,6.2781,6.2743,6.2162,6.2259,6.2723,6.2762,6.2801,0.0,0.0,0.0,0.0,0.0,0.0,0.0,0.0,0.0,0.0,0.0,0.0,0.0,0.0,0.0,0.0,0.0,0.0,0.0,0.0,0.0,0.0,0.0,0.0,0.0,0.0,0.0,0.0,0.0,0.0,0.0,0.0,0.0,0.0,0.0,0.0,0.0,6.6013,6.6058,0.0,6.6785,6.6885,6.71,6.7702,6.8072,6.8309,6.8309,6.8601,6.9026,6.9551,6.9551,6.9821,7.0402,7.0402,7.0556,7.0827,7.0827,7.0982,7.1291,7.1291,7.1291,7.1291,7.1291,7.1291,7.1291,7.1291,7.1291,7.1269,7.1269,7.1247,7.1224,7.1247,7.1269,7.1269,0.0,0.0,0.0,0.0,0.0,0.0,0.0,0.0,5.8918,5.9502,6.0393,6.0938,6.1002,6.1022,6.1041,6.1118,6.1118,6.1118,6.1118,6.1041,6.1002,6.1002,6.1,6.1,6.1002,6.106,6.1118,6.1118,6.1389,6.1543,6.1543,6.2433,6.2859,6.2859,6.3439,6.3864,6.4097,6.3516,6.3439,6.371,6.3768,6.3768,6.371,0.0,0.0,0.0,0.0,0.0,0.0,0.0,0.0,0.0,0.0,0.0,0.0,0.0,0.0,0.0,0.0,0.0,0.0,0.0,0.0,0.0,0.0,0.0,0.0,0.0,0.0,0.0,0.0,0.0,0.0,0.0,0.0,0.0,0.0,0.0,6.6505,6.6437,6.6775,6.7222,6.7718,6.784,6.8094,6.8696,6.9026,6.9203,6.9203,6.9473,6.9899,7.0402,7.044,7.0711,7.1291,7.1291,7.1291,7.1291,7.1291,7.1291,7.1291,7.1291,7.1446,7.1756,7.1756,7.191,7.2181,7.2181,7.2181,7.2104,7.1523,7.1291,7.1291,7.1291,7.1291,7.1291,0.0,0.0,0.0,0.0,0.0,0.0,0.0,5.8434,5.9534,5.9639,6.0453,6.1018,6.1002,6.1041,6.1118,6.1118,6.1118,6.1118,6.1118,6.1041,6.1002,6.1002,6.1002,6.1002,6.1002,6.1099,6.1157,6.1157,6.2008,6.2433,6.2472,6.3323,6.3748,6.3748,6.3748,6.4251,6.5025,6.5025,6.4561,6.3787,6.3845,6.3845,6.3806,0.0,0.0,0.0,0.0,0.0,0.0,0.0,0.0,0.0,0.0,0.0,0.0,0.0,0.0,0.0,0.0,0.0,0.0,0.0,0.0,0.0,0.0,0.0,0.0,0.0,0.0,0.0,0.0,0.0,0.0,0.0,0.0,0.0,6.6206,6.6869,6.7432,6.7348,6.821,6.8794,6.8751,6.8794,6.8854,6.8893,6.9589,7.0054,7.0054,7.0827,7.1291,7.1291,7.1291,7.1291,7.1291,7.133,7.133,7.133,7.1369,7.1369,7.1369,7.1369,7.1833,7.2645,7.2645,7.3109,7.3883,7.3883,7.3883,7.3728,7.2026,7.1369,7.1369,7.1369,7.1369,7.1369,0.0,0.0,0.0,0.0,0.0,0.0,0.0,5.8819,5.9788,6.053,6.0822,6.1039,6.108,6.1099,6.1118,6.1118,6.1118,6.1118,6.1118,6.106,6.106,6.106,6.106,6.106,6.106,6.1718,6.2046,6.2046,6.2936,6.3323,6.3362,6.4213,6.4638,6.4677,6.5257,6.5644,6.5876,6.5876,6.5799,6.5682,6.578,6.5777,6.5677,0.0,0.0,0.0,0.0,0.0,0.0,0.0,0.0,0.0,0.0,0.0,0.0,0.0,0.0,0.0,0.0,0.0,0.0,0.0,0.0,0.0,0.0,0.0,0.0,0.0,0.0,0.0,0.0,0.0,0.0,0.0,6.8297,6.8265,6.7972,6.821,6.8386,6.8386,6.864,6.9009,6.9568,6.9667,6.9938,7.0556,7.0827,7.0943,7.0943,7.1175,7.1291,7.1291,7.1291,7.1291,7.1291,7.191,7.2258,7.2258,7.2877,7.3187,7.3187,7.3187,7.3303,7.3535,7.3535,7.369,7.3883,7.3883,7.3883,7.3844,7.338,7.3187,7.3187,7.3187,7.3187,7.3187,0.0,0.0,0.0,0.0,0.0,0.0,0.0,5.9534,6.0311,6.0899,6.1018,6.1021,6.1099,6.1118,6.1118,6.1118,6.1118,6.1118,6.1118,6.1118,6.1118,6.1118,6.1118,6.1118,6.1118,6.1969,6.2394,6.2394,6.3632,6.4251,6.4251,6.5102,6.5489,6.5528,6.5992,6.6185,6.6185,6.6185,6.6263,6.6399,6.6475,6.6477,6.6411,6.6573,6.6397,6.6144,6.6144,6.6102,6.6036,6.6036,0.0,0.0,0.0,0.0,0.0,0.0,0.0,0.0,0.0,0.0,0.0,0.0,0.0,0.0,0.0,0.0,0.0,0.0,0.0,0.0,0.0,0.0,0.0,0.0,6.9231,6.9353,6.9739,6.9491,6.9319,6.9319,6.9628,7.0015,7.0479,7.0518,7.075,7.1253,7.1291,7.1291,7.1291,7.1291,7.1485,7.1833,7.1833,7.2026,7.2375,7.2877,7.3148,7.3148,7.3651,7.3883,7.3883,7.3883,7.4077,0.0,7.4386,7.4618,7.4966,7.4966,7.4966,0.0,0.0,0.0,0.0,0.0,7.3883,7.3883,0.0,0.0,0.0,0.0,0.0,0.0,0.0,6.0288,6.0933,6.0976,6.1,6.1022,6.1079,6.1118,6.1118,6.1118,6.1118,6.1118,6.1118,6.1118,6.1118,6.1118,6.1118,6.1157,6.1234,6.2085,6.2588,6.2704,6.4329,6.5141,6.5141,6.5876,6.6185,6.6185,6.6224,6.6224,6.6224,6.6224,6.6301,6.6438,6.6439,6.6436,6.6422,6.6515,6.6417,6.6185,6.6185,6.6144,6.6102,6.6102,0.0,0.0,0.0,0.0,0.0,0.0,0.0,0.0,0.0,0.0,0.0,0.0,0.0,0.0,0.0,0.0,0.0,0.0,0.0,0.0,0.0,0.0,0.0,0.0,7.0148,7.0402,7.1175,7.0634,7.0131,7.0131,7.0827,7.1291,7.1291,7.1291,7.1291,7.1291,7.1369,7.1446,7.1446,0.0,0.0,0.0,0.0,7.3109,7.3883,7.3999,7.4038,7.4038,7.4115,7.4193,7.4193,7.4193,7.4579,7.5237,7.5237,7.5701,7.6397,7.6397,7.6397,7.6243,7.4773,7.4193,7.4193,7.4193,7.4193,7.4193,0.0,0.0,0.0,0.0,0.0,0.0,0.0,6.0242,6.0866,6.0976,6.0997,6.1039,6.1099,6.1118,6.1118,6.1118,6.1118,6.1118,6.1118,6.1118,6.1118,6.1118,6.1118,6.1427,6.2124,6.3013,6.3787,6.4483,6.5489,6.5953,6.5953,6.6147,6.6185,6.6185,6.6301,6.634,6.6379,6.6456,6.6572,6.6631,6.6632,6.6535,6.6419,6.6438,6.634,6.6185,6.6185,6.6185,6.6165,6.6165,6.6123,6.608,6.608,6.6036,0.0,0.0,0.0,0.0,0.0,0.0,0.0,0.0,0.0,0.0,0.0,0.0,0.0,0.0,0.0,0.0,0.0,0.0,0.0,7.0931,7.1015,7.1098,7.1291,7.1137,7.1059,7.1059,7.1214,7.1291,7.1291,7.1291,7.1291,7.1291,7.1949,7.2336,7.2336,7.3032,7.3458,7.3651,7.3651,7.3728,7.3883,7.4541,7.4889,7.4889,0.0,0.0,7.5933,7.5933,7.6011,7.6165,7.6165,7.6243,7.6397,7.6397,7.6397,7.6359,7.6049,7.5933,7.5933,7.5933,7.5933,7.5933,0.0,0.0,0.0,0.0,0.0,0.0,0.0,6.0465,6.0888,6.0976,6.1018,6.1021,6.1099,6.1118,6.1118,6.1118,6.1118,6.1118,6.1118,6.1118,6.1118,6.1118,6.1118,6.1505,6.2394,6.3245,6.4135,6.4986,6.5799,6.6185,6.6185,6.6185,6.6185,6.6224,6.634,6.6379,6.6399,6.6561,6.6625,6.6664,6.6664,6.6586,6.6493,6.6496,6.6379,6.6185,6.6185,6.6185,6.6263,6.6688,6.6822,6.6879,6.7304,6.7437,6.7492,0.0,0.0,0.0,0.0,0.0,0.0,0.0,0.0,0.0,0.0,0.0,0.0,0.0,0.0,7.0604,7.1077,0.0,7.1224,7.1247,7.1269,7.1291,7.1291,7.1678,7.1794,7.133,7.1291,7.1485,7.191,7.1949,7.2142,7.2568,7.2993,7.3264,7.3264,7.3651,7.4077,7.4502,7.4502,7.4695,7.516,7.5972,7.6397,7.6397,7.7287,7.7713,7.7713,7.7713,7.7713,7.7713,7.7713,7.7713,7.7713,7.7713,7.7713,7.7713,7.7713,7.7171,7.6397,7.6397,7.6397,7.6397,0.0,0.0,0.0,0.0,0.0,0.0,0.0,6.0647,6.0911,6.0976,6.098,6.1002,6.106,6.106,6.1099,6.1118,6.1118,6.1118,6.1118,6.1118,6.1118,6.1118,6.1273,6.1776,6.2627,6.3516,6.4367,6.5218,6.5876,6.6185,6.6185,6.6185,6.6185,6.6224,6.6379,6.6438,6.6454,6.6602,6.6672,6.6673,6.6829,6.6907,6.6886,6.7053,6.6863,6.6495,6.6495,6.6572,6.6843,6.7539,6.7771,6.7887,6.8584,6.8816,6.8794,6.8928,6.8944,0.0,0.0,0.0,0.0,0.0,0.0,0.0,0.0,7.1081,7.1056,7.113,7.113,7.1154,7.1224,7.1224,7.1286,7.1523,7.1562,7.1601,7.1794,7.2413,7.2607,7.1872,7.1794,7.2065,7.2761,7.2839,7.3148,7.3844,7.4038,7.4115,7.4115,7.4309,7.4773,7.5585,7.5624,7.6011,7.69,7.7597,7.7945,7.7945,7.8641,7.8989,7.8989,7.8989,7.8989,7.8989,7.8989,7.8989,7.8989,7.8989,7.8989,7.8989,7.8989,7.8138,7.69,7.69,7.69,7.69,0.0,0.0,0.0,0.0,0.0,0.0,0.0,0.0,6.0866,6.0911,6.0933,6.0938,6.1002,6.1022,6.1022,6.1079,6.1118,6.1118,6.1118,6.1118,6.1118,6.1118,6.1853,6.2665,6.3516,6.4406,6.5257,6.6069,6.6147,6.6185,6.6185,6.6185,6.6185,6.6224,6.6456,6.6583,6.6613,6.677,6.6878,6.6946,6.7725,6.7959,6.7938,6.87,6.8432,6.7598,6.7539,6.7985,6.8605,6.8622,6.8661,6.8661,6.8777,6.8816,6.8932,6.9667,6.9817,6.9903,7.0628,7.0863,7.094,7.1139,7.113,7.113,0.0,7.1224,7.1201,7.1269,7.1269,7.1269,7.1291,7.1291,7.1562,7.2336,7.2452,7.2723,7.3496,7.369,7.3728,7.3612,7.3612,7.3651,7.3767,7.3767,7.3806,7.3883,7.4579,7.4966,7.4966,7.5701,7.6514,7.7365,7.7403,7.7829,7.868,7.8796,7.8834,7.8873,7.895,7.8989,7.8989,7.8989,7.8989,7.8989,7.8989,7.8989,7.8989,7.8989,7.8989,7.8989,7.8989,7.8873,7.8718,7.8718,7.8718,7.8718,0.0,0.0,0.0,0.0,0.0,0.0,0.0,0.0,0.0,6.0911,6.0911,6.0933,6.098,6.0982,6.1022,6.1079,6.1118,6.1118,6.1118,6.1118,6.1118,6.1118,6.193,6.282,6.3671,6.4561,6.5373,6.6185,6.6185,6.6185,6.6185,6.6185,6.6224,6.6301,6.6495,6.6632,6.6664,6.6844,6.7183,6.7707,6.8058,6.8488,6.8913,6.9217,6.9429,6.9405,6.8668,6.8607,0.0,6.9357,6.9512,6.9589,7.0092,7.0247,7.0324,7.059,7.0683,7.0738,7.1062,7.1178,7.1201,7.1247,7.1201,7.1178,7.1269,7.1247,7.1224,7.1291,7.1678,7.2065,7.2065,7.2452,7.2916,7.3303,7.338,7.3496,7.3844,7.4309,7.4618,7.4618,7.5044,7.516,7.4657,7.4618,7.4811,7.5314,7.5662,7.6088,7.6591,7.6939,7.7558,7.8409,7.8448,7.8641,7.8989,7.9453,7.9685,7.9685,8.0227,8.0459,8.0459,8.0459,8.0459,8.0459,8.0459,8.0459,8.0459,8.0459,8.0459,8.0459,8.0459,8.0459,8.0343,7.9376,7.8989,7.8989,0.0,0.0,0.0,0.0,0.0,0.0,0.0,0.0,0.0,0.0,6.0888,6.0911,6.0955,6.1,6.1022,6.106,6.1118,6.1118,6.1118,6.1118,6.1118,6.1118,6.2162,6.3052,6.3671,6.4754,6.5605,6.6185,6.6185,6.6185,6.6185,6.6224,6.6301,6.6417,6.6533,6.6786,6.7077,6.7214,6.7734,6.8555,6.8789,6.9258,6.9844,7.0039,7.0498,7.0862,6.9733,6.9467,6.9744,7.0208,7.0363,7.0479,7.1098,7.1291,7.1269,7.1247,7.1224,7.1201,7.1224,7.1247,7.1269,7.1291,7.1269,7.1286,7.1601,7.1617,7.1672,7.1949,7.2529,7.2955,7.2955,7.3458,7.396,7.4193,7.4231,7.4309,7.4541,7.5082,7.5469,7.5469,7.6011,7.6165,7.5508,7.5469,7.574,7.6359,7.663,7.7016,7.7674,7.7945,7.8448,7.9299,7.9337,7.9453,7.9685,8.0266,8.0575,8.0575,8.1194,8.1504,8.1504,8.1504,8.1504,8.1504,8.1542,8.1581,8.1581,8.162,8.162,8.162,8.1581,8.1581,8.1387,8.015,7.9685,7.9685,0.0,0.0,0.0,0.0,0.0,0.0,0.0,0.0,0.0,0.0,0.0,0.0,0.0,6.098,6.1002,6.1002,6.1041,6.1118,6.1118,6.1118,6.1118,6.1118,6.2743,6.3671,6.371,6.5334,6.6185,6.6185,6.6185,6.6185,6.6185,6.634,6.6379,6.6417,6.6611,6.7173,6.7968,6.8111,6.8633,6.9453,7.0273,7.0625,7.0742,7.1601,7.1876,7.1647,7.0706,0.0,7.1562,7.133,7.1253,7.1253,7.1291,7.1247,7.1224,7.1269,7.1247,7.1224,7.1269,7.1247,7.1224,7.1269,7.1291,7.1523,7.2375,7.2568,7.28,7.3651,7.3844,7.3844,7.3844,7.3883,7.4154,7.4928,7.5082,7.5353,7.6204,7.6359,7.6359,7.6359,7.6359,7.6397,0.0,7.6359,7.6359,7.6397,7.7171,7.7674,7.7713,7.8486,7.9337,8.015,8.015,8.0575,8.1426,8.1465,8.1465,8.1465,8.1504,8.1504,8.1504,8.1504,8.1504,8.1504,8.1658,8.1697,8.1697,8.1813,8.189,8.1852,8.1736,8.1697,8.1658,8.1504,8.1426,8.1426,0.0,0.0,0.0,0.0,0.0,0.0,0.0,0.0,0.0,0.0,0.0,0.0,0.0,0.0,0.0,0.0,6.1041,6.1118,6.1118,6.1118,6.1118,6.1118,6.2781,6.371,6.371,6.5334,6.6185,6.6185,6.6185,6.6263,6.634,6.6379,6.6456,6.6611,6.665,6.7208,6.8138,6.8197,6.8984,7.0273,7.0586,7.1055,7.1561,7.1788,7.1857,7.1739,0.0,7.13,7.1523,7.1369,7.1291,7.1291,7.1291,7.1291,7.1269,7.1247,7.1224,7.1201,7.1224,7.1672,7.212,7.2181,7.2607,7.3109,7.3419,7.3458,7.3535,7.3844,7.4309,7.4695,7.4695,7.516,7.5662,7.5933,7.5972,7.6049,7.6359,7.6397,7.6397,7.6397,7.6397,0.0,0.0,0.0,0.0,7.721,7.7519,7.8177,7.9299,7.9647,8.0188,8.1039,8.1078,8.1194,8.1504,8.1504,8.1504,8.1504,8.1581,8.1581,8.1504,8.1697,8.1736,8.1658,8.1774,8.1846,8.1826,8.1865,8.1904,8.1904,8.1826,8.1834,8.1813,8.1774,8.1774,8.1736,0.0,0.0,0.0,0.0,0.0,0.0,0.0,0.0,0.0,0.0,0.0,0.0,0.0,0.0,0.0,0.0,0.0,6.1118,6.1118,6.1118,6.1234,6.1543,6.2936,6.3826,6.4135,6.5489,6.6185,6.6185,6.6185,6.6263,6.6379,6.6454,6.657,6.6709,6.7068,6.7751,6.8633,6.8945,6.9869,7.1082,7.1082,7.1429,7.188,7.1807,7.1746,0.0,7.1523,7.1446,7.1407,7.133,7.1291,7.1291,7.1291,7.1291,7.1291,7.1224,7.1456,7.1711,7.1711,7.2391,7.2993,7.2684,7.3264,7.3883,7.3883,7.4115,7.4425,7.4734,7.5198,7.5546,7.5546,7.6011,7.6397,7.6397,7.6397,7.6397,7.6397,7.6397,7.6397,7.6397,7.6397,7.6514,7.6823,0.0,0.0,7.7674,7.8254,7.9067,8.015,8.0498,8.0923,8.1504,8.1504,8.1504,8.1504,8.1504,8.1504,8.1504,8.1581,8.162,8.1581,8.1736,8.1794,8.1794,8.1886,8.1962,8.1998,8.2006,8.2031,8.2031,8.1992,8.1983,8.1954,8.1879,8.1846,8.1785,0.0,0.0,0.0,0.0,0.0,0.0,0.0,0.0,0.0,0.0,0.0,0.0,0.0,0.0,0.0,0.0,0.0,0.0,6.1118,6.1118,6.1505,6.2356,6.3245,6.4097,6.4986,6.5799,6.6185,6.6185,6.6185,6.6263,6.6399,6.6542,6.6659,6.6806,6.7748,6.8632,6.9491,7.0312,7.1105,7.1799,7.1777,7.178,7.1677,7.1677,7.163,7.1485,7.1485,7.1407,7.1291,7.1291,7.1291,7.1291,7.1291,7.1291,7.1291,7.1224,7.1827,7.2529,7.2529,7.3187,7.369,7.2877,7.3342,7.4038,7.4038,7.4618,7.5392,7.6243,7.6397,7.6397,7.6397,7.6397,7.6397,7.6397,7.6397,7.6397,7.6397,7.6397,7.6397,7.6436,7.6475,7.6823,7.7674,0.0,0.0,7.7829,0.0,8.0227,8.0266,8.1039,8.1504,8.1504,8.1504,8.1504,8.1504,8.1504,8.1504,8.1504,8.1504,8.1581,8.1697,8.1708,8.1796,8.1909,8.2027,8.208,8.2134,8.2248,8.2304,8.2304,8.2148,8.2104,8.2088,8.1833,8.1748,8.1696,0.0,0.0,0.0,0.0,0.0,0.0,0.0,0.0,0.0,0.0,0.0,0.0,0.0,0.0,0.0,0.0,0.0,0.0,6.1118,6.1118,6.1505,6.2356,6.3245,6.4097,6.4986,6.5799,6.6185,6.6185,6.6185,6.6263,6.6399,6.6431,6.6854,6.7541,6.7784,6.8726,7.0177,7.0372,7.098,7.1743,7.1746,7.1725,7.1688,7.1572,7.1513,7.1485,7.1369,7.133,7.1291,7.1291,7.1291,7.1291,7.1291,7.1291,7.1291,7.1269,7.1446,7.164,7.164,7.2723,7.3844,7.3612,7.4657,7.574,7.574,7.5933,7.6127,7.6359,7.6397,7.6397,7.6397,7.6397,7.6397,7.6397,7.6397,7.6397,7.6397,7.6397,7.663,7.7287,7.7365,7.7713,7.8564,7.9221,0.0,0.0,7.9956,8.0498,8.1117,8.1387,8.1504,8.1504,8.1504,8.1504,8.1504,8.1504,8.1504,8.1504,8.162,8.1658,8.1722,8.1921,8.1999,8.2083,8.219,8.2254,8.226,8.23,8.2304,8.2304,8.2265,8.2256,8.2241,8.2168,8.2068,8.1972,0.0,0.0,0.0,0.0,0.0,0.0,0.0,0.0,0.0,0.0,0.0,0.0,0.0,0.0,0.0,0.0,0.0,0.0,0.0,6.106,6.166,6.2936,6.3439,6.4251,6.5489,6.5953,6.6185,6.6185,6.6185,6.6263,6.6379,6.6376,6.6904,6.7829,6.8218,6.9111,7.0409,7.0814,7.1241,0.0,0.0,7.1562,7.1523,7.1446,7.1407,7.1407,7.133,7.1291,7.1291,7.1291,7.1291,7.1291,7.1291,7.1291,7.1291,7.1291,7.1562,7.1949,7.2336,7.3419,7.4425,7.4425,7.543,7.6281,7.5933,7.6127,7.6397,7.6397,7.6707,7.6978,7.6978,7.6978,7.6978,7.6978,7.6978,7.6978,7.6978,7.7287,7.7713,7.8216,7.8254,7.8602,7.9453,7.9956,8.0382,0.0,8.0769,8.1001,8.1465,8.1504,8.1504,8.1504,8.1504,8.1504,8.1504,8.1504,8.1542,8.1581,8.1658,8.1774,8.1877,8.2046,8.2116,8.2182,0.0,8.2304,8.2304,8.2304,8.2304,8.2304,8.2304,8.2304,8.2303,8.219,8.2059,8.199,0.0,0.0,0.0,0.0,0.0,0.0,0.0,0.0,0.0,0.0,5.9467,0.0,0.0,0.0,0.0,0.0,0.0,0.0,0.0,0.0,6.1892,6.3632,6.371,6.4483,6.6147,6.6185,6.6185,6.6185,6.6185,6.6263,6.6379,6.6379,6.692,6.7982,6.8717,6.9607,7.0573,7.133,7.1562,7.1446,7.1446,7.1407,7.1291,0.0,0.0,7.1291,7.1291,7.1291,7.1291,7.1291,7.1291,7.1291,7.1291,7.1291,7.1291,7.1291,7.191,7.2761,7.3535,7.4386,7.5121,7.5121,7.5779,7.6204,7.543,7.5856,7.6436,7.6552,7.7171,7.7751,7.7829,7.7867,7.7867,7.7867,7.7867,7.7867,7.7867,7.8525,7.9028,7.9144,7.9144,7.9492,8.0304,8.0382,8.0691,8.1465,8.1504,8.1504,8.1504,8.1504,8.1504,8.1504,8.1504,8.1504,8.1504,8.1504,8.1581,8.1697,8.1697,8.1852,8.2084,8.2084,8.217,8.2304,0.0,0.0,8.2304,8.2304,8.2304,8.2304,8.2304,8.2304,8.2265,8.2023,8.196,8.189,0.0,0.0,0.0,0.0,0.0,0.0,0.0,0.0,0.0,0.0,5.9102,5.9467,0.0,0.0,0.0,0.0,0.0,0.0,0.0,0.0,0.0,6.3632,6.371,6.4483,6.6147,6.6185,6.6185,6.6185,6.6185,6.6224,6.6224,6.6224,6.7075,6.8622,6.8777,6.9705,7.1137,7.1291,7.1369,7.133,7.133,7.133,7.1291,0.0,0.0,0.0,7.1291,7.1291,7.1291,7.1291,7.1291,7.1291,7.1291,7.1291,7.1291,7.1291,7.191,7.2645,7.2761,7.396,7.5121,7.5121,7.5779,7.6359,7.6204,7.6281,7.6591,7.7326,7.7597,7.7906,7.8641,7.8757,7.8757,7.8757,7.8757,7.8757,7.8757,7.8912,7.926,7.9918,7.9995,8.0343,8.1194,8.1271,8.1349,0.0,8.1504,8.1504,8.1504,8.1504,8.1504,8.1504,8.1504,8.1504,8.1504,8.1504,8.1581,8.1697,8.1697,8.1852,8.2084,8.2084,8.217,8.2304,8.2304,0.0,8.2304,8.2304,8.2304,8.2304,8.2304,8.2304,8.2304,8.2262,8.2151,8.205,0.0,0.0,0.0,0.0,0.0,0.0,0.0,5.8698,5.8698,5.8698,5.8825,5.9102,5.9432,5.9962,6.0376,0.0,0.0,0.0,0.0,0.0,0.0,0.0,0.0,0.0,6.6147,6.6185,6.6185,6.6185,0.0,6.6185,6.6185,6.6185,6.7114,6.8816,6.8816,6.9744,7.1291,7.1291,7.1291,7.1291,7.1291,7.1291,0.0,0.0,0.0,0.0,7.1291,7.1291,7.1291,7.1291,7.1291,7.1291,7.1291,7.1291,7.1369,7.1833,7.2258,7.28,7.3651,7.4502,7.5198,7.5662,7.6088,7.6397,7.6397,7.6746,7.721,7.7597,7.837,7.9144,7.9569,7.9608,7.9608,7.9608,7.9608,7.9608,7.9608,7.9995,8.0459,8.0846,8.0885,8.1039,8.1465,8.1504,8.1504,8.1504,8.1504,8.1504,8.1504,8.1504,8.1504,8.1504,8.1504,8.1542,8.162,8.162,8.1697,8.189,8.189,8.2008,8.2194,8.2194,8.2234,8.2304,8.2304,0.0,8.2304,8.2304,8.2304,8.2304,8.2304,8.2304,8.2304,8.2226,8.2154,8.2104,0.0,0.0,0.0,0.0,0.0,0.0,0.0,5.8698,5.8698,5.8698,5.8698,5.8784,5.9026,5.9772,6.0237,0.0,0.0,0.0,0.0,0.0,0.0,0.0,0.0,0.0,0.0,0.0,0.0,6.6185,6.6185,0.0,0.0,0.0,0.0,0.0,6.8816,6.9744,7.1291,7.1291,7.1291,0.0,0.0,7.1291,0.0,0.0,0.0,0.0,0.0,7.1291,7.1291,7.1291,7.1291,7.133,7.1523,7.1562,7.1717,7.2413,7.2839,7.3419,7.4734,7.5237,7.5546,7.6243,7.6397,7.6436,7.663,7.721,7.779,7.8177,7.9299,8.0266,8.0459,8.0498,8.0498,8.0498,8.0498,8.0498,8.0498,8.1078,8.1504,8.1504,8.1504,8.1504,8.1504,8.1504,8.1504,8.1504,8.1504,8.1504,8.1504,8.1504,8.1504,8.1504,8.1504,8.1581,8.1697,8.1697,8.1813,8.2084,8.2084,8.2154,8.2304,8.2304,8.2304,8.2304,8.2304,0.0,0.0,8.2304,8.2304,8.2304,8.2304,8.2304,8.2304,8.2187,8.2148,8.2147,0.0,0.0,0.0,0.0,0.0,0.0,0.0,5.8698,5.8698,5.8698,5.8698,5.8698,5.8739,5.9397,6.0,0.0,0.0,0.0,0.0,0.0,0.0,0.0,0.0,0.0,0.0,0.0,0.0,6.6185,6.6185,0.0,0.0,0.0,0.0,0.0,0.0,6.9744,7.1291,7.1291,0.0,0.0,0.0,0.0,0.0,0.0,0.0,0.0,0.0,7.1291,7.1291,7.1291,7.1291,7.1446,7.222,7.2491,7.2491,7.2568,7.369,7.4889,7.5082,7.5662,7.6281,7.6359,7.6397,7.6591,7.7403,7.7635,7.8138,7.9647,8.0111,8.0459,8.1233,8.1387,8.1387,8.1387,8.1387,8.1387,8.1387,8.1465,8.1504,8.1504,8.1504,8.1504,8.1504,8.1504,8.1504,8.1504,8.1504,8.1504,8.1504,8.1504,8.1504,8.1504,8.1504,8.1581,8.1697,8.1697,8.1813,8.2084,8.2084,8.2154,8.2304,8.2304,8.2304,8.2304,8.2304,0.0,0.0,8.2304,8.2304,8.2304,8.2304,8.2304,8.2304,8.2304,8.2265,8.2265,0.0,0.0,0.0,0.0,0.0,0.0,5.8698,5.8698,5.8698,5.8698,5.8698,5.8698,5.8698,5.9363,5.9874,6.0,0.0,0.0,0.0,0.0,0.0,0.0,0.0,0.0,0.0,0.0,6.6185,6.6185,6.6185,0.0,0.0,0.0,0.0,0.0,0.0,6.9744,7.1291,7.1291,0.0,0.0,0.0,0.0,0.0,0.0,0.0,0.0,0.0,0.0,7.1291,7.1291,7.164,7.2142,7.2491,7.3303,7.4115,7.4115,7.4579,7.5198,7.574,7.6127,7.6397,7.6397,7.6397,7.663,7.7481,7.8099,7.8796,7.9956,8.0614,8.1078,8.1465,8.1504,8.1504,8.1504,8.1504,8.1504,8.1504,8.1504,8.1504,8.1504,8.1504,8.1504,8.1504,8.1504,8.1542,8.162,8.162,8.162,8.162,8.162,8.1658,8.1736,8.1736,8.1813,8.1929,8.1929,8.2028,8.2221,8.2221,8.2248,8.2304,8.2304,8.2304,8.2304,8.2304,0.0,0.0,8.2304,8.2304,8.2304,8.2304,8.2304,8.2304,8.2304,8.2304,8.2304,0.0,0.0,0.0,0.0,0.0,5.8698,5.8698,5.8698,5.8698,5.8698,5.8698,5.8698,5.8698,5.9363,5.9809,5.9809,6.0403,0.0,0.0,0.0,0.0,0.0,0.0,0.0,0.0,0.0,6.6185,6.6185,6.6185,6.6185,0.0,0.0,6.6998,6.8429,0.0,0.0,0.0,0.0,0.0,0.0,0.0,0.0,0.0,0.0,0.0,0.0,0.0,0.0,0.0,0.0,0.0,7.2645,7.2916,7.396,7.5121,7.5121,7.5276,7.5624,7.6243,7.6397,7.6397,7.6397,7.6591,7.7016,7.7906,7.8757,7.9608,8.042,8.1078,8.1504,8.1504,8.1504,8.1504,8.1504,8.1504,8.1504,8.1504,8.1504,8.1504,8.1504,8.1504,8.1504,8.1504,8.1504,8.1581,8.1697,8.1658,8.1697,8.1813,8.1774,8.1774,8.1852,8.1879,8.1956,8.2084,8.2084,8.2193,8.2304,8.2304,8.2304,8.2304,8.2304,8.2304,8.2304,8.2304,0.0,0.0,8.2304,8.2304,8.2304,8.2304,8.2304,8.2304,8.2304,8.2304,8.2304,0.0,0.0,0.0,0.0,0.0,0.0,5.8698,5.8698,5.8698,5.8698,5.8698,5.8698,5.8698,5.9363,5.9809,5.9809,6.0403,0.0,0.0,0.0,0.0,0.0,0.0,0.0,0.0,0.0,6.6185,6.6185,6.6185,6.6185,6.6185,6.6185,6.6688,6.7539,0.0,0.0,0.0,0.0,0.0,0.0,0.0,0.0,0.0,0.0,0.0,0.0,0.0,0.0,0.0,0.0,0.0,0.0,0.0,7.4425,7.5121,7.5121,7.5701,7.6397,7.6397,7.6397,7.6397,7.6397,7.7055,7.7906,7.8796,7.9608,8.042,8.131,8.1504,8.1504,8.1504,8.1504,8.1504,8.1504,8.1504,8.1504,8.1504,8.1504,8.1504,8.1504,8.1504,8.1504,8.1504,8.1504,8.1581,8.1697,8.1581,0.0,8.2084,8.1968,8.1852,8.1697,8.1826,8.1959,8.2084,8.2084,8.2193,8.2304,8.2304,8.2304,8.2304,8.2304,8.2304,0.0,0.0,0.0,0.0,8.2304,8.2304,8.2304,8.2304,8.2304,8.2304,8.2304,8.2304,8.2304,0.0,0.0,0.0,0.0,0.0,0.0,0.0,5.8698,5.8698,5.8698,5.8698,5.8698,5.8698,5.9363,5.9809,5.9809,6.0403,0.0,0.0,0.0,0.0,0.0,0.0,0.0,0.0,0.0,6.6185,6.6185,6.6185,6.6185,6.6185,6.6185,6.6688,6.7539,6.8429,6.9241,0.0,0.0,0.0,0.0,0.0,0.0,0.0,0.0,0.0,0.0,0.0,0.0,0.0,0.0,0.0,0.0,0.0,0.0,0.0,7.5972,7.6165,7.6397,7.6397,7.6397,7.6397,7.6397,7.7055,7.7945,7.8796,7.9608,8.0459,8.131,8.1504,8.1504,8.1504,8.1504,8.1504,8.1504,8.1504,8.1504,8.1504,8.1504,8.1504,8.1504,8.1504,8.1542,8.162,8.1658,8.1736,8.1968,8.1929,8.1968,8.2084,8.2161,8.2165,8.2101,8.2149,8.2193,8.2226,8.2226,8.2271,8.2304,8.2304,8.2304,8.2304,8.2304,8.2304,0.0,0.0,0.0,0.0,8.2304,8.2304,8.2304,8.2304,8.2304,8.2304,8.2304,8.2304,8.2304,0.0,0.0,0.0,0.0,0.0,0.0,0.0,5.8698,5.8698,5.8698,5.8698,5.8739,5.8865,5.9432,5.9874,6.0,6.0494,0.0,0.0,0.0,0.0,0.0,0.0,0.0,0.0,6.5314,6.6185,6.6185,6.6185,6.6185,6.6185,6.6185,6.6495,6.7075,6.8274,6.9087,0.0,0.0,0.0,0.0,0.0,0.0,7.1291,0.0,0.0,0.0,0.0,0.0,0.0,0.0,0.0,0.0,0.0,0.0,0.0,0.0,7.6397,7.6397,7.6397,7.6397,7.6397,7.6397,7.7287,7.8332,7.8873,7.9879,8.0846,8.1387,8.1504,8.1504,8.1504,8.1504,8.1504,8.1504,8.1504,8.1504,8.1504,8.1504,8.1542,8.1581,8.1581,8.162,8.1774,8.1736,8.1813,8.2084,8.204,8.2062,8.2186,8.22,8.2241,8.2299,8.2292,8.2304,8.2304,8.2304,8.2304,8.2304,8.2304,8.2304,8.2304,8.2304,8.2304,0.0,0.0,0.0,0.0,8.2304,8.2304,8.2304,8.2304,8.2304,8.2304,8.2304,8.2304,8.2304,0.0,0.0,0.0,0.0,0.0,0.0,0.0,5.8698,5.8698,5.8698,5.8698,5.8825,5.9178,5.9571,5.9899,6.0265,0.0,0.0,0.0,0.0,0.0,0.0,0.0,0.0,6.357,6.5294,6.6185,6.6185,6.6185,6.6185,6.6185,6.6185,6.6185,6.6263,6.8003,6.8893,0.0,0.0,0.0,0.0,7.1291,7.1291,0.0,0.0,0.0,0.0,0.0,0.0,0.0,0.0,0.0,0.0,0.0,0.0,0.0,0.0,0.0,0.0,0.0,7.6397,7.6397,7.6475,7.7751,7.9028,7.9067,8.0343,0.0,8.1504,8.1504,8.1504,8.1504,8.1504,8.1504,8.1504,8.1504,8.1504,8.1504,8.1504,8.1542,8.1658,8.1697,8.1736,8.189,8.1813,8.1838,8.2065,8.2014,8.2061,8.2305,8.2172,8.2211,8.2398,8.2374,8.2344,8.2304,8.2304,8.2304,8.2304,8.2304,8.2304,8.2304,8.2304,8.2304,0.0,0.0,0.0,0.0,8.2304,8.2304,8.2304,8.2304,8.2304,8.2304,8.2304,8.2304,8.2304,0.0,0.0,0.0,0.0,0.0,0.0,0.0,0.0,0.0,0.0,5.8698,5.8825,5.9178,5.9571,5.9899,0.0,0.0,0.0,0.0,0.0,0.0,0.0,0.0,0.0,6.3461,6.523,6.6123,6.6123,6.6165,6.6185,6.6185,6.6185,6.6185,6.6263,6.8003,6.9512,0.0,0.0,0.0,0.0,7.1291,7.1291,0.0,0.0,0.0,0.0,7.1291,7.1291,0.0,0.0,0.0,0.0,0.0,0.0,0.0,0.0,7.6397,7.6397,7.6397,0.0,7.6552,7.721,7.8216,7.9144,0.0,8.073,8.1504,8.1504,8.1504,8.1504,8.1504,8.1504,8.1504,8.1504,8.1504,8.1504,8.1504,8.1504,8.1504,8.1542,8.1658,8.1736,8.189,8.1968,8.2087,8.2241,8.2207,8.2246,8.2299,8.2279,8.2573,8.3269,8.3276,8.2969,8.2304,8.2304,8.2304,8.2304,8.2304,8.2304,8.2304,8.2304,8.2304,0.0,0.0,0.0,8.2304,8.2304,8.2304,8.2304,8.2304,8.2304,8.2304,8.2304,8.2304,8.2304,0.0,0.0,0.0,0.0,0.0,0.0,0.0,0.0,0.0,0.0,0.0,5.9064,5.9432,5.9804,0.0,0.0,0.0,0.0,0.0,0.0,0.0,0.0,0.0,6.3415,6.3415,6.5126,6.608,6.6102,6.6123,6.6165,6.6185,6.6185,6.6185,6.6263,6.8003,6.9744,0.0,0.0,0.0,0.0,7.1291,0.0,0.0,0.0,0.0,0.0,7.1291,7.1291,0.0,7.3303,7.3883,7.4193,0.0,0.0,0.0,0.0,7.6397,7.6397,7.6397,7.6397,7.6591,7.7481,7.837,7.9221,8.0034,8.0885,8.1504,8.1504,8.1504,8.1504,8.1504,8.1504,8.1504,8.1504,8.1504,8.1504,8.1504,8.1542,8.162,8.1697,8.1736,8.1885,0.0,8.2086,8.2162,8.2303,8.2304,8.2304,8.2304,8.2678,8.3089,8.3593,8.3984,8.3984,8.3515,8.3476,8.3476,8.3476,8.3476,8.3281,8.289,8.289,8.2695,0.0,0.0,0.0,8.2304,8.2304,8.2304,8.2304,8.2304,8.2304,8.2304,8.2304,8.2304,8.2304,0.0,0.0,0.0,0.0,0.0,0.0,0.0,0.0,0.0,0.0,0.0,0.0,0.0,0.0,0.0,0.0,0.0,0.0,0.0,0.0,0.0,0.0,6.2521,6.343,6.3584,6.5157,6.6036,6.608,6.6102,6.6144,6.6185,6.6185,6.634,6.6688,6.8274,6.986,0.0,0.0,0.0,0.0,7.1291,0.0,0.0,0.0,0.0,0.0,0.0,0.0,0.0,7.3458,7.3999,7.4193,7.5856,0.0,0.0,0.0,0.0,0.0,7.6397,7.6397,7.663,7.7635,7.8448,7.926,8.0188,8.0962,8.1504,8.1504,8.1504,8.1504,8.1504,8.1504,8.1504,8.1504,8.1504,8.1504,8.1542,8.162,8.1736,8.189,8.1929,0.0,8.2232,8.2192,8.2201,8.2303,8.2304,8.2304,8.2304,8.3125,8.3672,8.3789,8.4648,8.5156,8.5312,8.5039,8.4883,8.4883,8.4883,8.4453,8.3594,8.3594,8.3125,8.2304,0.0,0.0,8.2304,8.2304,8.2304,8.2304,8.2304,8.2304,8.2304,8.2304,8.2304,8.2304,0.0,0.0,0.0,0.0,0.0,0.0,0.0,0.0,0.0,0.0,0.0,0.0,0.0,0.0,0.0,0.0,0.0,0.0,0.0,0.0,0.0,6.1858,6.2781,6.3666,6.4422,6.5442,6.6013,6.6013,6.6123,6.6185,6.6185,6.6185,6.6998,6.8429,6.9396,7.0363,7.1291,0.0,0.0,7.1291,7.1291,0.0,0.0,0.0,0.0,0.0,0.0,0.0,0.0,7.4115,7.4463,7.4193,7.5856,0.0,0.0,0.0,0.0,0.0,7.6397,7.6397,7.6784,7.8409,7.8912,7.9415,8.0962,8.1387,8.1504,8.1504,8.1504,8.1504,8.1504,8.1504,8.1504,8.1504,8.1504,8.1542,8.1658,8.1697,8.1736,8.189,0.0,8.208,8.2139,8.2201,8.2295,8.2304,8.2304,8.2304,8.2304,8.3125,8.3945,8.4687,8.5547,8.6367,8.7109,8.5625,8.4883,8.4883,8.4883,8.4453,8.3594,8.3594,8.3125,8.2304,0.0,8.2304,8.2304,8.2304,8.2304,8.2304,8.2304,8.2304,8.2304,8.2304,8.2304,8.2304,0.0,0.0,0.0,0.0,0.0,0.0,0.0,0.0,0.0,0.0,0.0,0.0,0.0,0.0,0.0,0.0,0.0,0.0,0.0,0.0,6.1858,6.2704,6.3551,6.4205,6.4589,6.5485,6.5943,6.6013,6.6058,6.6123,6.6224,6.6688,6.7578,6.8854,6.9628,7.0479,7.1291,7.1291,7.1291,7.1291,0.0,0.0,0.0,0.0,0.0,0.0,0.0,0.0,0.0,0.0,7.4579,7.4193,7.5856,0.0,0.0,0.0,0.0,0.0,7.6397,7.6397,7.6707,7.7983,7.8293,7.8757,8.042,8.0807,8.0923,8.1387,8.1504,8.1504,8.1504,8.1504,8.1504,8.1504,8.1504,8.1542,8.1697,8.1697,8.1774,0.0,0.0,8.2139,8.2182,8.2276,8.2304,8.2304,8.2304,8.25,8.2969,8.3828,8.4687,8.5586,8.6445,8.7109,8.75,8.6719,8.6289,8.6289,8.6289,8.5859,8.5,8.4531,8.3828,8.2969,0.0,8.2304,8.2304,8.2304,8.2304,8.2304,8.2304,8.2304,8.2304,8.2304,8.2304,8.2304,0.0,0.0,0.0,0.0,0.0,0.0,0.0,0.0,0.0,0.0,0.0,0.0,0.0,0.0,0.0,0.0,0.0,0.0,0.0,6.1627,6.2474,6.3281,6.4128,6.4705,6.4897,6.5576,6.5933,6.6013,6.6013,6.6196,6.6533,6.7384,6.8274,6.9125,6.9938,7.0672,7.1291,7.1291,7.1291,7.1291,0.0,0.0,0.0,0.0,0.0,0.0,0.0,0.0,0.0,0.0,0.0,0.0,0.0,0.0,0.0,7.6397,7.6397,7.6397,7.6397,7.6397,7.6552,7.721,7.7558,7.8138,7.984,8.0188,8.0459,0.0,0.0,8.1504,8.1504,8.1504,8.1504,8.1504,8.1504,8.1581,8.1736,8.1755,8.1829,8.2087,8.2145,8.2207,8.2303,8.2304,8.2304,8.2304,8.2304,8.2695,8.3554,8.4414,8.5312,8.6172,8.7031,8.75,8.75,8.75,8.75,8.75,8.75,8.7031,8.6172,8.5312,8.4414,8.3554,8.2695,8.2304,8.2304,8.2304,8.2304,8.2304,8.2304,8.2304,8.2304,8.2304,8.2304,8.2304,0.0,0.0,0.0,0.0,0.0,0.0,0.0,0.0,0.0,0.0,0.0,0.0,0.0,0.0,0.0,0.0,0.0,0.0,0.0,6.1627,6.2474,6.3281,6.4128,6.4974,6.5782,6.5933,6.5982,6.6013,6.6058,6.6548,6.7423,6.8313,6.9125,6.9938,7.0827,7.1253,7.1291,7.1291,7.1291,7.1291,7.1291,0.0,0.0,0.0,0.0,0.0,0.0,0.0,0.0,0.0,0.0,0.0,0.0,0.0,7.6397,7.6397,7.6397,7.6397,7.6397,7.6397,7.6397,7.6475,7.7094,7.8138,7.984,8.0188,0.0,8.131,0.0,0.0,0.0,8.1504,8.1504,8.1504,8.1504,8.1581,8.1852,0.0,8.2006,8.2256,8.23,8.2303,8.2304,8.2304,8.2304,8.2304,8.2304,8.2695,8.3554,8.4414,8.5312,8.6172,8.7031,8.75,8.75,8.75,8.75,8.75,8.75,8.7031,8.6172,8.5312,8.4414,8.3554,8.2695,8.2304,8.2304,8.2304,8.2304,8.2304,8.2304,8.2304,8.2304,8.2304,8.2304,8.2304,0.0,0.0,0.0,0.0,0.0,0.0,0.0,0.0,0.0,0.0,0.0,0.0,0.0,0.0,0.0,0.0,0.0,0.0,0.0,6.2089,6.2974,6.3281,6.4666,6.5576,6.5972,6.5996,6.5982,6.6013,6.6102,6.6629,6.7539,6.839,6.9241,7.0054,7.0905,7.1291,7.1291,7.1291,7.1291,7.1291,7.1291,7.1291,0.0,0.0,0.0,0.0,0.0,0.0,0.0,0.0,7.4889,7.485,7.6011,7.6397,7.6397,7.6397,7.6397,7.6397,7.6397,7.6436,7.6475,7.6397,7.6707,0.0,0.0,7.9453,7.984,8.1233,8.1504,0.0,0.0,0.0,8.1504,8.1504,8.1504,8.1581,8.1852,8.1908,8.1997,8.2264,8.2304,8.2304,8.2304,8.2304,8.2304,8.2304,8.2304,8.2929,8.4336,8.4726,8.5547,8.6953,8.7344,8.75,8.75,8.75,8.75,8.75,8.75,8.7344,8.6953,8.5547,8.4726,8.4336,8.289,8.2304,8.2304,8.2304,8.2304,8.2304,8.2304,8.2304,8.2304,8.2304,8.2304,8.2304,0.0,0.0,0.0,0.0,0.0,0.0,0.0,0.0,0.0,0.0,0.0,0.0,0.0,0.0,0.0,0.0,0.0,0.0,6.1204,6.2512,6.3435,6.3705,6.5128,6.5923,6.5996,6.5982,6.6029,6.6036,6.6415,6.7075,6.7926,6.8777,6.9628,7.044,7.1021,7.1291,7.1291,7.1291,7.1291,7.1291,7.1291,7.1446,0.0,0.0,0.0,0.0,0.0,0.0,0.0,0.0,7.4889,7.5237,7.6127,7.6397,7.6397,7.6397,7.6436,7.6436,7.6436,7.6514,7.6598,7.6555,0.0,0.0,7.8641,7.9028,7.9492,8.1155,8.1504,8.1504,8.1504,0.0,0.0,0.0,8.1542,8.1658,8.1852,8.1951,8.2026,8.2264,8.2304,8.2304,8.2304,8.2304,8.2304,8.2304,8.2304,8.3047,0.0,8.4883,8.5703,8.7422,8.75,8.75,8.75,8.75,8.75,8.75,8.75,8.75,8.7422,8.5703,8.4883,8.4804,8.3047,8.2304,8.2304,8.2304,8.2304,8.2304,8.2304,8.2304,8.2304,8.2304,8.2304,8.2304,0.0,0.0,0.0,0.0,0.0,0.0,0.0,0.0,0.0,0.0,0.0,0.0,0.0,0.0,0.0,0.0,0.0,0.0,6.205,6.2858,6.3705,6.4551,6.5436,6.5923,6.5996,6.599,6.6036,6.6102,6.7054,6.7965,6.8816,6.9628,7.0479,7.1291,7.1291,7.1291,7.1291,7.1291,7.1291,7.1291,7.1291,7.1833,7.2607,0.0,0.0,0.0,0.0,0.0,0.0,0.0,7.4463,7.5276,7.6127,7.6397,7.6397,7.6397,7.6475,7.6591,7.6591,7.6614,7.6648,7.6767,0.0,0.0,7.8704,7.9028,7.9453,8.1155,8.1504,8.1504,8.1504,8.1504,0.0,8.1504,8.162,8.1736,8.189,8.2006,8.2164,8.2261,8.2304,8.2304,8.2304,8.2304,8.2304,8.2304,8.2304,0.0,0.0,8.4883,8.5703,8.7422,8.75,8.75,8.75,8.75,8.75,8.75,8.75,8.75,8.7422,8.5703,8.4883,8.4804,8.3047,8.2304,8.2304,8.2304,8.2304,8.2304,8.2304,8.2304,8.2304,8.2304,8.2304,8.2304,0.0,0.0,0.0,0.0,0.0,0.0,0.0,0.0,0.0,0.0,0.0,0.0,0.0,0.0,0.0,0.0,0.0,0.0,6.205,6.3435,6.432,6.4589,6.5485,6.5958,6.599,6.608,6.6144,6.6165,6.7075,6.7965,6.8816,6.9628,7.0479,7.1291,7.1291,7.1291,7.1291,7.1291,7.164,7.222,7.222,7.2723,7.3496,0.0,0.0,0.0,0.0,0.0,0.0,0.0,0.0,0.0,7.632,7.6397,7.6397,7.6397,7.6436,7.6436,7.6436,7.6594,7.6715,7.6691,7.7207,7.7983,0.0,7.8602,0.0,0.0,8.1194,8.1658,8.1658,8.1658,0.0,8.1542,8.162,8.174,8.1887,8.2044,8.2164,8.2261,8.2304,8.2304,8.2304,8.2304,8.2304,8.2304,8.2304,0.0,0.0,8.4883,8.5703,8.7422,8.75,8.75,8.75,8.75,8.75,8.75,8.75,8.75,8.7422,8.5703,8.4883,8.4804,8.3047,8.2304,8.2304,8.2304,8.2304,8.2304,8.2304,8.2304,8.2304,8.2304,8.2304,8.2304,0.0,0.0,0.0,0.0,0.0,0.0,0.0,0.0,0.0,0.0,5.8825,5.9064,0.0,0.0,0.0,0.0,0.0,0.0,0.0,6.3858,6.4743,6.5089,6.5702,6.6005,6.6036,6.6144,6.6379,6.6727,6.7578,6.8468,6.928,7.0131,7.0789,7.1291,7.1291,7.1291,7.133,7.1678,7.2104,7.2607,7.2607,7.3109,7.3844,0.0,0.0,0.0,0.0,0.0,0.0,0.0,0.0,0.0,7.6397,7.6397,7.6397,7.6436,7.6514,7.6552,7.663,7.6769,7.6877,7.6845,7.7525,7.8418,7.9114,7.9221,0.0,0.0,8.131,8.1697,8.162,8.1658,0.0,8.1581,8.1697,8.1856,8.1968,8.2092,8.2218,8.2303,8.2304,8.2304,8.2304,8.2304,8.2304,8.2304,0.0,0.0,0.0,8.4883,8.5703,8.7422,8.75,8.75,8.75,8.75,8.75,8.75,8.75,8.75,8.7422,8.5703,8.4883,8.4804,8.3047,8.2304,8.2304,8.2304,8.2304,8.2304,8.2304,8.2304,8.2304,8.2304,8.2304,8.2304,0.0,0.0,6.0237,5.9874,0.0,0.0,0.0,0.0,0.0,0.0,5.9025,5.9252,0.0,0.0,0.0,0.0,0.0,0.0,0.0,6.4243,6.5051,6.5884,6.5972,6.6029,6.6102,6.6242,6.6766,6.7617,6.8429,6.9203,7.0015,7.0905,7.1291,7.1291,7.1291,7.1291,7.1369,7.222,7.2607,7.2607,7.2684,7.3187,7.3806,7.3032,0.0,0.0,0.0,0.0,0.0,0.0,0.0,0.0,7.6397,7.6397,7.6397,7.6552,7.6668,7.6808,7.6924,7.7001,7.7052,7.7244,7.7818,7.8559,7.9438,8.0624,8.1514,8.1426,0.0,8.1697,8.1542,8.162,8.1697,8.1697,8.1824,8.194,8.2084,8.224,8.2304,8.2304,8.2304,8.2304,8.2304,8.2304,8.2304,8.2304,0.0,0.0,0.0,8.4883,8.5703,8.7422,8.75,8.7499,8.7453,8.7499,8.75,8.7461,8.75,8.75,8.7422,8.5703,8.4804,8.457,8.3008,8.2304,8.2304,8.2304,8.2304,8.2304,8.2304,8.2304,8.2304,8.2304,8.2304,8.2304,0.0,0.0,6.052,5.9868,0.0,0.0,0.0,0.0,0.0,0.0,0.0,0.0,0.0,0.0,0.0,0.0,0.0,0.0,0.0,6.5128,6.573,6.5972,6.6052,6.6102,6.6165,6.6882,6.7655,6.8506,6.87,6.9203,7.0015,7.0905,7.1291,7.1291,7.1291,7.1291,7.1369,7.222,7.2607,7.2645,7.3342,7.3728,7.3883,7.369,7.3728,0.0,0.0,0.0,0.0,0.0,0.0,0.0,7.6397,7.6397,7.6397,7.6436,7.6514,7.663,7.6668,7.6846,7.7179,7.7909,7.9154,8.0452,8.1307,8.166,8.1631,8.0942,8.1349,8.1813,8.1697,8.1697,8.1697,8.1697,8.1815,8.1947,8.208,8.224,8.2304,8.2304,8.2304,8.2304,8.2304,8.2304,8.2304,8.2304,0.0,0.0,8.4804,8.4883,8.5703,8.7422,8.75,8.7407,8.7252,8.7401,8.7422,0.0,8.7422,8.75,8.7422,8.5703,8.414,8.2851,8.2461,8.2304,8.2304,8.2304,8.2304,8.2304,8.2304,8.2304,8.2304,8.2304,8.2304,8.2304,0.0,0.0,0.0,0.0,0.0,0.0,0.0,0.0,0.0,0.0,0.0,0.0,0.0,0.0,0.0,0.0,0.0,0.0,0.0,0.0,6.5996,6.6052,6.6058,6.6123,6.6185,6.7036,6.7926,6.8816,6.9203,6.9783,7.0634,7.1098,7.1291,7.1291,7.1291,7.1291,7.1369,7.222,7.2607,7.2684,7.3535,7.3883,7.3883,7.3883,7.4154,7.4541,7.4966,0.0,0.0,0.0,0.0,0.0,0.0,0.0,7.6397,7.6475,7.6552,7.6704,7.7258,7.7533,7.7922,7.9259,8.0263,8.1126,8.2006,8.2143,8.1948,8.1424,8.1691,8.1929,8.1813,8.1852,8.189,8.189,8.1945,8.2042,8.2182,8.2266,8.2304,8.2304,8.2304,8.2304,8.2304,8.2304,8.2304,8.2304,0.0,8.3047,8.4804,8.4883,8.5703,8.7422,8.75,8.7447,8.7332,8.7444,8.7456,8.7339,8.7339,8.6948,8.6133,8.5273,8.3945,8.2304,8.2304,8.2304,8.2304,8.2304,8.2304,8.2304,8.2304,8.2304,8.2304,8.2304,8.2304,8.2304,0.0,0.0,0.0,0.0,0.0,0.0,0.0,0.0,0.0,0.0,0.0,0.0,0.0,0.0,0.0,0.0,0.0,0.0,0.0,0.0,0.0,6.6102,6.6102,6.6221,6.6417,6.7268,6.8158,6.9009,6.9821,7.0595,7.1291,7.1291,7.1291,7.1291,7.1291,7.1291,7.1369,7.222,7.2607,7.2684,7.3535,7.3883,7.3922,7.4038,7.4541,7.5121,7.5276,7.5779,7.6397,7.6397,0.0,0.0,0.0,0.0,7.6436,7.6707,7.6784,7.7077,7.816,7.8587,7.9101,8.0625,8.1094,8.1406,8.2148,8.2305,8.2289,8.2172,8.2131,8.2044,8.1918,8.1995,8.2065,8.2109,8.2084,8.2145,8.2297,8.2304,8.2304,8.2304,8.2304,8.2304,8.2304,8.2304,8.2304,8.2304,0.0,8.3008,8.4609,8.4804,8.5625,8.7226,8.7372,8.7437,8.7459,8.742,8.741,8.7383,8.7228,8.6316,8.4687,8.4804,8.3945,8.2304,8.2304,8.2304,8.2304,8.2304,8.2304,8.2304,8.2304,8.2304,8.2304,8.2304,8.2304,8.2304,0.0,0.0,0.0,0.0,0.0,0.0,0.0,0.0,0.0,0.0,6.0237,6.0709,0.0,6.2012,6.2666,6.4128,6.4474,6.496,6.5765,0.0,0.0,6.6102,6.6144,6.6533,6.7307,6.8197,6.9009,6.9821,7.0711,7.1175,0.0,0.0,7.1291,7.1291,7.1291,7.1291,7.1369,7.222,7.2607,7.2684,7.3535,7.3883,7.3999,7.4657,7.5005,7.5198,7.5972,7.6281,7.6397,7.6397,7.6397,0.0,0.0,0.0,7.6552,7.7326,7.7635,7.793,7.8839,7.9773,8.0547,8.0898,8.1562,8.2148,8.2265,8.2304,8.2301,8.2262,8.2178,8.2071,8.1935,8.1895,8.1959,8.208,8.2084,8.2145,8.2297,8.2304,8.2304,8.2304,8.2304,8.2304,8.2304,8.2304,8.2304,8.2304,8.2304,8.2734,8.3711,8.4492,8.5351,8.6328,8.6957,8.7233,8.723,8.7113,8.706,8.7074,8.7035,8.6199,8.4687,8.4726,8.3828,8.2304,8.2304,8.2304,8.2304,8.2304,8.2304,8.2304,8.2304,8.2304,8.2304,8.2304,8.2304,8.2304,0.0,0.0,0.0,0.0,0.0,0.0,0.0,0.0,0.0,0.0,0.0,6.1697,6.2666,6.3205,6.3782,6.4551,6.5051,6.5524,6.5967,6.6013,6.608,6.6144,6.6629,6.7114,6.7501,6.8816,6.9628,6.9976,7.0866,0.0,0.0,7.1291,7.1291,0.0,0.0,7.1291,7.1369,7.222,7.2607,7.2723,7.4038,7.4579,7.4657,7.5508,7.5817,7.5895,7.6243,0.0,0.0,0.0,7.6397,7.6475,7.6978,0.0,0.0,0.0,7.8486,7.8718,7.971,8.074,8.1562,8.1679,8.2031,8.2304,8.2304,8.2304,8.2304,8.2304,8.2265,8.2186,8.212,8.211,8.2131,8.2201,8.2229,8.221,8.2303,8.2304,8.2304,8.2304,8.2304,8.2304,8.2304,8.2304,8.2304,8.2304,8.2304,8.2695,8.3554,8.4414,8.5288,8.6179,8.6854,8.7202,8.7213,8.7082,8.6959,8.688,8.7035,8.6211,8.4582,8.4741,8.3906,8.2304,8.2304,8.2304,8.2304,8.2304,8.2304,8.2304,8.2304,8.2304,8.2304,8.2304,8.2304,8.2304,0.0,0.0,0.0,0.0,0.0,0.0,0.0,0.0,0.0,0.0,0.0,6.2704,6.3551,0.0,0.0,0.0,6.5513,6.5909,6.599,6.6036,6.6179,6.6533,6.7152,6.7694,6.8119,6.9357,7.0092,7.0324,0.0,0.0,7.1291,7.1291,7.1291,0.0,7.1291,7.1407,0.0,0.0,0.0,0.0,7.4618,7.5237,7.5508,7.6165,7.6397,7.6397,7.6397,0.0,0.0,0.0,0.0,0.0,7.7751,7.8022,0.0,0.0,0.0,7.9801,8.0638,8.1452,8.2054,8.2226,8.2265,8.2265,8.2304,8.2304,8.2304,8.2304,8.2304,8.2304,8.2304,8.2304,8.2304,8.2304,8.2304,8.2304,8.2304,8.2304,8.2304,8.2304,8.2304,8.2304,8.2304,8.2304,8.2304,8.2304,8.2304,8.2578,8.3242,8.4297,8.5207,8.5862,8.6693,8.7188,8.719,8.702,8.6904,8.6764,8.6996,8.6197,8.4498,8.4752,8.3921,8.2304,8.2304,8.2304,8.2304,8.2304,8.2304,8.2304,8.2304,8.2304,8.2304,8.2304,8.2304,8.2304,0.0,0.0,0.0,0.0,0.0,0.0,0.0,0.0,0.0,0.0,0.0,6.3589,6.4436,6.4589,6.4936,6.5743,6.5859,6.5909,6.599,6.6123,6.6572,6.7384,6.7501,0.0,6.9821,6.9938,7.0402,7.1214,0.0,0.0,7.1291,7.1291,7.1291,7.1291,7.1291,7.1756,7.2529,0.0,0.0,0.0,0.0,7.5585,7.632,0.0,0.0,0.0,0.0,0.0,0.0,0.0,0.0,0.0,0.0,0.0,7.9105,0.0,0.0,0.0,8.1581,8.1698,8.1767,8.2061,8.2109,8.2148,8.2265,8.2304,8.2304,8.2304,8.2304,8.2304,8.2304,8.2304,8.2304,8.2304,8.2304,8.2304,8.2304,8.2304,8.2304,8.2304,8.2304,8.2304,8.2304,8.2304,8.2304,8.2304,8.2304,8.2304,8.2383,8.3984,8.4936,8.4961,8.6285,8.7076,8.719,8.6945,8.6752,8.661,8.6764,8.6001,8.4518,8.4643,8.382,8.2304,8.2304,8.2304,8.2304,8.2304,8.2304,8.2304,8.2304,8.2304,8.2304,8.2304,8.2304,8.2304,0.0,0.0,0.0,0.0,0.0,0.0,0.0,0.0,0.0,0.0,0.0,0.0,0.0,6.5485,6.5625,6.5933,6.5958,6.626,6.6869,6.6952,6.7381,6.8313,6.8816,6.9396,6.9976,7.0556,7.0982,0.0,0.0,7.1291,7.1291,7.1291,7.1291,7.133,7.1872,7.2297,7.2684,7.3767,0.0,0.0,0.0,0.0,0.0,0.0,0.0,0.0,0.0,0.0,0.0,0.0,0.0,0.0,0.0,0.0,0.0,0.0,8.1271,8.1542,8.1658,8.1717,8.1734,8.1926,8.2031,8.2109,8.2148,8.2226,8.2304,8.2304,8.2304,8.2304,8.2304,8.2304,8.2304,8.2304,8.2304,8.2304,8.2304,8.2304,8.2304,8.2304,8.2304,8.2304,8.2304,8.2304,8.2304,8.2304,8.2304,8.2304,8.2304,8.3437,8.4316,8.4871,8.5715,8.6376,8.6803,8.6726,8.6648,8.661,8.6726,8.5984,8.4493,8.4638,8.3826,8.2304,8.2304,8.2304,8.2304,8.2304,8.2304,8.2304,8.2304,8.2304,8.2304,8.2304,8.2304,8.2304,0.0,0.0,0.0,0.0,0.0,0.0,0.0,0.0,0.0,0.0,0.0,0.0,0.0,0.0,6.6121,6.6429,6.6476,6.6869,6.7763,6.7862,6.827,6.9164,6.9705,7.0131,7.044,7.0982,7.1291,0.0,0.0,0.0,0.0,7.1291,7.1446,7.1756,7.2645,7.3032,0.0,0.0,0.0,7.5585,0.0,0.0,7.6397,0.0,0.0,0.0,0.0,0.0,0.0,0.0,0.0,0.0,0.0,0.0,0.0,0.0,0.0,8.1542,8.162,8.162,8.1658,8.1813,8.1904,8.2007,8.2068,8.2187,8.2265,8.2304,8.2304,8.2304,8.2304,8.2304,8.2304,8.2304,8.2304,8.2304,8.2304,8.2304,8.2304,8.2304,8.2304,8.2304,8.2304,8.2304,8.2304,8.2304,8.2304,0.0,8.2304,8.3125,8.4081,8.5143,8.5805,8.6281,8.661,8.661,8.661,8.661,8.6726,8.5971,8.4414,8.4608,8.3789,8.2226,8.2265,8.2304,8.2304,8.2304,8.2304,8.2304,8.2304,8.2304,8.2304,8.2304,8.2304,8.2304,0.0,0.0,0.0,0.0,0.0,0.0,0.0,0.0,0.0,6.5881,0.0,0.0,0.0,0.0,0.0,6.7271,6.7393,6.7802,6.8674,6.8794,6.9203,6.9976,7.0054,7.044,7.1291,7.1291,7.1291,7.1291,7.1291,7.1291,7.133,0.0,7.1794,7.2684,7.3535,7.396,7.3999,0.0,7.5624,7.6397,0.0,7.6397,7.6397,0.0,0.0,0.0,7.6436,7.6978,0.0,7.8718,0.0,0.0,0.0,0.0,0.0,0.0,0.0,0.0,0.0,0.0,0.0,8.1658,8.1697,8.1794,8.2046,8.2109,8.2148,8.2265,8.2304,8.2304,8.2304,8.2304,8.2304,8.2304,8.2304,8.2304,8.2304,8.2304,8.2304,8.2304,8.2304,8.2304,8.2304,8.2304,8.2304,8.2304,8.2304,8.2304,8.2304,8.3125,8.4233,8.5611,8.6489,8.6842,8.661,8.661,8.661,8.661,8.6726,8.5913,8.4314,8.4559,8.3711,8.2109,8.2226,8.2304,8.2304,8.2304,8.2304,8.2304,8.2304,8.2304,8.2304,8.2304,8.2304,8.2304,0.0,0.0,0.0,0.0,0.0,0.0,6.5581,6.562,6.572,0.0,0.0,0.0,6.6862,6.7564,6.8072,6.8386,6.8386,6.8756,6.9568,6.9667,7.0054,7.0905,7.0943,7.1059,7.1291,7.1291,7.1291,7.1291,7.1291,7.1601,7.222,7.222,7.2723,7.3574,7.4386,7.4773,7.4811,7.5662,0.0,7.6397,7.6397,7.6397,0.0,0.0,0.0,0.0,0.0,7.7597,7.7906,0.0,8.0034,8.0343,0.0,0.0,0.0,0.0,0.0,0.0,8.1504,0.0,0.0,0.0,0.0,0.0,8.1796,8.1883,8.2,8.2146,8.2148,8.2187,8.2265,8.2304,8.2304,8.2304,8.2304,8.2304,8.2304,8.2304,8.2304,8.2304,8.2304,8.2304,8.2304,8.2304,8.2304,0.0,8.2304,8.2304,8.2304,8.3036,8.3865,8.4819,8.5557,8.6145,8.661,8.661,8.661,8.661,8.5991,8.5268,8.4417,8.3871,8.3103,8.2265,8.2265,8.2304,8.2304,8.2304,8.2304,8.2304,8.2304,8.2304,8.2304,8.2304,8.2304,8.2304,0.0,0.0,6.6013,6.6013,0.0,6.6013,6.6013,6.6036,6.6151,0.0,0.0,0.0,6.784,6.8403,6.8889,6.928,6.9319,6.9667,7.0479,7.0518,7.075,7.1291,7.1291,7.1291,7.1291,7.1291,7.1291,7.1291,7.164,7.2104,7.2607,7.2955,7.3574,7.4425,7.4889,7.5314,0.0,0.0,0.0,0.0,7.6436,0.0,0.0,7.663,7.6841,0.0,0.0,0.0,7.895,7.9879,8.0459,0.0,0.0,0.0,0.0,0.0,0.0,0.0,0.0,0.0,0.0,8.1504,0.0,0.0,8.1774,8.185,8.1959,8.214,8.2198,8.2226,8.2304,8.2304,8.2304,8.2304,8.2304,8.2304,8.2304,8.2304,8.2304,8.2304,8.2304,8.2304,8.2304,8.2304,8.2304,8.2304,8.2304,8.2304,8.2304,8.3003,8.3568,8.395,8.4654,8.5333,8.6068,8.6068,8.6261,8.661,8.5797,8.5036,8.4379,8.3644,8.2883,8.2211,8.2292,8.2304,8.2304,8.2304,8.2304,8.2304,8.2304,8.2304,8.2304,8.2304,8.2304,8.2304,0.0,0.0,6.6036,6.6036,6.6113,6.619,6.619,6.6312,6.6681,0.0,6.769,6.8081,6.8854,6.9009,6.9357,7.0092,7.0131,7.0479,7.1253,7.1291,7.1291,7.1291,7.1291,7.1291,7.1291,7.1369,7.1446,7.1446,7.2336,7.28,7.2877,0.0,0.0,7.5237,7.5237,7.5662,7.6397,0.0,0.0,7.6397,7.6552,7.6591,0.0,0.0,7.7427,7.8092,7.8202,7.9183,8.0445,8.0382,8.0885,0.0,0.0,0.0,0.0,0.0,8.1504,0.0,0.0,0.0,0.0,0.0,8.1504,0.0,8.1813,8.1852,8.1954,8.2172,8.2233,8.2223,8.2262,8.2262,8.2262,8.2262,8.2265,8.2265,8.2304,8.2304,8.2304,8.2304,8.2304,8.2304,8.2304,8.2304,8.2304,8.2304,8.2304,8.2304,8.2295,8.287,8.3203,8.3192,8.3811,8.4443,8.5178,8.5178,8.5565,8.63,8.5577,8.4856,8.4171,8.3528,8.2844,8.2139,8.2248,8.2304,8.2304,8.2304,8.2304,8.2304,8.2304,8.2304,8.2304,8.2304,8.2304,8.2304,6.608,6.6123,6.6144,6.6144,6.6724,6.7188,6.7188,6.7828,6.833,6.8485,6.9125,6.9589,6.9744,7.0402,7.0866,7.1021,7.1059,7.1098,7.1291,7.1291,7.1291,7.1291,7.1291,7.1291,7.1291,7.1988,7.2336,7.2336,7.3226,7.3999,0.0,0.0,0.0,0.0,7.6165,7.6243,7.6397,0.0,0.0,7.6397,7.6552,0.0,7.6707,7.7659,7.8049,7.83,7.9714,8.0367,8.0638,8.1233,8.1581,8.1813,0.0,0.0,0.0,0.0,0.0,0.0,0.0,0.0,0.0,0.0,0.0,0.0,8.1581,8.1581,8.1615,8.1796,8.1836,8.187,8.1967,8.1977,8.1977,8.1977,8.2086,8.2187,8.2265,8.2304,8.2304,8.2304,8.2304,8.2304,8.2304,8.2304,8.2304,8.2304,8.2304,8.226,8.2126,8.2176,8.2435,8.3037,8.3051,8.3476,8.4327,8.4327,8.4405,8.4598,8.3863,8.3436,8.3392,8.2677,8.2318,8.2276,8.2301,8.2304,8.2304,8.2304,8.2304,8.2304,8.2304,8.2304,8.2304,8.2304,8.2304,8.2304,6.7459,6.748,6.7501,6.7501,6.7849,6.8158,6.8158,6.8506,6.8932,6.9357,7.0131,7.0634,7.0634,7.1021,7.1291,7.1291,7.1678,7.1949,7.1949,7.2375,7.2607,7.2607,7.2607,7.2607,7.2607,7.3032,7.3264,7.3264,7.4077,7.4695,0.0,0.0,0.0,0.0,7.6397,7.6397,7.6436,0.0,7.7055,7.7055,7.7272,0.0,7.746,7.8598,7.9218,7.9672,8.0513,8.101,8.1289,8.1659,8.1829,0.0,0.0,8.1757,8.1776,0.0,8.1658,8.162,0.0,0.0,0.0,8.1504,0.0,0.0,0.0,8.162,8.163,8.1751,8.1794,8.1814,8.1873,8.1892,8.1892,8.1892,8.2007,8.2114,8.2186,8.2265,8.2304,8.2304,8.2304,8.2304,8.2304,8.2304,8.2304,8.2304,8.2304,8.2234,8.2095,8.1967,8.2027,8.2355,8.2238,8.2587,8.3438,8.3515,8.3786,8.4211,8.3528,8.3227,8.3252,8.2528,8.2226,8.2304,8.2304,8.2304,8.2304,8.2304,8.2304,8.2304,8.2304,8.2304,8.2304,8.2304,8.2304,8.2304,6.8854,6.8816,6.8816,6.8816,6.8932,6.9048,6.9048,6.9164,6.9512,7.017,7.0866,7.1291,7.1291,0.0,0.0,0.0,7.2336,7.2839,0.0,7.3496,7.3883,7.3883,7.3883,7.3883,7.3883,7.4038,7.4115,7.4115,7.4966,7.5353,7.5392,7.6049,0.0,0.0,0.0,0.0,0.0,0.0,0.0,7.7983,0.0,7.8457,7.8414,7.9516,8.0351,8.0976,8.1054,8.1461,8.1977,8.1938,8.1943,8.1901,8.1815,8.1826,0.0,0.0,0.0,0.0,0.0,0.0,0.0,0.0,0.0,8.1542,0.0,0.0,0.0,8.1813,8.1813,8.1813,8.1813,8.1813,8.1813,8.1813,8.1929,8.2028,8.2037,8.2139,0.0,8.2276,8.2261,8.2303,8.2276,8.2276,8.225,8.2265,8.2265,8.2221,8.2087,8.1972,8.1852,8.1697,8.1581,8.1852,8.2548,8.2664,8.3089,8.3786,8.3373,8.3154,8.3102,8.2577,8.2304,8.2304,8.2304,8.2304,8.2304,8.2304,8.2304,8.2304,8.2304,8.2304,8.2304,8.2304,8.2304,8.2304,6.9087,6.8816,6.8816,6.8816,6.9396,6.986,6.986,7.0518,7.1059,7.1137,7.1253,7.1291,0.0,0.0,0.0,0.0,0.0,0.0,7.3767,0.0,7.3883,7.3883,7.3883,7.3883,7.3883,7.4618,7.4966,7.4966,7.5817,7.6243,7.6243,7.6359,0.0,0.0,7.6746,0.0,0.0,0.0,7.8138,0.0,7.9763,7.9696,0.0,8.0254,8.0742,8.0937,8.1836,8.2187,8.2223,0.0,8.2077,8.2045,0.0,8.1964,8.191,0.0,0.0,0.0,0.0,0.0,0.0,0.0,8.1581,0.0,0.0,0.0,8.1542,8.1542,0.0,8.1542,8.1542,0.0,0.0,8.1542,8.1658,8.1763,8.1758,8.187,8.1987,8.2122,8.224,8.226,8.2143,8.2095,8.2131,8.2107,8.2109,8.2108,8.21,8.1981,8.1852,8.1697,8.1581,8.1542,8.1658,8.1774,8.189,8.2006,8.2161,8.2238,8.2225,8.2265,8.2304,8.2304,8.2304,8.2304,8.2304,8.2304,8.2304,8.2304,8.2304,8.2304,8.2304,8.2304,8.2304,8.2304,7.0402,7.0247,7.0247,7.0247,7.0518,7.075,7.075,7.1485,7.2065,7.2065,7.2491,0.0,0.0,0.0,0.0,0.0,0.0,7.4618,0.0,0.0,0.0,7.5353,7.5353,7.5353,7.5353,7.5662,7.5856,7.5856,7.6204,7.6668,7.7132,7.7132,7.7635,0.0,7.8061,0.0,7.9028,0.0,7.9376,0.0,0.0,0.0,0.0,8.1337,8.1585,8.1719,8.2148,8.2304,8.2304,0.0,8.2237,0.0,0.0,0.0,0.0,0.0,0.0,0.0,0.0,0.0,0.0,0.0,0.0,0.0,8.1542,0.0,8.1504,0.0,0.0,0.0,0.0,0.0,0.0,0.0,8.162,8.1708,8.1691,8.1814,8.1912,8.1968,0.0,0.0,8.2112,8.2107,8.2156,8.2216,8.2149,8.2109,8.2109,8.2053,8.1944,8.1722,8.1658,8.162,8.162,8.1736,8.1852,8.1929,8.2124,8.2201,8.2211,8.2253,8.2304,8.2304,8.2304,8.2304,8.2304,8.2304,8.2304,8.2304,8.2304,8.2304,8.2304,8.2304,8.2304,8.2383,7.1291,0.0,0.0,7.1291,7.1291,7.1369,7.1601,7.2413,0.0,0.0,0.0,0.0,7.3883,7.4115,0.0,0.0,0.0,7.5469,0.0,0.0,7.6397,0.0,0.0,0.0,0.0,7.663,7.6746,7.6746,7.6978,7.7442,7.8061,7.8061,0.0,0.0,0.0,7.926,7.9724,0.0,8.0343,8.0614,8.1271,8.1577,8.1769,8.2017,8.2192,8.2304,8.2304,8.2304,8.2304,8.2304,8.2265,0.0,8.2153,0.0,0.0,0.0,0.0,0.0,8.2148,0.0,0.0,0.0,0.0,0.0,0.0,0.0,0.0,0.0,0.0,0.0,0.0,0.0,0.0,0.0,0.0,8.1658,8.1658,8.1736,8.1801,8.1826,0.0,0.0,0.0,8.1968,8.2045,8.2161,8.2089,8.2063,8.2148,8.2109,8.1993,8.1813,8.1763,8.1736,8.1736,8.189,8.2006,8.2109,8.2218,8.2304,8.2304,8.2304,8.2304,8.2304,8.2304,8.2304,8.2304,8.2304,8.2304,8.2304,8.2304,8.2304,8.2304,8.2304,8.2304,8.2422,7.1291,7.1291,0.0,0.0,0.0,7.1562,7.2413,0.0,0.0,0.0,0.0,0.0,0.0,0.0,0.0,0.0,0.0,7.6359,7.6359,0.0,7.6397,0.0,0.0,7.6397,0.0,0.0,7.7674,7.7674,7.8486,7.8912,7.895,7.895,0.0,0.0,7.9337,7.9918,8.1387,8.0536,8.0691,8.1465,8.1504,8.1659,8.1909,0.0,8.2192,8.2304,8.2304,0.0,0.0,8.2304,8.2226,0.0,0.0,0.0,0.0,0.0,0.0,0.0,0.0,0.0,0.0,8.1917,0.0,0.0,0.0,0.0,8.1504,0.0,0.0,0.0,0.0,0.0,0.0,0.0,0.0,0.0,0.0,8.1504,8.1542,8.1683,0.0,0.0,0.0,8.1722,8.1774,8.189,8.1904,8.2015,8.2265,8.2187,8.2109,8.2108,8.1959,8.189,8.189,8.2045,8.2084,8.2109,8.2218,8.2304,8.2304,8.2304,8.2304,8.2304,8.2304,8.2304,8.2304,8.2304,8.2304,8.2304,8.2304,8.2304,8.2304,8.2304,8.2304,8.2422,0.0,0.0,0.0,0.0,0.0,0.0,0.0,7.4154,0.0,0.0,0.0,0.0,0.0,0.0,7.5972,0.0,0.0,7.6397,7.6397,7.6939,0.0,0.0,0.0,7.7829,0.0,0.0,0.0,0.0,0.0,0.0,7.9801,7.9801,0.0,0.0,0.0,8.0962,0.0,0.0,0.0,0.0,0.0,8.1871,8.2028,0.0,0.0,8.2304,8.2304,8.2304,0.0,8.2304,8.2265,8.2226,8.2304,8.2285,8.2234,8.2301,8.2304,0.0,0.0,0.0,8.2187,8.2054,0.0,0.0,0.0,0.0,0.0,0.0,0.0,0.0,0.0,0.0,0.0,0.0,0.0,0.0,0.0,8.1504,8.1542,8.1581,8.1658,8.1697,0.0,0.0,8.189,8.2006,8.2018,8.21,8.2304,8.2265,8.2187,8.2109,8.2071,8.2026,8.2006,8.2084,8.2126,8.2218,8.2295,8.2304,8.2304,8.2304,8.2304,8.2304,8.2304,8.2304,8.2304,8.2304,8.2304,8.2304,8.2304,8.2304,8.2304,8.2304,8.2656,8.3359,7.3883,0.0,0.0,0.0,0.0,0.0,0.0,0.0,0.0,0.0,7.6049,0.0,7.6397,0.0,7.6397,0.0,7.6668,7.6862,7.6862,7.7674,0.0,7.7365,7.8409,0.0,0.0,0.0,0.0,0.0,0.0,8.015,8.0653,8.0653,8.0962,0.0,0.0,8.1504,8.1504,8.1504,8.1542,0.0,0.0,8.2006,0.0,0.0,8.2304,8.2304,0.0,8.2304,8.2304,8.2304,8.2304,8.2304,8.2304,8.2304,8.2304,8.2304,8.2304,8.2304,8.2304,8.2304,0.0,8.2148,8.2023,0.0,8.177,0.0,0.0,0.0,0.0,0.0,0.0,0.0,0.0,0.0,0.0,0.0,0.0,8.1504,8.1504,8.1504,8.1581,8.1658,8.1697,8.1736,8.1852,8.2084,8.2057,8.2114,0.0,0.0,8.2265,8.2187,8.2187,8.2154,8.217,8.217,8.2201,8.2304,8.2304,8.2304,8.2304,8.2304,8.2304,8.2304,8.2304,8.2304,8.2304,8.2304,8.2304,8.2304,8.2304,8.25,8.2773,8.2773,8.3515,8.4687,7.4038,0.0,0.0,0.0,7.4657,0.0,0.0,0.0,7.6397,0.0,7.6436,7.6436,7.6436,7.6514,7.6514,7.6514,7.7287,0.0,7.7751,7.8564,0.0,0.0,7.9067,7.9105,7.9067,0.0,0.0,0.0,0.0,0.0,8.1504,8.1504,8.1504,8.1504,8.1504,0.0,8.1504,8.1504,8.1581,8.1736,8.2006,8.2084,8.2127,8.2254,8.2304,8.2304,8.2304,8.2304,8.2304,8.2304,8.2304,8.2304,8.2304,8.2304,8.2304,8.2304,8.2304,8.2304,8.2304,8.2304,8.2265,8.2148,0.0,0.0,0.0,0.0,8.1901,0.0,0.0,0.0,0.0,0.0,0.0,0.0,0.0,0.0,0.0,0.0,8.1504,8.1504,8.1504,8.1581,8.1697,8.1581,8.1683,8.2045,8.1964,8.2006,0.0,0.0,8.2304,8.2304,8.2304,8.2304,8.2304,8.2304,8.2304,8.2304,8.2304,8.2304,8.2304,8.2304,8.2304,8.2304,8.2304,8.2304,8.2304,8.2304,8.2304,8.2304,8.2304,8.2851,8.3672,8.3711,8.4765,8.6211,7.574,7.5933,7.6011,0.0,7.5933,7.6049,0.0,0.0,0.0,0.0,7.6939,7.7365,7.7365,7.7945,7.8332,7.8332,7.8525,0.0,0.0,0.0,0.0,7.9028,8.0188,8.0536,7.9918,8.073,0.0,8.1194,0.0,0.0,8.1504,8.1504,8.1504,8.1504,8.1504,8.1581,8.1658,8.1658,8.1774,8.2006,8.2084,8.2161,0.0,0.0,8.2304,8.2304,8.2304,8.2304,8.2304,8.2304,8.2304,8.2304,8.2304,8.2304,8.2304,8.2304,8.2304,8.2304,8.2304,8.2304,8.2304,8.2265,8.2187,8.2107,0.0,0.0,0.0,0.0,0.0,0.0,0.0,0.0,0.0,0.0,0.0,0.0,0.0,0.0,0.0,8.1504,8.1581,8.162,8.1581,8.1618,8.1716,8.1954,8.1926,8.2006,8.2304,0.0,0.0,8.2304,8.2304,8.2304,8.2304,8.2304,8.2304,8.2304,8.2304,8.2304,8.2304,8.2304,8.2304,8.2304,8.2304,8.2304,8.2304,8.2304,8.2304,8.2304,8.2304,8.3242,8.4648,8.5273,8.582,8.6289,7.69,0.0,0.0,7.7519,0.0,0.0,7.7016,0.0,0.0,7.7519,7.7945,0.0,7.8254,7.8718,7.8989,7.8989,7.9337,0.0,7.9531,0.0,0.0,8.0111,8.1001,8.1271,8.0769,8.1271,0.0,8.1504,0.0,0.0,8.1504,8.1504,8.1504,8.1504,8.1504,8.1542,8.162,8.1734,8.1854,8.2029,8.2147,8.2245,0.0,8.2289,8.2304,8.2304,8.2304,8.2304,8.2304,8.2304,8.2304,8.2304,8.2304,8.2304,8.2304,8.2304,8.2304,8.2304,8.2304,8.2304,8.2304,8.2304,8.2226,8.2187,8.2187,8.2132,8.2085,0.0,0.0,0.0,0.0,0.0,0.0,0.0,0.0,0.0,0.0,0.0,0.0,0.0,8.1581,0.0,8.1504,8.1669,8.1829,8.1915,8.191,0.0,0.0,0.0,0.0,8.2304,8.2241,8.2234,8.2304,8.2226,8.2226,8.2304,8.2304,8.2304,8.2304,8.2304,8.2304,8.2304,8.2304,8.2304,8.2304,8.2304,8.2304,8.2383,8.3125,8.4258,8.5586,8.6445,8.6758,8.6836,0.0,0.0,0.0,0.0,0.0,0.0,0.0,7.8564,0.0,7.8989,0.0,7.9144,7.9144,7.926,7.9337,7.9337,0.0,8.0382,8.0382,8.1078,8.1504,8.1504,8.1504,8.1504,8.1504,8.1504,0.0,0.0,0.0,0.0,8.1504,8.1504,8.1504,8.1504,8.1504,8.1542,8.1567,8.1809,8.1935,8.1977,8.2217,8.2304,8.2304,8.2304,8.2304,8.2304,8.2304,8.2304,8.2304,8.2304,8.2304,8.2304,8.2304,8.2304,8.2304,8.2304,8.2304,8.2304,8.2304,8.2304,8.2304,8.2304,8.2304,8.2304,8.2304,8.2304,8.2304,8.2304,8.2226,8.2175,0.0,0.0,0.0,0.0,0.0,0.0,0.0,0.0,0.0,0.0,0.0,0.0,0.0,0.0,8.1838,8.1886,0.0,0.0,0.0,0.0,0.0,8.2304,8.2207,8.2186,8.2289,0.0,8.2187,8.2304,8.2304,8.2304,8.2304,8.2304,8.2304,8.2304,8.2304,8.2304,8.2304,8.2304,8.2383,8.2656,8.4375,8.5547,8.6328,8.7187,8.75,8.75,0.0,0.0,0.0,0.0,0.0,7.9956,7.9801,7.9337,7.8989,7.8989,7.9569,7.9995,7.9995,8.0653,8.1078,8.1078,8.1194,0.0,0.0,0.0,0.0,8.1504,8.1504,8.1504,8.1504,8.1504,8.1504,0.0,0.0,0.0,8.1504,8.1504,8.1504,8.1504,8.1504,8.162,8.1852,8.1988,0.0,8.2221,8.2265,8.2304,8.2304,8.2304,8.2304,8.2304,8.2304,8.2304,8.2304,8.2304,8.2304,8.2304,8.2304,8.2304,8.2304,8.2304,8.2304,8.2304,8.2304,8.2304,8.2304,8.2304,8.2304,8.2304,8.2304,8.2304,8.2304,8.2304,8.2265,8.2265,8.2297,0.0,0.0,0.0,0.0,0.0,0.0,0.0,0.0,0.0,0.0,8.1736,0.0,0.0,0.0,0.0,0.0,0.0,0.0,0.0,0.0,0.0,8.2295,0.0,0.0,0.0,8.2265,8.2304,8.2304,8.2304,8.2304,8.2304,8.2304,8.2304,8.2304,8.2304,8.2304,8.2304,8.2734,8.3554,8.5273,8.6054,8.6328,8.7187,8.75,8.75,0.0,0.0,0.0,0.0,0.0,0.0,0.0,8.0575,0.0,8.0304,8.0653,8.0885,8.0885,8.1271,8.1504,8.1504,8.1504,8.1504,8.1504,8.1504,8.1504,8.1504,8.1504,0.0,8.1504,8.1504,8.1504,8.1504,0.0,0.0,0.0,0.0,8.1504,8.1504,8.1581,8.1697,8.1813,0.0,0.0,8.2194,8.2289,8.2304,8.2304,8.2304,8.2304,8.2304,8.2304,8.2304,8.2304,8.2304,8.2304,8.2304,8.2304,8.2304,8.2304,8.2304,8.2304,8.2304,8.2304,8.2304,8.2304,8.2304,8.2304,8.2304,8.2304,8.2304,8.2304,8.2304,8.2304,8.2265,8.2226,8.2131,0.0,0.0,0.0,0.0,0.0,0.0,0.0,0.0,0.0,0.0,0.0,0.0,0.0,0.0,0.0,0.0,0.0,0.0,0.0,0.0,0.0,0.0,0.0,0.0,0.0,8.2304,8.2304,8.2304,8.2304,8.2304,8.2304,8.2304,8.2304,8.2304,8.2344,8.2773,8.3476,8.4414,8.5703,8.6484,8.6914,8.7344,8.75,8.75,0.0,8.1078,0.0,0.0,8.1678,0.0,8.1683,8.162,8.1542,8.1504,8.1504,8.1504,8.1504,8.1504,8.1504,8.1504,8.1504,8.1504,8.1504,8.1504,8.1504,8.1504,8.1504,8.1504,8.1504,8.1504,8.1504,0.0,0.0,0.0,0.0,0.0,0.0,0.0,0.0,0.0,0.0,0.0,8.2127,8.2144,8.2266,8.2304,8.2304,8.2304,8.2304,8.2304,8.2304,8.2304,8.2304,8.2304,8.2304,8.2304,8.2304,8.2304,8.2304,8.2304,8.2304,8.2304,8.2304,8.2304,8.2304,8.2304,8.2304,8.2304,8.2304,8.2304,8.2304,8.2304,8.2304,8.2265,8.2148,8.2148,0.0,0.0,0.0,0.0,0.0,0.0,0.0,0.0,0.0,0.0,8.1763,0.0,0.0,0.0,0.0,0.0,8.2045,0.0,0.0,0.0,0.0,8.2148,8.2265,0.0,8.2208,8.2304,8.2304,8.2304,8.2304,8.2304,8.2304,8.2304,8.2304,8.2422,8.2656,8.3515,8.4375,8.5273,8.6133,8.6914,8.75,8.75,8.75,8.75,0.0,0.0,0.0,0.0,0.0,0.0,8.1732,8.1697,8.1658,8.1542,8.1504,8.1504,8.1504,8.1504,8.1504,8.1504,8.1504,8.1504,8.1504,8.1504,8.1504,8.1504,8.1504,8.1504,8.1504,8.1504,8.1504,0.0,0.0,0.0,0.0,0.0,0.0,0.0,0.0,0.0,0.0,8.2084,8.2154,8.2297,8.2304,8.2304,8.2304,8.2304,8.2304,8.2304,8.2304,8.2304,8.2304,8.2304,8.2304,8.2304,8.2304,8.2304,8.2304,8.2304,8.2304,8.2304,8.2304,8.2304,8.2304,8.2304,8.2304,8.2304,8.2304,8.2304,8.2304,8.2304,8.2304,8.2304,8.2265,8.2265,8.2265,0.0,0.0,0.0,0.0,0.0,0.0,8.2097,0.0,0.0,0.0,8.1755,0.0,0.0,8.1774,0.0,0.0,0.0,0.0,8.2111,0.0,8.2109,8.2109,8.2223,8.2301,8.2304,8.2304,8.2304,8.2304,8.2304,8.2304,8.2304,8.2304,8.2734,8.3554,8.4414,8.5273,8.6172,8.7031,8.7422,8.75,8.75,8.75,8.75,0.0,0.0,0.0,0.0,0.0,0.0,0.0,8.1852,8.1813,8.1736,8.162,8.1504,8.1504,8.1504,8.1504,8.1504,8.1504,8.1504,8.1504,8.1504,8.1504,8.1504,8.1504,8.1504,8.1504,8.1504,8.1542,0.0,0.0,0.0,0.0,0.0,0.0,0.0,0.0,8.2045,8.2095,8.2192,8.2254,8.2304,8.2304,8.2304,8.2304,8.2304,8.2304,8.2304,8.2304,8.2304,8.2304,8.2304,8.2304,8.2304,8.2304,8.2304,8.2304,8.2304,8.2304,8.2304,8.2304,8.2304,8.2304,8.2304,8.2304,8.2304,8.2304,8.2304,8.2304,8.2304,8.2304,8.2304,8.2304,8.2304,8.2304,0.0,0.0,0.0,0.0,0.0,0.0,0.0,0.0,8.2162,0.0,0.0,0.0,0.0,0.0,0.0,0.0,0.0,0.0,8.1993,0.0,8.2172,8.2109,8.2226,8.2304,8.2304,8.2304,8.2304,8.2304,8.2304,8.2304,8.2304,8.2304,8.2773,8.3672,8.4531,8.539,8.6289,8.7148,8.75,8.75,8.75,8.75,8.75,8.1954,0.0,8.1998,0.0,8.2091,8.2034,8.2098,8.2001,8.194,8.1907,8.1751,8.1591,8.1542,8.1581,8.1542,8.1504,8.1542,8.1542,8.1504,8.1542,8.1581,8.1581,8.162,0.0,8.162,8.162,8.1658,8.1774,8.1646,0.0,0.0,0.0,0.0,0.0,8.2081,8.218,8.2176,8.2271,8.2304,8.2304,8.2304,8.2304,8.2304,8.2304,8.2304,8.2304,8.2304,8.2304,8.2304,8.2304,8.2304,8.2304,8.2304,8.2304,8.2304,8.2304,8.2304,8.2304,8.2304,8.2304,8.2304,8.2304,8.2304,8.2304,8.2304,8.2304,8.2304,8.2304,8.2304,8.2304,8.2304,8.2304,8.2304,8.2304,0.0,0.0,0.0,0.0,0.0,0.0,8.2281,8.2226,8.2171,8.2,0.0,0.0,0.0,0.0,0.0,0.0,0.0,0.0,0.0,0.0,0.0,8.2219,8.2304,8.2304,8.2304,8.2304,8.2304,8.2304,8.2304,8.2304,8.2578,8.3164,8.4062,8.4922,8.5781,8.664,8.7265,8.75,8.75,8.75,8.75,8.75,8.2065,8.2084,8.2126,8.2253,8.2304,8.2265,8.2109,8.2114,8.204,8.1909,8.1909,8.1836,8.1708,8.1697,8.1658,8.1504,8.162,8.1658,8.1504,8.162,8.1697,0.0,0.0,8.189,8.189,8.189,8.189,8.189,0.0,0.0,8.189,0.0,8.2084,8.2095,8.2226,8.2304,8.2304,8.2304,8.2304,8.2304,8.2304,8.2304,8.2304,8.2304,8.2304,8.2304,8.2304,8.2304,8.2304,8.2304,8.2304,8.2304,8.2304,8.2304,8.2304,8.2304,8.2304,8.2304,8.2304,8.2304,8.2304,8.2304,8.2304,8.2304,8.2304,8.2304,8.2304,8.2304,8.2304,8.2304,8.2304,8.2304,8.2304,8.2304,0.0,0.0,0.0,0.0,0.0,0.0,8.2192,8.2144,8.2262,8.2046,0.0,0.0,0.0,0.0,0.0,0.0,0.0,8.2108,8.2115,0.0,8.2109,8.2218,8.2304,8.2304,8.2304,8.2304,8.2304,8.2304,8.2304,8.2344,8.3203,8.4062,8.4961,8.582,8.6719,8.75,8.75,8.75,8.75,8.75,8.75,8.75,8.2234,8.2226,8.2254,8.2304,8.2304,8.2304,8.2226,8.2237,8.224,8.2194,8.2104,8.203,8.1978,8.189,8.184,0.0,8.1807,8.1813,0.0,8.1813,8.1863,8.1826,8.1881,8.192,8.192,8.192,8.1951,8.2045,0.0,0.0,0.0,8.2156,8.2226,8.2226,8.2297,8.2304,8.2304,8.2304,8.2304,8.2304,8.2304,8.2304,8.2304,8.2304,8.2304,8.2383,8.2969,8.3203,8.3281,8.3867,8.4062,8.4062,8.4062,8.3242,8.2304,8.2304,8.2304,8.2304,8.2304,8.2304,8.2304,8.2304,8.2304,8.2304,8.2304,8.2304,8.2304,8.2304,8.2304,8.2304,8.2304,8.2304,8.2304,8.2304,8.2304,0.0,0.0,0.0,0.0,0.0,8.2276,8.224,0.0,8.2117,0.0,0.0,0.0,0.0,0.0,0.0,0.0,0.0,8.214,0.0,8.2084,8.2218,8.2304,8.2304,8.2304,8.2304,8.2304,8.2304,8.2617,8.3203,8.3476,8.4414,8.582,8.6094,8.6719,8.75,8.75,8.75,8.75,8.75,8.75,8.75,8.2304,8.2304,8.2304,8.2304,8.2304,8.2304,8.2304,8.2304,8.23,8.2319,8.2226,8.2299,8.2645,8.2587,0.0,8.1922,8.1959,8.1943,8.1912,8.1972,8.1995,8.2003,8.2034,8.2031,8.2031,0.0,0.0,8.2186,8.2094,8.2084,8.2201,8.2271,8.2304,8.2304,8.2304,8.2304,8.2304,8.2304,8.2304,8.2304,8.2304,8.2304,8.2344,8.2656,8.2773,8.289,8.3789,8.4101,8.4179,8.4726,8.4883,8.4883,8.4883,8.414,8.3281,8.3281,8.3281,8.3281,8.3281,8.3281,8.3203,8.2851,8.2773,8.2695,8.2383,8.2304,8.2304,8.2304,8.2304,8.2304,8.2304,8.2304,8.2304,8.2304,8.2304,8.2304,8.2304,0.0,0.0,0.0,0.0,0.0,0.0,8.22,8.2134,0.0,0.0,0.0,0.0,0.0,0.0,8.2062,8.2217,0.0,8.2186,8.2271,8.2304,8.2304,8.2304,8.2304,8.2304,8.2656,8.3086,8.3633,8.4297,8.5195,8.6211,8.6562,8.6992,8.75,8.75,8.75,8.75,8.75,8.75,8.75,8.2304,8.2304,8.2304,0.0,8.2304,0.0,8.2383,8.2383,8.2422,8.2461,8.2461,8.2773,8.3594,8.3701,8.3271,8.2194,0.0,0.0,0.0,8.2242,8.2282,8.2205,8.2335,8.2344,8.2304,8.2304,8.2304,8.2304,8.2304,8.2304,8.2304,8.2304,8.2304,8.2304,8.2304,8.2304,8.2304,8.2304,8.2344,8.2383,8.2383,8.2422,8.2578,8.3398,8.3672,8.3789,8.4687,8.5,8.5,8.5078,8.5078,8.5078,8.5078,8.5078,8.5078,8.4922,8.4883,8.4883,8.4883,8.4883,8.4726,8.3906,8.3633,8.3398,8.2578,8.2344,8.2304,8.2304,8.2304,8.2304,8.2304,8.2304,8.2304,8.2304,8.2304,8.2304,8.2304,0.0,0.0,0.0,0.0,0.0,0.0,8.2207,8.2176,0.0,0.0,0.0,0.0,0.0,8.217,8.2304,8.2304,8.2304,8.2304,8.2304,8.2304,8.2304,8.2304,8.2344,8.2422,8.3242,8.3672,8.3867,8.5508,8.6211,8.6367,8.7187,8.75,8.75,8.75,8.75,8.75,8.75,8.75,8.75,0.0,0.0,8.2304,8.2304,8.2304,8.2539,8.3203,8.3281,8.3515,8.4219,8.4297,8.4375,8.457,8.4593,8.4497,8.4206,8.4217,8.4218,8.4209,8.4229,8.3939,8.3276,8.3276,8.2969,8.2304,8.2304,8.2304,8.2304,8.2304,8.2304,8.2304,8.2304,8.2304,8.2304,8.2304,8.2304,8.2304,8.2304,8.2695,8.3281,8.3281,8.3672,8.4297,8.4492,8.4609,8.4726,8.5586,8.5898,8.5976,8.664,8.6875,8.6875,8.6875,8.6875,8.6601,8.5273,8.4883,8.4883,8.4883,8.4883,8.4844,8.4648,8.4101,8.3554,8.3359,8.2773,8.2304,8.2304,8.2304,8.2304,8.2304,8.2304,8.2304,8.2304,8.2304,8.2304,8.2304,8.2304,0.0,0.0,8.2265,8.2265,8.2304,8.2289,8.2281,0.0,0.0,0.0,0.0,8.226,8.2281,8.2304,8.2304,8.2304,8.2304,8.2304,8.2304,8.2304,8.2304,8.2656,8.3281,8.3515,8.4336,8.5625,8.6015,8.6562,8.7226,8.7422,8.75,8.75,8.75,8.75,8.75,8.75,8.75,8.75,8.2304,8.2617,8.289,8.289,8.3203,8.3633,8.4101,8.4179,8.4375,8.4844,8.4883,8.5039,8.5469,8.5508,8.5664,8.6054,8.5351,8.4883,8.4883,8.4883,8.4687,8.4219,8.4179,8.3984,8.3515,8.3476,8.3476,8.3476,8.3086,8.289,8.289,8.289,8.289,8.289,8.332,8.3476,8.3476,8.3476,8.375,8.4179,8.4179,8.4492,8.4922,8.5351,8.5508,8.5625,8.6484,8.6797,8.6875,8.7344,8.75,8.75,8.75,8.75,8.7304,8.6367,8.6094,8.6094,8.6094,8.6094,8.5976,8.5586,8.4844,8.4179,8.4179,8.3515,8.289,8.289,8.2578,8.2304,8.2304,8.2304,8.2304,8.2304,8.2304,8.2304,8.2304,8.2304,0.0,8.2304,8.2304,8.2304,8.2304,8.2304,8.2304,8.2304,0.0,0.0,8.2304,8.2304,8.2304,8.2304,8.2304,8.2304,8.2304,8.2304,8.2304,8.2304,8.2695,8.3125,8.3633,8.4414,8.5312,8.6211,8.6601,8.707,8.75,8.75,8.75,8.75,8.75,8.75,8.75,8.75,8.75,8.75,8.2695,8.3281,8.3789,8.3789,8.4414,8.4922,8.5078,8.5117,8.5156,8.5273,8.5273,8.5586,8.6328,8.6406,8.6679,8.7422,8.6133,8.5273,8.5273,8.5273,8.5234,8.5117,8.5117,8.5039,8.4883,8.4883,8.4883,8.4883,8.414,8.3789,8.3789,8.3789,8.3789,8.3828,8.457,8.4883,8.4883,8.4883,8.4961,8.5117,8.5117,8.5195,8.5351,8.6094,8.6406,8.6484,8.7226,8.75,8.75,8.75,8.75,8.75,8.75,8.75,8.75,8.75,8.75,8.75,8.75,8.75,8.7304,8.6562,8.5742,8.5117,8.5117,8.4414,8.3789,8.3789,8.3086,8.25,8.25,8.2383,8.2304,8.2304,8.2304,8.2304,8.2304,0.0,8.2304,8.2304,8.2304,8.2304,8.2304,8.2304,8.2304,8.2304,8.2304,8.2304,8.2304,8.2304,8.2304,8.2304,8.2304,8.2304,8.2304,8.2304,8.2383,8.25,8.3242,8.375,8.4023,8.5547,8.6289,8.6445,8.7187,8.75,8.75,8.75,8.75,8.75,8.75,8.75,8.75,8.75,8.75,8.75,8.4492,8.4609,8.4687,8.4687,8.4804,8.5156,8.5898,8.6015,8.625,8.6992,8.7109,8.7148,8.7265,8.7304,8.7344,8.75,8.7265,8.7109,8.7109,8.7109,8.6758,8.6015,8.6015,8.5664,8.4922,8.4883,8.4883,8.4883,8.4765,8.4687,8.4687,8.4687,8.4687,8.4687,8.4844,8.4883,8.4883,8.4883,8.5312,8.6015,8.6015,8.6445,8.7109,8.7265,8.7304,8.7304,8.7461,8.75,8.75,8.75,8.75,8.75,8.75,8.75,8.75,8.75,8.75,8.75,8.75,8.75,8.7461,8.7344,8.664,8.6015,8.6015,8.5312,8.4687,8.4687,8.3984,8.3398,8.3398,8.2812,8.2304,8.2304,8.2304,8.2304,8.2304,0.0,8.2304,8.2304,8.2304,8.2304,8.2304,8.2304,8.2304,8.2304,8.2304,8.2304,8.2304,8.2304,8.2304,8.2304,8.2304,8.2304,8.2304,8.2304,8.2656,8.3398,8.3554,8.4375,8.582,8.6094,8.6601,8.7304,8.7422,8.75,8.75,8.75,8.75,8.75,8.75,8.75,8.75,8.75,8.75,8.75,8.4883,8.5273,8.5586,8.5586,8.5976,8.6445,8.6836,8.6914,8.7031,8.7461,8.75,8.75,8.75,8.75,8.75,8.75,8.75,8.75,8.75,8.75,8.7304,8.6914,8.6914,8.6719,8.6328,8.6289,8.6289,8.6289,8.582,8.5586,8.5586,8.5586,8.5586,8.5625,8.6094,8.6289,8.6289,8.6289,8.6523,8.6914,8.6914,8.7148,8.75,8.75,8.75,8.75,8.75,8.75,8.75,8.75,8.75,8.75,8.75,8.75,8.75,8.75,8.75,8.75,8.75,8.75,8.75,8.75,8.7187,8.6914,8.6914,8.6211,8.5586,8.5586,8.4922,8.4297,8.4297,8.3594,8.3008,8.3008,8.2617,0.0,0.0,8.2304,8.2304,8.2304,8.2304,8.2304,8.2304,8.2304,8.2304,8.2304,8.2304,8.2304,8.2304,8.2304,8.2304,8.2304,8.2304,8.2539,8.3008,8.3008,8.3437,8.4297,8.4765,8.5429,8.6211,8.6679,8.7109,8.75,8.75,8.75,8.75,8.75,8.75,8.75,8.75,8.75,8.75,8.75,8.75,8.75,8.5508,8.6054,8.6484,8.6484,8.707,8.75,8.75,8.75,8.75,8.75,8.75,8.75,8.75,8.75,8.75,8.75,8.75,8.75,8.75,8.75,8.75,8.75,8.75,8.75,8.75,8.75,8.75,8.75,8.6836,8.6484,8.6484,8.6484,8.6484,8.6523,8.7187,8.75,8.75,8.75,8.75,8.75,8.75,8.75,8.75,8.75,8.75,8.75,8.75,8.75,8.75,8.75,8.75,8.75,8.75,8.75,8.75,8.75,8.75,8.75,8.75,8.75,8.75,8.75,8.75,8.75,8.75,8.6992,8.6484,8.6484,8.582,8.5195,8.5195,8.4492,8.3906,8.3906,0.0,0.0,0.0,8.2422,8.2304,8.2304,8.2304,8.2304,8.2304,8.2304,8.2304,8.2304,8.2304,8.2304,8.2304,8.2304,8.2383,8.2617,8.2617,8.2929,8.3594,8.3789,8.4336,8.5195,8.5898,8.6328,8.6523,8.7187,8.75,8.75,8.75,8.75,8.75,8.75,8.75,8.75,8.75,8.75,8.75,8.75,8.75,8.75,8.7304,8.7344,8.7383,8.7383,8.7461,8.75,8.75,8.75,8.75,8.75,8.75,8.75,8.75,8.75,8.75,8.75,8.75,8.75,8.75,8.75,8.75,8.75,8.75,8.75,8.75,8.75,8.75,8.75,8.7422,8.7383,8.7383,8.7383,8.7383,8.7422,8.7461,8.75,8.75,8.75,8.75,8.75,8.75,8.75,8.75,8.75,8.75,8.75,8.75,8.75,8.75,8.75,8.75,8.75,8.75,8.75,8.75,8.75,8.75,8.75,8.75,8.75,8.75,8.75,8.75,8.75,8.75,8.7461,8.7383,8.7383,8.6719,8.6094,8.6094,8.539,8.4804,8.4804,0.0,0.0,8.3515,8.2812,8.2304,8.2304,8.2304,8.2304,8.2304,8.2304,8.2304,8.2304,8.2304,8.2304,8.2304,8.2304,8.2656,8.3476,8.3515,8.3554,8.3594,8.4414,8.5234,8.6094,8.6172,8.6601,8.7422,8.7461,8.75,8.75,8.75,8.75,8.75,8.75,8.75,8.75,8.75,8.75,8.75,8.75,8.75,8.75,8.75,8.75,8.75,8.75,8.789,8.8242,8.8242,8.8711,8.9062,8.9062,8.9062,8.9062,8.9062,8.9062,8.9062,8.9062,8.9062,8.9062,8.9062,8.9062,8.8594,8.7539,8.75,8.75,8.75,8.75,8.75,8.75,8.75,8.75,8.75,8.75,8.75,8.75,8.75,8.75,8.75,8.75,8.75,8.75,8.75,8.75,8.75,8.75,8.75,8.75,8.75,8.75,8.75,8.75,8.75,8.75,8.75,8.75,8.75,8.75,8.75,8.75,8.75,8.75,8.75,8.75,8.75,8.75,8.75,8.75,8.75,8.75,8.7226,8.6992,8.6992,8.6289,8.5703,8.5703,0.0,8.4414,8.4414,8.4101,8.3906,8.3906,8.3437,8.3125,8.3125,8.2617,8.2539,8.3086,8.3125,8.3359,8.3867,8.3906,8.4062,8.4414,8.4922,8.5195,8.5195,8.5547,8.6133,8.6992,8.6992,8.7187,8.75,8.75,8.75,8.75,8.75,8.75,8.75,8.75,8.75,8.75,8.75,8.75,8.75,8.75,8.75,8.75,8.789,8.8086,8.8281,8.8281,8.875,8.9101,8.9101,8.9609,9.0,9.0,9.0,9.0,9.0,9.0,9.0,9.0,9.0,9.0,9.0,9.0,8.9375,8.7929,8.789,8.7773,8.75,8.75,8.75,8.75,8.75,8.75,8.75,8.75,8.75,8.75,8.75,8.75,8.75,8.75,8.75,8.75,8.75,8.75,8.75,8.75,8.75,8.75,8.75,8.75,8.75,8.75,8.75,8.75,8.75,8.75,8.75,8.75,8.75,8.75,8.75,8.75,8.75,8.75,8.75,8.75,8.75,8.75,8.75,8.75,8.75,8.75,8.75,8.6992,8.6601,8.6601,8.5898,8.5312,8.5312,8.5078,8.4883,8.4883,8.4375,8.4023,8.4023,8.3476,8.3359,8.3945,8.4023,8.4258,8.4883,8.5156,8.5312,8.5312,8.6133,8.6601,8.6601,8.6601,8.6914,8.75,8.75,8.75,8.75,8.75,8.75,8.75,8.75,8.75,8.75,8.75,8.75,8.75,8.75,8.75,8.75,8.75,8.75,8.75,8.8711,8.9414,9.0,9.0,9.0,9.0,9.0,9.0039,9.0039,9.0039,9.0039,9.0039,9.0039,9.0039,9.0039,9.0039,9.0039,9.0039,9.0039,9.0039,8.9648,8.875,8.8711,8.8359,8.7539,8.75,8.75,8.75,8.75,8.75,8.75,8.75,8.75,8.75,8.75,8.75,8.75,8.75,8.75,8.75,8.75,8.75,8.75,8.75,8.75,8.75,8.75,8.75,8.75,8.75,8.75,8.75,8.75,8.75,8.75,8.75,8.75,8.75,8.75,8.75,8.75,8.75,8.75,8.75,8.75,8.75,8.75,8.75,8.75,8.75,8.75,8.75,8.75,8.75,8.6758,8.6211,8.6211,8.5469,8.4922,8.4922,8.4922,8.4922,8.4922,8.4883,8.4883,8.4922,8.4922,8.4922,8.4922,8.5742,8.6211,8.6211,8.7031,8.75,8.75,8.75,8.75,8.75,8.75,8.75,8.75,8.75,8.75,8.75,8.75,8.75,8.75,8.75,8.75,8.75,8.75,8.75,8.75,8.75,8.75,8.75,8.9609,8.9804,9.0,9.0,9.0508,9.0898,9.0898,9.1445,9.1836,9.1836,9.1836,9.1836,9.1836,9.1836,9.1836,9.1836,9.1836,9.1836,9.1836,9.1836,9.1445,9.0547,8.9922,8.9492,8.9258,8.8633,8.8359,8.8359,8.7773,8.75,8.75,8.75,8.75,8.75,8.75,8.75,8.75,8.75,8.75,8.75,8.75,8.75,8.75,8.75,8.75,8.75,8.75,8.75,8.75,8.75,8.75,8.75,8.75,8.75,8.75,8.75,8.75,8.75,8.75,8.75,8.75,8.75,8.75,8.75,8.75,8.75,8.75,8.75,8.75,8.75,8.75,8.75,8.75,8.75,8.7265,8.7109,8.7109,8.6875,8.6719,8.6719,8.6172,8.582,8.582,8.5273,8.5156,8.5781,8.6367,8.6719,8.6719,8.6953,8.7109,8.7109,8.7344,8.75,8.75,8.75,8.75,8.75,8.75,8.75,8.75,8.75,8.75,8.75,8.75,8.75,8.75,8.75,8.75,8.75,8.75,8.75,8.75,8.75,8.75,8.75,9.0508,9.0781,9.1015,9.1015,9.1445,9.1797,9.1797,9.2265,9.2617,9.2617,9.2617,9.2617,9.2617,9.2617,9.2617,9.2617,9.2617,9.2617,9.2617,9.2617,9.2344,9.1836,9.1328,9.0703,9.0039,8.9492,8.9219,8.9219,8.8711,8.8476,8.8476,8.8125,8.7969,8.7969,8.7656,8.75,8.75,8.75,8.75,8.75,8.75,8.75,8.75,8.75,8.75,8.75,8.75,8.75,8.75,8.75,8.75,8.75,8.75,8.75,8.75,8.75,8.75,8.75,8.75,8.75,8.75,8.75,8.75,8.75,8.75,8.75,8.75,8.75,8.75,8.75,8.75,8.75,8.75,8.75,8.75,8.75,8.75,8.75,8.75,8.75,8.7031,8.6719,8.6719,8.625,8.6133,8.6679,8.7187,8.75,8.75,8.75,8.75,8.75,8.75,8.75,8.75,8.75,8.75,8.75,8.75,8.75,8.75,8.75,8.75,8.75,8.75,8.75,8.75,8.75,8.75,8.75,8.75,8.75,8.75,8.75,8.75,8.75,9.1406,9.207,9.2617,9.2617,9.2617,9.2617,9.2617,9.2617,9.2617,9.2617,9.2617,9.2617,9.2617,9.2617,9.2617,9.2617,9.2617,9.2617,9.2617,9.2617,9.2617,9.2617,9.2617,9.1875,9.0273,9.0156,9.0117,9.0117,9.0039,9.0,8.9961,8.9179,8.8828,8.8789,8.8047,8.7734,8.7734,8.7734,8.7734,8.7734,8.7734,8.7734,8.7734,8.7734,8.7734,8.7734,8.7734,8.7734,8.7695,8.7617,8.7617,8.7578,8.7539,8.75,8.75,8.75,8.75,8.75,8.75,8.75,8.75,8.75,8.75,8.75,8.75,8.75,8.75,8.75,8.75,8.75,8.75,8.75,8.75,8.75,8.75,8.75,8.75,8.75,8.75,8.75,8.75,8.75,8.75,8.75,8.75,8.75,8.75,8.75,8.75,8.75,8.75,8.75,8.75,8.75,8.75,8.75,8.75,8.75,8.75,8.75,8.75,8.75,8.75,8.75,8.75,8.75,8.75,8.75,8.75,8.75,8.75,8.75,8.75,8.75,8.75,8.75,9.2304,9.2461,9.2617,9.2617,9.2617,9.2617,9.2617,9.2617,9.2617,9.2617,9.2617,9.2617,9.2617,9.2617,9.2617,9.2617,9.2617,9.2617,9.2617,9.2617,9.2617,9.2617,9.2617,9.2422,9.2031,9.1367,9.1015,9.1015,9.0312,9.0,9.0,8.9804,8.9726,8.9726,8.9531,8.9453,8.9453,8.9453,8.9453,8.9453,8.9453,8.9453,8.9453,8.9453,8.9453,8.9453,8.9453,8.9453,8.9336,8.8672,8.8437,8.832,8.7695,8.75,8.75,8.75,8.75,8.75,8.75,8.75,8.75,8.75,8.75,8.75,8.75,8.75,8.75,8.75,8.75,8.75,8.75,8.75,8.75,8.75,8.75,8.75,8.75,8.75,8.75,8.75,8.75,8.75,8.75,8.75,8.75,8.75,8.75,8.75,8.75,8.75,8.75,8.75,8.75,8.75,8.75,8.75,8.75,8.75,8.75,8.75,8.75,8.75,8.75,8.75,8.75,8.75,8.75,8.75,8.75,8.75,8.75,8.75,8.75,8.75,8.75,8.75,9.2617,9.2617,9.2617,9.2617,9.2617,9.2617,9.2617,9.2617,9.2617,9.2617,9.2617,9.2617,9.2617,9.2617,9.2617,9.2617,9.2617,9.2617,9.2617,9.2617,9.2617,9.2617,9.2617,9.2617,9.2617,9.2148,9.1914,9.1914,9.1445,9.125,9.1211,9.082,9.0625,9.0586,9.0195,9.0,9.0,9.0,9.0,9.0,9.0,9.0,9.0,9.0,9.0,9.0,9.0,9.0,8.9922,8.9453,8.9336,8.9179,8.8359,8.8086,8.8008,8.7617,8.75,8.75,8.75,8.75,8.75,8.75,8.75,8.75,8.75,8.75,8.75,8.75,8.75,8.75,8.75,8.75,8.75,8.75,8.75,8.75,8.75,8.75,8.75,8.75,8.75,8.75,8.75,8.75,8.75,8.75,8.75,8.75,8.75,8.75,8.75,8.75,8.75,8.75,8.75,8.75,8.75,8.75,8.75,8.75,8.75,8.75,8.75,8.75,8.75,8.75,8.75,8.75,8.75,8.75,8.75,8.75,8.75,8.75,8.75,8.75,9.2617,9.2617,9.2617,9.2617,9.2617,9.2617,9.2617,9.2617,9.2617,9.2617,9.2617,9.2617,9.2617,9.2617,9.2617,9.2617,9.2617,9.2617,9.2617,9.2617,9.2617,9.2617,9.2617,9.2617,9.2617,9.2617,9.2617,9.2617,9.2617,9.2617,9.2578,9.1875,9.1523,9.1484,9.0781,9.0429,9.0429,9.0429,9.0429,9.0429,9.0429,9.0429,9.0429,9.0429,9.0429,9.0429,9.0429,9.0429,9.0429,9.0273,9.0234,9.0078,8.9219,8.8906,8.875,8.7929,8.7695,8.7695,8.7539,8.75,8.75,8.75,8.75,8.75,8.75,8.75,8.75,8.75,8.75,8.75,8.75,8.75,8.75,8.75,8.75,8.75,8.75,8.75,8.75,8.75,8.75,8.75,8.75,8.75,8.75,8.75,8.75,8.75,8.75,8.75,8.75,8.75,8.75,8.75,8.75,8.75,8.75,8.75,8.75,8.75,8.75,8.75,8.75,8.75,8.75,8.75,8.75,8.75,8.75,8.75,8.75,8.75,8.75,8.75,8.75,8.75,9.2617,9.2617,9.2617,9.2617,9.2617,9.2617,9.2617,9.2617,9.2617,9.2617,9.2617,9.2617,9.2617,9.2617,9.2617,9.2617,9.2617,9.2617,9.2617,9.2617,9.2617,9.2617,9.2617,9.2617,9.2617,9.2617,9.2617,9.2617,9.2617,9.2617,9.2617,9.2461,9.2422,9.2422,9.2304,9.2265,9.2265,9.2265,9.2265,9.2265,9.2265,9.2265,9.2265,9.2265,9.2265,9.2265,9.2265,9.2265,9.2148,9.1367,9.1133,9.0976,9.0117,8.9804,8.9648,8.8789,8.8554,8.8398,8.7695,8.75,8.75,8.75,8.75,8.75,8.75,8.75,8.75,8.75,8.75,8.75,8.75,8.75,8.75,8.75,8.75,8.75,8.75,8.75,8.75,8.75,8.75,8.75,8.75,8.75,8.75,8.75,8.75,8.75,8.75,8.75,8.75,8.75,8.75,8.75,8.75,8.75,8.75,8.75,8.75,8.75,8.75,8.75,8.75,8.75,8.75,8.75,8.75,8.75,8.75,8.75,8.75,8.75,8.75,8.75,8.75,8.75,9.2617,9.2617,9.2617,9.2617,9.2617,9.2617,9.2617,9.2617,9.2617,9.2617,9.2617,9.2617,9.2617,9.2617,9.2617,9.2617,9.2617,9.2617,9.2617,9.2617,9.2617,9.2617,9.2617,9.2617,9.2617,9.2617,9.2617,9.2617,9.2617,9.2617,9.2617,9.2617,9.2617,9.2617,9.2617,9.2617,9.2617,9.2617,9.2617,9.2617,9.2617,9.2617,9.2617,9.2617,9.2617,9.2617,9.2617,9.2617,9.2539,9.2148,9.2031,9.1875,9.1015,9.0742,9.0547,8.9687,8.9062,8.8633,8.8281,8.7851,8.75,8.75,8.75,8.75,8.75,8.75,8.75,8.75,8.75,8.75,8.75,8.75,8.75,8.75,8.75,8.75,8.75,8.75,8.75,8.75,8.75,8.75,8.75,8.75,8.75,8.75,8.75,8.75,8.75,8.75,8.75,8.75,8.75,8.75,8.75,8.75,8.75,8.75,8.75,8.75,8.75,8.75,8.75,8.75,8.75,8.75,8.75,8.75,8.75,8.75,8.75,8.75,8.75,8.75,8.75,8.75]},{"header":{"parameterUnit":"m.s-1","parameterCategory":1,"la1":30.6,"la2":28.766,"lo1":-90.7593,"lo2":-88.6598,"dy":0.0162,"dx":0.0183,"nx":116,"ny":114,"refTime":"2024-03-04T18:00:00:Z","depth":0,"parameterNumber":3,"parameterNumberName":"V-component_of_WINDS"},"data":[0.0,0.0,0.0,0.0,0.0,0.0,0.0,0.0,0.0,0.0,0.0,0.0,0.0,0.0,0.0,0.0,0.0,0.0,0.0,0.0,0.0,0.0,0.0,0.0,0.0,0.0,0.0,0.0,0.0,0.0,0.0,0.0,0.0,0.0,0.0,0.0,0.0,0.0,0.0,0.0,0.0,0.0,0.0,0.0,0.0,0.0,0.0,0.0,0.0,0.0,0.0,0.0,0.0,0.0,0.0,0.0,0.0,0.0,0.0,0.0,0.0,0.0,0.0,0.0,0.0,0.0,0.0,0.0,0.0,0.0,0.0,0.0,0.0,0.0,0.0,0.0,0.0,0.0,0.0,0.0,0.0,0.0,0.0,0.0,0.0,0.0,0.0,0.0,0.0,0.0,0.0,0.0,0.0,0.0,0.0,0.0,0.0,0.0,0.0,0.0,0.0,0.0,0.0,0.0,0.0,0.0,0.0,0.0,0.0,0.0,0.0,0.0,0.0,0.0,0.0,0.0,0.0,0.0,0.0,0.0,0.0,0.0,0.0,0.0,0.0,0.0,0.0,0.0,0.0,0.0,0.0,0.0,0.0,0.0,0.0,0.0,0.0,0.0,0.0,0.0,0.0,0.0,0.0,0.0,0.0,0.0,0.0,0.0,0.0,0.0,0.0,0.0,0.0,0.0,0.0,0.0,0.0,0.0,0.0,0.0,0.0,0.0,0.0,0.0,0.0,0.0,0.0,0.0,0.0,0.0,0.0,0.0,0.0,0.0,0.0,0.0,0.0,0.0,0.0,0.0,0.0,0.0,0.0,0.0,0.0,0.0,0.0,0.0,0.0,0.0,0.0,0.0,0.0,0.0,0.0,0.0,0.0,0.0,0.0,0.0,0.0,0.0,0.0,0.0,0.0,0.0,0.0,0.0,0.0,0.0,0.0,0.0,0.0,0.0,0.0,0.0,0.0,0.0,0.0,0.0,0.0,0.0,0.0,0.0,0.0,0.0,0.0,0.0,0.0,0.0,0.0,0.0,0.0,0.0,0.0,0.0,0.0,0.0,0.0,0.0,0.0,0.0,0.0,0.0,0.0,0.0,0.0,0.0,0.0,0.0,0.0,0.0,0.0,0.0,0.0,0.0,0.0,0.0,0.0,0.0,0.0,0.0,0.0,0.0,0.0,0.0,0.0,0.0,0.0,0.0,0.0,0.0,0.0,0.0,0.0,0.0,0.0,0.0,0.0,0.0,0.0,0.0,0.0,0.0,0.0,0.0,0.0,0.0,0.0,0.0,0.0,0.0,0.0,0.0,0.0,0.0,0.0,0.0,0.0,0.0,0.0,0.0,0.0,0.0,0.0,0.0,0.0,0.0,0.0,0.0,0.0,0.0,0.0,0.0,0.0,0.0,0.0,0.0,0.0,0.0,0.0,0.0,0.0,0.0,0.0,0.0,0.0,0.0,0.0,0.0,0.0,0.0,0.0,0.0,0.0,0.0,0.0,0.0,0.0,0.0,0.0,0.0,0.0,0.0,0.0,0.0,0.0,0.0,0.0,0.0,0.0,0.0,0.0,0.0,0.0,0.0,0.0,0.0,0.0,0.0,0.0,0.0,0.0,0.0,0.0,0.0,0.0,0.0,0.0,0.0,0.0,0.0,0.0,0.0,0.0,0.0,0.0,0.0,0.0,0.0,0.0,0.0,0.0,0.0,0.0,0.0,0.0,0.0,0.0,0.0,0.0,0.0,0.0,0.0,0.0,0.0,0.0,0.0,0.0,0.0,0.0,0.0,0.0,0.0,0.0,0.0,0.0,0.0,0.0,0.0,0.0,0.0,0.0,0.0,0.0,0.0,0.0,0.0,0.0,0.0,0.0,0.0,0.0,0.0,0.0,0.0,0.0,0.0,0.0,0.0,0.0,0.0,0.0,0.0,0.0,0.0,0.0,0.0,0.0,0.0,0.0,0.0,0.0,0.0,0.0,0.0,0.0,0.0,0.0,0.0,0.0,0.0,0.0,0.0,0.0,0.0,0.0,0.0,0.0,0.0,0.0,0.0,0.0,0.0,0.0,0.0,0.0,0.0,0.0,0.0,0.0,0.0,0.0,0.0,0.0,0.0,0.0,0.0,0.0,0.0,0.0,0.0,0.0,0.0,0.0,0.0,0.0,0.0,0.0,0.0,0.0,0.0,0.0,0.0,0.0,0.0,0.0,0.0,0.0,0.0,0.0,0.0,0.0,0.0,0.0,0.0,0.0,0.0,0.0,0.0,0.0,0.0,0.0,0.0,0.0,0.0,0.0,0.0,0.0,0.0,0.0,0.0,0.0,0.0,0.0,0.0,0.0,0.0,0.0,0.0,0.0,0.0,0.0,0.0,0.0,0.0,0.0,0.0,0.0,0.0,0.0,0.0,0.0,0.0,0.0,0.0,0.0,0.0,0.0,0.0,0.0,0.0,0.0,0.0,0.0,0.0,0.0,0.0,0.0,0.0,0.0,0.0,0.0,0.0,0.0,0.0,0.0,0.0,0.0,0.0,0.0,0.0,0.0,0.0,0.0,0.0,0.0,0.0,0.0,0.0,0.0,0.0,0.0,0.0,0.0,0.0,0.0,0.0,0.0,0.0,0.0,0.0,0.0,0.0,0.0,0.0,0.0,0.0,0.0,0.0,0.0,0.0,0.0,0.0,0.0,0.0,0.0,0.0,0.0,0.0,0.0,0.0,0.0,0.0,0.0,0.0,0.0,0.0,0.0,0.0,0.0,0.0,0.0,0.0,0.0,0.0,0.0,0.0,0.0,0.0,0.0,0.0,0.0,0.0,0.0,0.0,0.0,0.0,0.0,0.0,0.0,0.0,0.0,0.0,0.0,0.0,0.0,0.0,0.0,0.0,0.0,0.0,0.0,0.0,0.0,0.0,0.0,0.0,0.0,0.0,0.0,0.0,0.0,0.0,0.0,0.0,0.0,0.0,0.0,0.0,0.0,0.0,0.0,0.0,0.0,0.0,0.0,0.0,0.0,0.0,0.0,0.0,0.0,0.0,0.0,0.0,0.0,0.0,0.0,0.0,0.0,0.0,0.0,0.0,0.0,0.0,0.0,0.0,0.0,0.0,0.0,0.0,0.0,0.0,0.0,0.0,0.0,0.0,0.0,0.0,0.0,0.0,0.0,0.0,0.0,0.0,0.0,0.0,0.0,0.0,0.0,0.0,0.0,0.0,0.0,0.0,0.0,0.0,0.0,0.0,0.0,0.0,0.0,0.0,0.0,0.0,0.0,0.0,0.0,0.0,0.0,0.0,0.0,0.0,0.0,0.0,0.0,0.0,0.0,0.0,0.0,0.0,0.0,0.0,0.0,0.0,0.0,0.0,0.0,0.0,0.0,0.0,0.0,0.0,0.0,0.0,0.0,0.0,0.0,0.0,0.0,0.0,0.0,0.0,0.0,0.0,0.0,0.0,0.0,0.0,0.0,0.0,0.0,0.0,0.0,0.0,0.0,0.0,0.0,0.0,0.0,0.0,0.0,0.0,0.0,0.0,0.0,0.0,0.0,0.0,0.0,0.0,0.0,0.0,0.0,0.0,0.0,0.0,0.0,0.0,0.0,0.0,0.0,0.0,0.0,0.0,0.0,0.0,0.0,0.0,0.0,0.0,0.0,0.0,0.0,0.0,0.0,0.0,0.0,0.0,0.0,0.0,0.0,0.0,0.0,0.0,0.0,0.0,0.0,0.0,0.0,0.0,0.0,0.0,0.0,0.0,0.0,0.0,0.0,0.0,0.0,0.0,0.0,0.0,0.0,0.0,0.0,0.0,0.0,0.0,0.0,0.0,0.0,0.0,0.0,0.0,0.0,0.0,0.0,0.0,0.0,0.0,0.0,0.0,0.0,0.0,0.0,0.0,0.0,0.0,0.0,0.0,0.0,0.0,0.0,0.0,0.0,0.0,0.0,0.0,0.0,0.0,0.0,0.0,0.0,0.0,0.0,0.0,0.0,0.0,0.0,0.0,0.0,0.0,0.0,0.0,0.0,0.0,0.0,0.0,0.0,0.0,0.0,0.0,0.0,0.0,0.0,0.0,0.0,0.0,0.0,0.0,0.0,0.0,0.0,0.0,0.0,0.0,0.0,0.0,0.0,0.0,0.0,0.0,0.0,0.0,0.0,0.0,0.0,0.0,0.0,0.0,0.0,0.0,0.0,0.0,0.0,0.0,0.0,0.0,0.0,0.0,0.0,0.0,0.0,0.0,0.0,0.0,0.0,0.0,0.0,0.0,0.0,0.0,0.0,0.0,0.0,0.0,0.0,0.0,0.0,0.0,0.0,0.0,0.0,0.0,0.0,0.0,0.0,0.0,0.0,0.0,0.0,0.0,0.0,0.0,0.0,0.0,0.0,0.0,0.0,0.0,0.0,0.0,0.0,0.0,0.0,0.0,0.0,0.0,0.0,0.0,0.0,0.0,0.0,0.0,0.0,0.0,0.0,0.0,0.0,0.0,0.0,0.0,0.0,0.0,0.0,0.0,0.0,0.0,0.0,0.0,0.0,0.0,0.0,0.0,0.0,0.0,0.0,0.0,0.0,0.0,0.0,0.0,0.0,0.0,0.0,0.0,0.0,0.0,0.0,0.0,0.0,0.0,0.0,0.0,0.0,0.0,0.0,0.0,0.0,0.0,0.0,0.0,0.0,0.0,0.0,0.0,0.0,0.0,0.0,0.0,0.0,0.0,0.0,0.0,0.0,0.0,0.0,0.0,0.0,0.0,0.0,0.0,0.0,0.0,0.0,0.0,0.0,0.0,0.0,0.0,0.0,0.0,0.0,0.0,0.0,0.0,0.0,0.0,0.0,0.0,0.0,0.0,0.0,0.0,0.0,0.0,0.0,0.0,0.0,0.0,0.0,0.0,0.0,0.0,0.0,0.0,0.0,0.0,0.0,0.0,0.0,0.0,0.0,0.0,0.0,0.0,0.0,0.0,0.0,0.0,0.0,0.0,0.0,0.0,0.0,0.0,0.0,0.0,0.0,0.0,0.0,0.0,0.0,0.0,0.0,0.0,0.0,0.0,0.0,0.0,0.0,0.0,0.0,0.0,0.0,0.0,0.0,0.0,0.0,0.0,0.0,0.0,0.0,0.0,0.0,0.0,0.0,0.0,0.0,0.0,0.0,0.0,0.0,0.0,0.0,0.0,0.0,0.0,0.0,0.0,0.0,0.0,0.0,0.0,0.0,0.0,0.0,0.0,0.0,0.0,0.0,0.0,0.0,0.0,0.0,0.0,0.0,0.0,0.0,0.0,0.0,0.0,0.0,0.0,0.0,0.0,0.0,0.0,0.0,0.0,0.0,0.0,0.0,0.0,0.0,0.0,0.0,0.0,0.0,0.0,0.0,0.0,0.0,0.0,0.0,0.0,0.0,0.0,0.0,0.0,0.0,0.0,0.0,0.0,0.0,0.0,0.0,0.0,0.0,0.0,0.0,0.0,0.0,0.0,0.0,0.0,0.0,0.0,0.0,0.0,0.0,0.0,0.0,0.0,0.0,0.0,0.0,0.0,0.0,0.0,0.0,0.0,0.0,0.0,0.0,0.0,0.0,0.0,0.0,0.0,0.0,0.0,0.0,0.0,0.0,0.0,0.0,0.0,0.0,0.0,0.0,0.0,0.0,0.0,0.0,0.0,0.0,0.0,0.0,0.0,0.0,0.0,0.0,0.0,0.0,0.0,0.0,0.0,0.0,0.0,0.0,0.0,0.0,0.0,0.0,0.0,0.0,0.0,0.0,0.0,0.0,0.0,0.0,0.0,0.0,0.0,0.0,0.0,0.0,0.0,0.0,0.0,0.0,0.0,0.0,0.0,0.0,0.0,0.0,0.0,0.0,0.0,0.0,0.0,0.0,0.0,0.0,0.0,0.0,0.0,0.0,0.0,0.0,0.0,0.0,0.0,0.0,0.0,0.0,0.0,0.0,0.0,0.0,0.0,0.0,0.0,0.0,0.0,0.0,0.0,0.0,0.0,0.0,0.0,0.0,0.0,0.0,0.0,0.0,0.0,0.0,0.0,0.0,0.0,0.0,0.0,0.0,0.0,0.0,0.0,0.0,0.0,0.0,0.0,0.0,0.0,0.0,0.0,-1.0519,0.0,0.0,0.0,0.0,0.0,0.0,0.0,0.0,0.0,0.0,0.0,0.0,0.0,0.0,0.0,0.0,0.0,0.0,0.0,0.0,0.0,0.0,0.0,0.0,0.0,0.0,0.0,0.0,0.0,0.0,0.0,0.0,0.0,0.0,0.0,0.0,0.0,-1.0591,-1.0459,-1.0326,-1.006,-0.9927,-1.0193,-1.0326,0.0,0.0,0.0,0.0,0.0,0.0,0.0,0.0,0.0,0.0,0.0,0.0,0.0,0.0,0.0,0.0,0.0,0.0,0.0,0.0,0.0,0.0,0.0,0.0,0.0,0.0,0.0,0.0,0.0,0.0,0.0,0.0,0.0,0.0,0.0,0.0,0.0,0.0,0.0,0.0,0.0,0.0,0.0,0.0,0.0,0.0,0.0,0.0,0.0,0.0,0.0,0.0,0.0,0.0,0.0,0.0,0.0,0.0,0.0,0.0,0.0,0.0,0.0,0.0,0.0,0.0,0.0,0.0,0.0,0.0,0.0,0.0,-1.0606,0.0,0.0,0.0,0.0,0.0,0.0,0.0,0.0,0.0,0.0,0.0,0.0,0.0,0.0,0.0,0.0,0.0,0.0,0.0,0.0,0.0,0.0,0.0,-1.0344,-1.05,-1.0527,-1.0518,-1.0585,0.0,0.0,0.0,0.0,0.0,-1.0717,-1.0717,-1.0585,-1.0452,-1.0193,-1.0054,-0.9794,-0.9528,-0.9528,0.0,0.0,0.0,0.0,0.0,0.0,0.0,0.0,0.0,0.0,0.0,0.0,0.0,0.0,0.0,0.0,0.0,0.0,0.0,0.0,0.0,0.0,0.0,0.0,0.0,0.0,0.0,0.0,0.0,0.0,0.0,0.0,0.0,0.0,0.0,0.0,0.0,0.0,0.0,0.0,0.0,0.0,0.0,0.0,0.0,0.0,0.0,0.0,0.0,0.0,0.0,0.0,0.0,0.0,0.0,0.0,0.0,0.0,0.0,0.0,0.0,0.0,0.0,0.0,0.0,0.0,-1.0348,-1.036,-1.0384,-1.0384,-1.0239,-0.9948,-1.0239,-1.0227,-0.9914,0.0,0.0,0.0,0.0,0.0,0.0,0.0,0.0,0.0,0.0,0.0,0.0,0.0,0.0,0.0,0.0,0.0,0.0,0.0,0.0,0.0,0.0,-1.0466,-1.0548,-1.0677,-1.0445,-1.0459,-1.0717,0.0,-1.0459,-1.0717,-1.0717,-1.0717,-1.0717,-1.0459,-1.0193,-1.0193,-0.9522,-0.9117,-0.8723,-0.8723,-0.8984,-0.925,-0.9528,0.0,0.0,0.0,0.0,0.0,0.0,0.0,0.0,0.0,0.0,0.0,0.0,0.0,0.0,0.0,0.0,0.0,0.0,0.0,0.0,0.0,0.0,0.0,0.0,0.0,0.0,0.0,0.0,0.0,0.0,0.0,0.0,0.0,0.0,0.0,0.0,0.0,0.0,0.0,0.0,0.0,0.0,0.0,-1.0003,-1.0003,0.0,0.0,0.0,0.0,0.0,0.0,0.0,0.0,0.0,0.0,0.0,0.0,0.0,-1.0593,-1.0431,-1.0155,-1.0082,-1.0193,-0.9753,-0.9667,-0.9772,-0.9772,-0.9772,-0.9772,-0.9772,0.0,-1.0058,-1.0168,0.0,0.0,0.0,0.0,0.0,0.0,0.0,0.0,0.0,0.0,0.0,0.0,0.0,0.0,0.0,0.0,0.0,0.0,0.0,0.0,0.0,-1.0306,-1.0254,-1.0187,-1.006,-0.9927,-1.0193,-1.0193,-1.0326,-1.0459,-1.0585,-1.0591,-1.0459,-1.0326,-1.0054,-0.9522,-0.9117,-0.8717,-0.859,-0.859,-0.8717,-0.8851,-0.8989,-0.9123,-0.9389,-0.9389,0.0,0.0,0.0,0.0,0.0,0.0,0.0,0.0,0.0,0.0,0.0,0.0,0.0,0.0,0.0,0.0,0.0,0.0,0.0,0.0,0.0,0.0,0.0,0.0,0.0,0.0,0.0,0.0,0.0,0.0,0.0,0.0,0.0,0.0,0.0,0.0,0.0,0.0,0.0,-1.0435,-1.0329,-1.0329,-1.0544,-1.0735,0.0,0.0,0.0,0.0,0.0,0.0,0.0,0.0,0.0,-1.0274,-1.028,-1.017,-1.0098,-0.9803,-0.9831,-0.9888,-0.9739,-0.9617,-0.9671,-0.9671,-0.9671,-0.9671,-0.9737,-0.9882,-0.9983,-1.0122,-1.0416,-1.0715,0.0,0.0,0.0,0.0,-1.1014,-1.1014,0.0,0.0,0.0,0.0,0.0,0.0,0.0,0.0,0.0,0.0,0.0,0.0,-1.0025,-0.9996,-0.9927,-0.9661,-0.9661,-0.9528,-0.9661,-0.9927,-1.006,-1.0193,-1.0459,-1.0585,-1.0193,-1.006,-0.9655,-0.8984,-0.8723,-0.859,-0.859,-0.859,-0.859,-0.859,-0.859,-0.8717,-0.8984,-0.8984,-0.8984,0.0,0.0,0.0,0.0,0.0,0.0,0.0,0.0,0.0,0.0,0.0,0.0,0.0,0.0,0.0,0.0,0.0,0.0,0.0,0.0,0.0,0.0,0.0,0.0,0.0,0.0,0.0,0.0,0.0,0.0,0.0,0.0,0.0,0.0,0.0,0.0,0.0,0.0,-1.0556,-1.0436,-1.0575,-1.053,-1.0735,0.0,0.0,0.0,0.0,0.0,0.0,-1.0366,-1.0396,-1.0316,-0.9974,-0.9974,-0.9871,-0.9666,-0.9671,-0.9682,-0.9715,-0.9715,-0.9731,-0.9758,-0.9758,-0.9758,-0.9764,-0.9845,-0.9883,-0.9878,-1.0095,-1.0213,-1.0358,-1.066,-1.0812,-1.0963,-1.0812,-1.0818,-1.066,0.0,0.0,0.0,0.0,0.0,0.0,0.0,0.0,0.0,0.0,0.0,-1.0025,-1.0167,-0.9921,-0.9661,-0.9661,-0.9389,-0.9256,-0.9661,-0.9661,-0.9927,-1.0193,-1.0459,-1.0585,-1.0193,-0.9516,-0.8984,-0.8584,-0.859,-0.859,-0.859,-0.859,-0.859,-0.859,-0.859,-0.859,-0.8584,-0.8584,-0.8851,-0.9117,0.0,0.0,0.0,0.0,0.0,0.0,0.0,0.0,0.0,0.0,0.0,0.0,0.0,0.0,0.0,0.0,0.0,0.0,0.0,0.0,0.0,0.0,0.0,0.0,0.0,0.0,0.0,0.0,0.0,0.0,0.0,0.0,0.0,0.0,0.0,0.0,0.0,0.0,0.0,-1.0437,-1.0155,0.0,0.0,0.0,0.0,-1.0599,-1.0578,-1.0504,-1.0211,-1.0179,-1.0099,-0.9661,-0.9661,-0.9661,-0.9671,-0.9671,-0.972,-0.9829,-0.9829,-0.9889,-1.0003,-1.0003,-1.0003,-1.0003,-1.0008,-1.0008,-1.0008,-1.0003,-1.0314,-1.0618,-1.0624,-1.0934,-1.1244,-1.0779,-1.0624,-1.0624,0.0,0.0,0.0,0.0,0.0,0.0,0.0,0.0,-1.0122,-1.0141,-1.0156,-0.9996,-0.9516,-0.9389,-0.9256,-0.8989,-0.8856,-0.8851,-0.8989,-0.9256,-0.9389,-0.9522,-0.9788,-0.9921,-0.9516,-0.8984,-0.8723,-0.859,-0.859,-0.859,-0.859,-0.8666,-0.8704,-0.8709,-0.8785,-0.8823,-0.8818,-0.8736,-0.8889,-0.8955,-0.896,-0.8966,0.0,0.0,0.0,0.0,0.0,0.0,0.0,0.0,0.0,0.0,0.0,0.0,0.0,0.0,0.0,0.0,0.0,0.0,0.0,0.0,0.0,0.0,0.0,0.0,0.0,0.0,0.0,0.0,0.0,0.0,0.0,0.0,0.0,0.0,0.0,0.0,0.0,-1.0455,-1.0167,0.0,-1.0578,-1.0444,-1.0328,-1.0269,-1.0173,-0.9904,-0.9904,-0.9794,-0.9855,-0.9775,-0.9775,-0.9813,-0.9894,-0.9894,-0.9916,-0.9954,-0.9954,-0.9976,-1.0019,-1.0019,-1.0019,-1.0019,-1.0019,-1.0019,-1.0019,-1.0019,-1.0019,-1.0175,-1.0175,-1.033,-1.0486,-1.033,-1.0175,-1.0175,0.0,0.0,0.0,0.0,0.0,0.0,0.0,0.0,-1.0256,-1.0091,-0.9971,-0.9788,-0.9117,-0.8984,-0.8851,-0.859,-0.859,-0.859,-0.859,-0.8851,-0.9117,-0.9117,-0.9389,-0.9389,-0.9117,-0.8717,-0.859,-0.859,-0.8628,-0.8649,-0.8649,-0.8774,-0.8834,-0.8834,-0.8916,-0.8976,-0.9008,-0.8927,-0.8916,-0.8954,-0.882,-0.882,-0.8954,0.0,0.0,0.0,0.0,0.0,0.0,0.0,0.0,0.0,0.0,0.0,0.0,0.0,0.0,0.0,0.0,0.0,0.0,0.0,0.0,0.0,0.0,0.0,0.0,0.0,0.0,0.0,0.0,0.0,0.0,0.0,0.0,0.0,0.0,0.0,-1.0088,-1.0523,-1.0129,-1.0046,-1.0423,-1.0139,-1.0025,-0.996,-0.9855,-0.9726,-0.9726,-0.9764,-0.9824,-0.9894,-0.99,-0.9938,-1.0019,-1.0019,-1.0019,-1.0019,-1.0019,-1.0019,-1.0019,-1.0019,-1.0041,-1.0085,-1.0085,-1.0106,-1.0144,-1.0144,-1.0144,-1.0134,-1.0052,-1.0019,-1.0019,-1.0019,-1.0019,-1.0019,0.0,0.0,0.0,0.0,0.0,0.0,0.0,-1.0304,-1.0364,-0.998,-0.9845,-0.9528,-0.9117,-0.8851,-0.859,-0.859,-0.859,-0.859,-0.859,-0.8851,-0.9117,-0.9117,-0.9117,-0.9117,-0.9117,-0.8723,-0.8595,-0.8595,-0.8715,-0.8774,-0.878,-0.8899,-0.8959,-0.8959,-0.8959,-0.903,-0.9139,-0.9139,-0.9073,-0.8965,-0.8831,-0.8831,-0.8826,0.0,0.0,0.0,0.0,0.0,0.0,0.0,0.0,0.0,0.0,0.0,0.0,0.0,0.0,0.0,0.0,0.0,0.0,0.0,0.0,0.0,0.0,0.0,0.0,0.0,0.0,0.0,0.0,0.0,0.0,0.0,0.0,0.0,-1.0486,-1.0292,-1.0228,-1.0516,-1.0042,-0.9822,-1.0122,-0.9822,-0.9677,-0.9682,-0.978,-0.9845,-0.9845,-0.9954,-1.0019,-1.0019,-1.0019,-1.0019,-1.0019,-1.0025,-1.0025,-1.0025,-1.003,-1.003,-1.003,-1.003,-1.0095,-1.021,-1.021,-1.0275,-1.0384,-1.0384,-1.0384,-1.0362,-1.0123,-1.003,-1.003,-1.003,-1.003,-1.003,0.0,0.0,0.0,0.0,0.0,0.0,0.0,-1.0371,-1.0273,-0.9858,-0.9769,-0.9395,-0.8856,-0.8723,-0.859,-0.859,-0.859,-0.859,-0.859,-0.8717,-0.8717,-0.8717,-0.8717,-0.8717,-0.8717,-0.8811,-0.872,-0.872,-0.8845,-0.8899,-0.8905,-0.9024,-0.9084,-0.909,-0.9171,-0.9226,-0.9258,-0.9258,-0.9247,-0.9231,-0.9098,-0.8222,-0.7048,0.0,0.0,0.0,0.0,0.0,0.0,0.0,0.0,0.0,0.0,0.0,0.0,0.0,0.0,0.0,0.0,0.0,0.0,0.0,0.0,0.0,0.0,0.0,0.0,0.0,0.0,0.0,0.0,0.0,0.0,0.0,-1.0512,-1.0202,-1.031,-1.0042,-0.9916,-0.9916,-0.9799,-0.9699,-0.9932,-0.9791,-0.9829,-0.9916,-0.9954,-0.997,-0.997,-1.0003,-1.0019,-1.0019,-1.0019,-1.0019,-1.0019,-1.0106,-1.0155,-1.0155,-1.0242,-1.0286,-1.0286,-1.0286,-1.0302,-1.0335,-1.0335,-1.0356,-1.0384,-1.0384,-1.0384,-1.0378,-1.0313,-1.0286,-1.0286,-1.0286,-1.0286,-1.0286,0.0,0.0,0.0,0.0,0.0,0.0,0.0,-1.0364,-1.0228,-0.9782,-0.9528,-0.9256,-0.8723,-0.859,-0.859,-0.859,-0.859,-0.859,-0.859,-0.859,-0.859,-0.859,-0.859,-0.859,-0.859,-0.8709,-0.8769,-0.8769,-0.8943,-0.903,-0.903,-0.915,-0.9204,-0.9209,-0.9275,-0.9302,-0.9302,-0.9302,-0.9313,-0.9184,-0.8309,-0.728,-0.6395,-0.8469,-0.9479,-0.959,-0.959,-0.9879,-1.0311,-1.0311,0.0,0.0,0.0,0.0,0.0,0.0,0.0,0.0,0.0,0.0,0.0,0.0,0.0,0.0,0.0,0.0,0.0,0.0,0.0,0.0,0.0,0.0,0.0,0.0,-1.0347,-1.0056,-1.0112,-0.9921,-0.9742,-0.9742,-0.9786,-0.984,-0.9905,-0.9911,-0.9943,-1.0014,-1.0019,-1.0019,-1.0019,-1.0019,-1.0047,-1.0095,-1.0095,-1.0123,-1.0172,-1.0242,-1.028,-1.028,-1.0351,-1.0384,-1.0384,-1.0384,-1.0411,0.0,-1.0454,-1.0487,-1.0536,-1.0536,-1.0536,0.0,0.0,0.0,0.0,0.0,-1.0384,-1.0384,0.0,0.0,0.0,0.0,0.0,0.0,0.0,-1.0359,-1.006,-0.9794,-0.9389,-0.8984,-0.8584,-0.859,-0.859,-0.859,-0.859,-0.859,-0.859,-0.859,-0.859,-0.859,-0.859,-0.8595,-0.8606,-0.8725,-0.8796,-0.8812,-0.9041,-0.9155,-0.9155,-0.9258,-0.9302,-0.9302,-0.9307,-0.9307,-0.9307,-0.9307,-0.9318,-0.9189,-0.7276,-0.6543,-0.6688,-0.8609,-0.9334,-0.9302,-0.9302,-0.959,-0.9879,-0.9879,0.0,0.0,0.0,0.0,0.0,0.0,0.0,0.0,0.0,0.0,0.0,0.0,0.0,0.0,0.0,0.0,0.0,0.0,0.0,0.0,0.0,0.0,0.0,0.0,-1.0015,-0.9894,-1.0003,-0.9927,-0.9856,-0.9856,-0.9954,-1.0019,-1.0019,-1.0019,-1.0019,-1.0019,-1.003,-1.0041,-1.0041,0.0,0.0,0.0,0.0,-1.0275,-1.0384,-1.04,-1.0405,-1.0405,-1.0416,-1.0427,-1.0427,-1.0427,-1.0481,-1.0574,-1.0574,-1.0639,-1.0737,-1.0737,-1.0737,-1.0715,-1.0509,-1.0427,-1.0427,-1.0427,-1.0427,-1.0427,0.0,0.0,0.0,0.0,0.0,0.0,0.0,-1.0622,-1.0459,-0.9794,-0.9661,-0.9395,-0.8723,-0.859,-0.859,-0.859,-0.859,-0.859,-0.859,-0.859,-0.859,-0.859,-0.859,-0.8633,-0.8731,-0.8856,-0.8965,-0.9063,-0.9204,-0.9269,-0.9269,-0.9296,-0.9302,-0.9302,-0.9318,-0.9323,-0.9329,-0.934,-0.9356,-0.9216,-0.892,-0.876,-0.8744,-0.9189,-0.9323,-0.9302,-0.9302,-0.9302,-0.9446,-0.9446,-0.9735,-1.0023,-1.0023,-1.0311,0.0,0.0,0.0,0.0,0.0,0.0,0.0,0.0,0.0,0.0,0.0,0.0,0.0,0.0,0.0,0.0,0.0,0.0,0.0,-1.0601,-1.0297,-0.9992,-1.0019,-0.9998,-0.9987,-0.9987,-1.0008,-1.0019,-1.0019,-1.0019,-1.0019,-1.0019,-1.0112,-1.0166,-1.0166,-1.0264,-1.0324,-1.0351,-1.0351,-1.0362,-1.0384,-1.0476,-1.0525,-1.0525,0.0,0.0,-1.0672,-1.0672,-1.0683,-1.0704,-1.0704,-1.0715,-1.0737,-1.0737,-1.0737,-1.0732,-1.0688,-1.0672,-1.0672,-1.0672,-1.0672,-1.0672,0.0,0.0,0.0,0.0,0.0,0.0,0.0,-1.0934,-1.0326,-0.9794,-0.9528,-0.9256,-0.8723,-0.859,-0.859,-0.859,-0.859,-0.859,-0.859,-0.859,-0.859,-0.859,-0.859,-0.8644,-0.8769,-0.8889,-0.9014,-0.9133,-0.9247,-0.9302,-0.9302,-0.9302,-0.9302,-0.9307,-0.9323,-0.9329,-0.9184,-0.7584,-0.7003,-0.7007,-0.7007,-0.6998,-0.7135,-0.8754,-0.9329,-0.9302,-0.9302,-0.9302,-0.9313,-0.9372,-0.954,-0.9697,-0.9759,-0.9928,-1.0087,0.0,0.0,0.0,0.0,0.0,0.0,0.0,0.0,0.0,0.0,0.0,0.0,0.0,0.0,-1.1183,-1.094,0.0,-1.0486,-1.033,-1.0175,-1.0019,-1.0019,-1.0074,-1.009,-1.0025,-1.0019,-1.0047,-1.0106,-1.0112,-1.0139,-1.0199,-1.0259,-1.0297,-1.0297,-1.0351,-1.0411,-1.0471,-1.0471,-1.0498,-1.0563,-1.0677,-1.0737,-1.0737,-1.0862,-1.0922,-1.0922,-1.0922,-1.0922,-1.0922,-1.0922,-1.0922,-1.0922,-1.0922,-1.0922,-1.0922,-1.0922,-1.0846,-1.0737,-1.0737,-1.0737,-1.0737,0.0,0.0,0.0,0.0,0.0,0.0,0.0,-1.124,-1.0193,-0.9794,-0.9522,-0.9117,-0.8717,-0.8717,-0.8723,-0.859,-0.859,-0.859,-0.859,-0.859,-0.859,-0.859,-0.8611,-0.8682,-0.8802,-0.8927,-0.9046,-0.9166,-0.9258,-0.9302,-0.9302,-0.9302,-0.9302,-0.9307,-0.9329,-0.8894,-0.816,-0.5096,-0.4078,-0.4662,-0.4673,-0.4679,-0.497,-0.8085,-0.9248,-0.9345,-0.9345,-0.9356,-0.9394,-0.9492,-0.9525,-0.9541,-0.9639,-0.9671,-0.9822,-0.9994,-1.015,0.0,0.0,0.0,0.0,0.0,0.0,0.0,0.0,-1.1417,-1.1572,-1.1107,-1.1107,-1.0952,-1.0486,-1.0486,-1.0336,-1.0052,-1.0057,-1.0063,-1.009,-1.0177,-1.0204,-1.0101,-1.009,-1.0128,-1.0226,-1.0237,-1.028,-1.0378,-1.0405,-1.0416,-1.0416,-1.0443,-1.0509,-1.0623,-1.0628,-1.0683,-1.0808,-1.0905,-1.0954,-1.0954,-1.1052,-1.1101,-1.1101,-1.1101,-1.1101,-1.1101,-1.1101,-1.1101,-1.1101,-1.1101,-1.1101,-1.1101,-1.1101,-1.0982,-1.0808,-1.0808,-1.0808,-1.0808,0.0,0.0,0.0,0.0,0.0,0.0,0.0,0.0,-1.0459,-1.0193,-1.006,-0.9788,-0.9117,-0.8984,-0.8984,-0.8584,-0.859,-0.859,-0.859,-0.859,-0.859,-0.859,-0.8693,-0.8807,-0.8927,-0.9052,-0.9171,-0.9285,-0.9296,-0.9302,-0.9302,-0.9302,-0.9302,-0.9307,-0.934,-0.7733,-0.495,-0.1894,-0.2189,-0.4681,-0.4736,-0.4752,-0.5049,-0.8131,-0.9313,-0.935,-0.9492,-0.9404,-0.9489,-0.9644,-0.965,-0.965,-0.9666,-0.9671,-0.9688,-0.9791,-1.0123,-1.0603,-1.1029,-1.1541,-1.1553,-1.0791,-1.1107,-1.1107,0.0,-1.0486,-1.0641,-1.0175,-1.0175,-1.0175,-1.0019,-1.0019,-1.0057,-1.0166,-1.0182,-1.0221,-1.0329,-1.0356,-1.0362,-1.0346,-1.0346,-1.0351,-1.0367,-1.0367,-1.0373,-1.0384,-1.0481,-1.0536,-1.0536,-1.0639,-1.0753,-1.0873,-1.0878,-1.0938,-1.1058,-1.1074,-1.1079,-1.1085,-1.1096,-1.1101,-1.1101,-1.1101,-1.1101,-1.1101,-1.1101,-1.1101,-1.1101,-1.1101,-1.1101,-1.1101,-1.1101,-1.1085,-1.1063,-1.1063,-1.1063,-1.1063,0.0,0.0,0.0,0.0,0.0,0.0,0.0,0.0,0.0,-1.0193,-1.0193,-1.006,-0.9522,-0.925,-0.8984,-0.8584,-0.859,-0.859,-0.859,-0.859,-0.859,-0.859,-0.8704,-0.8829,-0.8948,-0.9073,-0.9188,-0.9302,-0.9302,-0.9302,-0.9302,-0.9302,-0.9307,-0.9318,-0.9345,-0.8624,-0.7007,-0.2042,-0.0733,-0.1921,-0.1931,-0.1943,-0.2105,-0.3325,-0.5007,-0.6683,-0.7369,-0.8576,0.0,-0.9748,-0.9769,-0.978,-0.9851,-0.9873,-0.9883,-1.0235,-1.0406,-1.0572,-1.0779,-1.0796,-1.0641,-1.033,-1.0641,-1.0796,-1.0175,-1.033,-1.0486,-1.0019,-1.0074,-1.0128,-1.0128,-1.0182,-1.0248,-1.0302,-1.0313,-1.0329,-1.0378,-1.0443,-1.0487,-1.0487,-1.0547,-1.0563,-1.0492,-1.0487,-1.0514,-1.0585,-1.0634,-1.0693,-1.0764,-1.0813,-1.09,-1.102,-1.1025,-1.1052,-1.1101,-1.1166,-1.1199,-1.1199,-1.1275,-1.1308,-1.1308,-1.1308,-1.1308,-1.1308,-1.1308,-1.1308,-1.1308,-1.1308,-1.1308,-1.1308,-1.1308,-1.1308,-1.1291,-1.1156,-1.1101,-1.1101,0.0,0.0,0.0,0.0,0.0,0.0,0.0,0.0,0.0,0.0,-1.0326,-1.0193,-0.9927,-0.9389,-0.8984,-0.8717,-0.859,-0.859,-0.859,-0.859,-0.859,-0.859,-0.8736,-0.8861,-0.8948,-0.9101,-0.922,-0.9302,-0.9302,-0.9302,-0.9302,-0.9307,-0.9318,-0.9334,-0.9351,-0.9238,-0.8831,-0.2641,0.0,0.0,0.0,0.0,0.0,0.0,-0.2616,-0.62,-0.6101,-0.7608,-0.9802,-0.9867,-0.9889,-0.9905,-0.9992,-1.0019,-1.0175,-1.033,-1.0486,-1.0641,-1.0486,-1.033,-1.0175,-1.0019,-1.0175,-1.0336,-1.0063,-1.0225,-1.0392,-1.0112,-1.0193,-1.0253,-1.0253,-1.0324,-1.0394,-1.0427,-1.0433,-1.0443,-1.0476,-1.0552,-1.0606,-1.0606,-1.0683,-1.0704,-1.0612,-1.0606,-1.0645,-1.0732,-1.077,-1.0824,-1.0916,-1.0954,-1.1025,-1.1145,-1.115,-1.1166,-1.1199,-1.1281,-1.1324,-1.1324,-1.1411,-1.1455,-1.1455,-1.1455,-1.1455,-1.1455,-1.146,-1.1465,-1.1465,-1.1471,-1.1471,-1.1471,-1.1465,-1.1465,-1.1438,-1.1264,-1.1199,-1.1199,0.0,0.0,0.0,0.0,0.0,0.0,0.0,0.0,0.0,0.0,0.0,0.0,0.0,-0.9522,-0.9117,-0.9117,-0.8851,-0.859,-0.859,-0.859,-0.859,-0.859,-0.8818,-0.8948,-0.8954,-0.9182,-0.9302,-0.9302,-0.9302,-0.9302,-0.9302,-0.9323,-0.9329,-0.9334,-0.9362,-0.9291,-0.8948,-0.2676,0.0,0.0,0.0,0.0,0.0,0.0,-0.4081,-0.9433,-0.6186,0.0,-1.0057,-1.0025,-1.0014,-1.0014,-1.0019,-1.033,-1.0486,-1.0175,-1.033,-1.0486,-1.0175,-1.033,-1.0486,-1.0175,-1.0019,-1.0052,-1.0172,-1.0199,-1.0231,-1.0351,-1.0378,-1.0378,-1.0378,-1.0384,-1.0422,-1.053,-1.0552,-1.059,-1.071,-1.0732,-1.0732,-1.0732,-1.0732,-1.0737,0.0,-1.0732,-1.0732,-1.0737,-1.0846,-1.0916,-1.0922,-1.1031,-1.115,-1.1264,-1.1264,-1.1324,-1.1444,-1.1449,-1.1449,-1.1449,-1.1455,-1.1455,-1.1455,-1.1455,-1.1455,-1.1455,-1.1476,-1.1482,-1.1482,-1.1498,-1.1509,-1.1504,-1.1487,-1.1482,-1.1476,-1.1455,-1.1444,-1.1444,0.0,0.0,0.0,0.0,0.0,0.0,0.0,0.0,0.0,0.0,0.0,0.0,0.0,0.0,0.0,0.0,-0.8851,-0.859,-0.859,-0.859,-0.859,-0.859,-0.8823,-0.8954,-0.8954,-0.9182,-0.9302,-0.9302,-0.9302,-0.9313,-0.9323,-0.9329,-0.934,-0.9362,-0.9367,-0.7064,-0.2975,-0.0893,0.0,0.0,0.0,0.0,-0.0468,-0.4863,-0.8028,-0.9923,0.0,-0.9071,-1.0052,-1.003,-1.0019,-1.0019,-1.0019,-1.0019,-1.0175,-1.033,-1.0486,-1.0641,-1.0486,-1.0392,-1.0296,-1.0144,-1.0204,-1.0275,-1.0318,-1.0324,-1.0335,-1.0378,-1.0443,-1.0498,-1.0498,-1.0563,-1.0634,-1.0672,-1.0677,-1.0688,-1.0732,-1.0737,-1.0737,-1.0737,-1.0737,0.0,0.0,0.0,0.0,-1.0851,-1.0895,-1.0987,-1.1145,-1.1194,-1.127,-1.1389,-1.1395,-1.1411,-1.1455,-1.1455,-1.1455,-1.1455,-1.1465,-1.1465,-1.1455,-1.1482,-1.1487,-1.1476,-1.1493,-1.0049,-0.7699,-0.7702,-0.7706,-0.7706,-0.7699,-0.9143,-1.1498,-1.1493,-1.1493,-1.1487,0.0,0.0,0.0,0.0,0.0,0.0,0.0,0.0,0.0,0.0,0.0,0.0,0.0,0.0,0.0,0.0,0.0,-0.859,-0.859,-0.859,-0.8606,-0.8649,-0.8845,-0.897,-0.9014,-0.9204,-0.9302,-0.9302,-0.9302,-0.9313,-0.9329,-0.816,-0.8174,-0.9227,-0.6901,-0.3699,0.0,0.0,-0.1372,-0.357,-0.357,-0.2806,-0.2196,-0.6598,-0.8968,0.0,-1.0052,-1.0041,-1.0036,-1.0025,-1.0019,-1.0019,-1.0019,-1.0019,-1.0019,-1.0486,-1.052,-1.0398,-1.0398,-1.0335,-1.0259,-1.0215,-1.0297,-1.0384,-1.0384,-1.0416,-1.046,-1.0503,-1.0568,-1.0617,-1.0617,-1.0683,-1.0737,-1.0737,-1.0737,-1.0737,-1.0737,-1.0737,-1.0737,-1.0737,-1.0737,-1.0753,-1.0797,0.0,0.0,-1.0916,-1.0998,-1.1112,-1.1264,-1.1313,-1.1373,-1.1455,-1.1455,-1.1455,-1.1455,-1.1455,-1.1455,-1.1455,-1.1465,-1.1471,-1.1465,-1.1487,-1.0768,-0.95,-1.0962,-1.0064,-0.7535,-0.4836,-0.3582,-0.3582,-0.358,-0.6812,-1.1336,-1.0416,-1.0049,-1.0223,0.0,0.0,0.0,0.0,0.0,0.0,0.0,0.0,0.0,0.0,0.0,0.0,0.0,0.0,0.0,0.0,0.0,0.0,-0.859,-0.859,-0.8644,-0.8764,-0.8889,-0.9008,-0.9133,-0.9247,-0.9302,-0.9302,-0.9302,-0.9313,-0.9184,-0.6261,-0.6272,-0.8795,-0.2958,-0.0299,-0.0303,-0.0307,-0.3882,-0.9771,-0.9928,-0.802,-0.5327,-0.5327,-0.7213,-1.0047,-1.0047,-1.0036,-1.0019,-1.0019,-1.0019,-1.0019,-1.0019,-1.0019,-1.0019,-1.0486,-1.0414,-1.0193,-1.0193,-1.0286,-1.0356,-1.0242,-1.0307,-1.0405,-1.0405,-1.0487,-1.0596,-1.0715,-1.0737,-1.0737,-1.0737,-1.0737,-1.0737,-1.0737,-1.0737,-1.0737,-1.0737,-1.0737,-1.0737,-1.0742,-1.0748,-1.0797,-1.0916,0.0,0.0,-1.0938,0.0,-1.1275,-1.1281,-1.1389,-1.1455,-1.1455,-1.1455,-1.1455,-1.1455,-1.1455,-1.1455,-1.1455,-1.1455,-1.1465,-1.1482,-1.112,-0.9139,-0.6267,-0.9527,-1.0988,-1.0267,-0.3052,0.0,0.0,0.0,-0.4483,-1.0625,-0.8421,-0.7691,-0.8226,0.0,0.0,0.0,0.0,0.0,0.0,0.0,0.0,0.0,0.0,0.0,0.0,0.0,0.0,0.0,0.0,0.0,0.0,-0.859,-0.859,-0.8644,-0.8764,-0.8889,-0.9008,-0.9133,-0.9247,-0.9302,-0.9302,-0.9302,-0.9313,-0.9184,-0.6982,-0.5849,-0.6058,-0.4443,-0.3752,-0.3678,-0.3688,-0.4652,-0.6434,-0.8968,-0.9443,-0.8802,-0.8788,-0.9256,-1.0047,-1.003,-1.0025,-1.0019,-1.0019,-1.0019,-1.0019,-1.0019,-1.0019,-1.0019,-1.0175,-1.0041,-1.0068,-1.0068,-1.0221,-1.0378,-1.0346,-1.0492,-1.0645,-1.0645,-1.0672,-1.0699,-1.0732,-1.0737,-1.0737,-1.0737,-1.0737,-1.0737,-1.0737,-1.0737,-1.0737,-1.0737,-1.0737,-1.077,-1.0862,-1.0873,-1.0922,-1.1041,-1.1134,0.0,0.0,-1.1237,-1.1313,-1.14,-1.1438,-1.1455,-1.1455,-1.1455,-1.1455,-1.1455,-1.1455,-1.1455,-1.1455,-1.1471,-1.1476,-1.1303,-0.5549,-0.5554,-0.9715,-0.5027,-0.2872,-0.2693,-0.0898,0.0,0.0,0.0,-0.1256,-0.3231,-0.6467,-0.8807,-1.061,0.0,0.0,0.0,0.0,0.0,0.0,0.0,0.0,0.0,0.0,0.0,0.0,0.0,0.0,0.0,0.0,0.0,0.0,0.0,-0.8717,-0.8666,-0.8845,-0.8916,-0.903,-0.9204,-0.9269,-0.9302,-0.9302,-0.9302,-0.9313,-0.9329,-0.815,-0.7327,-0.7129,-0.717,-0.7264,-0.7245,-0.7131,-0.7174,0.0,0.0,-1.0057,-1.0052,-1.0041,-1.0036,-1.0036,-1.0025,-1.0019,-1.0019,-1.0019,-1.0019,-1.0019,-1.0019,-1.0019,-1.0019,-1.0019,-1.0057,-1.0112,-1.0166,-1.0318,-1.046,-1.046,-1.0601,-1.0721,-1.0672,-1.0699,-1.0737,-1.0737,-1.078,-1.0819,-1.0819,-1.0819,-1.0819,-1.0819,-1.0819,-1.0819,-1.0819,-1.0862,-1.0922,-1.0992,-1.0998,-1.1047,-1.1166,-1.1237,-1.1297,0.0,-1.1351,-1.1384,-1.1449,-1.1455,-1.1455,-1.1455,-1.1455,-1.1455,-1.1455,-1.1455,-1.146,-1.1465,-1.1476,-1.1493,-1.1325,-0.6998,-0.5562,-0.6287,0.0,0.0,0.0,0.0,0.0,0.0,0.0,0.0,-0.0539,-0.5027,-0.7721,-0.916,0.0,0.0,0.0,0.0,0.0,0.0,0.0,0.0,0.0,0.0,-1.6073,0.0,0.0,0.0,0.0,0.0,0.0,0.0,0.0,0.0,-0.8698,-0.8943,-0.8954,-0.9063,-0.9296,-0.9302,-0.9302,-0.9302,-0.9302,-0.9313,-0.9329,-0.9329,-0.9405,-0.9706,-0.981,-0.9937,-1.0075,-1.0025,-1.0057,-1.0041,-1.0041,-1.0036,-1.0019,0.0,0.0,-1.0019,-1.0019,-1.0019,-1.0019,-1.0019,-1.0019,-1.0019,-1.0019,-1.0019,-1.0019,-1.0019,-1.0106,-1.0226,-1.0335,-1.0454,-1.0558,-1.0558,-1.065,-1.071,-1.0601,-1.0661,-1.0742,-1.0759,-1.0846,-1.0927,-1.0938,-1.0944,-1.0944,-1.0944,-1.0944,-1.0944,-1.0944,-1.1036,-1.1107,-1.1123,-1.1123,-1.1172,-1.1286,-1.1297,-1.134,-1.1449,-1.1455,-1.1455,-1.1455,-1.1455,-1.1455,-1.1455,-1.1455,-1.1455,-1.1455,-1.1455,-1.1465,-1.1482,-1.1482,-1.1504,-1.1536,-1.1536,-0.737,0.0,0.0,0.0,0.0,0.0,0.0,0.0,0.0,0.0,-0.0359,-0.3761,-0.5552,-0.6984,0.0,0.0,0.0,0.0,0.0,0.0,0.0,0.0,0.0,0.0,-1.7507,-1.6073,0.0,0.0,0.0,0.0,0.0,0.0,0.0,0.0,0.0,-0.8943,-0.8954,-0.9063,-0.9296,-0.9302,-0.9302,-0.9302,-0.9302,-0.9307,-0.9307,-0.9307,-0.9427,-0.9644,-0.9666,-0.9796,-0.9998,-1.0019,-1.003,-1.0025,-1.0025,-1.0025,-1.0019,0.0,0.0,0.0,-1.0019,-1.0019,-1.0019,-1.0019,-1.0019,-1.0019,-1.0019,-1.0019,-1.0019,-1.0019,-1.0106,-1.021,-1.0226,-1.0394,-1.0558,-1.0558,-1.065,-1.0732,-1.071,-1.0721,-1.0764,-1.0867,-1.0905,-1.0949,-1.1052,-1.1069,-1.1069,-1.1069,-1.1069,-1.1069,-1.1069,-1.109,-1.1139,-1.1232,-1.1243,-1.1291,-1.1411,-1.1422,-1.1433,0.0,-1.1455,-1.1455,-1.1455,-1.1455,-1.1455,-1.1455,-1.1455,-1.1455,-1.1455,-1.1455,-1.1465,-1.1482,-1.1482,-1.1504,-1.1536,-1.1536,-0.737,0.0,0.0,0.0,0.0,0.0,0.0,0.0,0.0,0.0,-0.0,-0.0718,-0.5025,-1.062,0.0,0.0,0.0,0.0,0.0,0.0,0.0,-1.9072,-1.9072,-1.9072,-1.8547,-1.7507,-1.6203,-1.4119,-1.2421,0.0,0.0,0.0,0.0,0.0,0.0,0.0,0.0,0.0,-0.9296,-0.9302,-0.9302,-0.9302,0.0,-0.9302,-0.9302,-0.9302,-0.9432,-0.9671,-0.9671,-0.9802,-1.0019,-1.0019,-1.0019,-1.0019,-1.0019,-1.0019,0.0,0.0,0.0,0.0,-1.0019,-1.0019,-1.0019,-1.0019,-1.0019,-1.0019,-1.0019,-1.0019,-1.003,-1.0095,-1.0155,-1.0231,-1.0351,-1.0471,-1.0568,-1.0634,-1.0693,-1.0737,-1.0737,-1.0786,-1.0851,-1.0905,-1.1014,-1.1123,-1.1183,-1.1188,-1.1188,-1.1188,-1.1188,-1.1188,-1.1188,-1.1243,-1.1308,-1.1362,-1.1368,-1.1389,-1.1449,-1.1455,-1.1455,-1.1455,-1.1455,-1.1455,-1.1455,-1.1455,-1.1455,-1.1455,-1.1455,-1.146,-1.1471,-1.1471,-1.1482,-1.1509,-1.1509,-0.9344,-0.5567,-0.5567,-0.3411,0.0,0.0,0.0,0.0,0.0,0.0,0.0,0.0,0.0,0.0,0.0,-0.2331,-0.5741,0.0,0.0,0.0,0.0,0.0,0.0,0.0,-1.9072,-1.9072,-1.9072,-1.9072,-1.8676,-1.7625,-1.4903,-1.3079,0.0,0.0,0.0,0.0,0.0,0.0,0.0,0.0,0.0,0.0,0.0,0.0,-0.9302,-0.9302,0.0,0.0,0.0,0.0,0.0,-0.9671,-0.9802,-1.0019,-1.0019,-1.0019,0.0,0.0,-1.0019,0.0,0.0,0.0,0.0,0.0,-1.0019,-1.0019,-1.0019,-1.0019,-1.0025,-1.0052,-1.0057,-1.0079,-1.0177,-1.0237,-1.0318,-1.0503,-1.0574,-1.0617,-1.0715,-1.0737,-1.0742,-1.077,-1.0851,-1.0933,-1.0987,-1.1145,-1.1281,-1.1308,-1.1313,-1.1313,-1.1313,-1.1313,-1.1313,-1.1313,-1.1395,-1.1455,-1.1455,-1.1455,-1.1455,-1.1455,-1.1455,-1.1455,-1.1455,-1.1455,-1.1455,-1.1455,-1.1455,-1.1455,-1.1455,-1.1455,-1.1465,-1.1482,-1.1482,-1.1498,-1.1536,-1.1536,-0.7549,0.0,0.0,0.0,0.0,0.0,0.0,0.0,0.0,0.0,0.0,0.0,0.0,0.0,0.0,0.0,-0.0358,0.0,0.0,0.0,0.0,0.0,0.0,0.0,-1.9072,-1.9072,-1.9072,-1.9072,-1.9072,-1.8944,-1.6333,-1.4128,0.0,0.0,0.0,0.0,0.0,0.0,0.0,0.0,0.0,0.0,0.0,0.0,-0.9302,-0.9302,0.0,0.0,0.0,0.0,0.0,0.0,-0.9802,-1.0019,-1.0019,0.0,0.0,0.0,0.0,0.0,0.0,0.0,0.0,0.0,-1.0019,-1.0019,-1.0019,-1.0019,-1.0041,-1.015,-1.0188,-1.0188,-1.0199,-1.0356,-1.0525,-1.0552,-1.0634,-1.0721,-1.0732,-1.0737,-1.0764,-1.0878,-1.0911,-1.0982,-1.1194,-1.1259,-1.1308,-1.1417,-1.1438,-1.1438,-1.1438,-1.1438,-1.1438,-1.1438,-1.1449,-1.1455,-1.1455,-1.1455,-1.1455,-1.1455,-1.1455,-1.1455,-1.1455,-1.1455,-1.1455,-1.1455,-1.1455,-1.1455,-1.1455,-1.1455,-1.1465,-1.1482,-1.1482,-1.1498,-1.1536,-1.1536,-0.7549,0.0,0.0,0.0,0.0,0.0,0.0,0.0,0.0,0.0,0.0,0.0,0.0,0.0,0.0,0.0,-0.0,0.0,0.0,0.0,0.0,0.0,0.0,-1.9072,-1.9072,-1.9072,-1.9072,-1.9072,-1.9072,-1.9072,-1.6602,-1.4651,-1.4128,0.0,0.0,0.0,0.0,0.0,0.0,0.0,0.0,0.0,0.0,-0.9302,-0.9302,-0.9302,0.0,0.0,0.0,0.0,0.0,0.0,-0.9802,-1.0019,-1.0019,0.0,0.0,0.0,0.0,0.0,0.0,0.0,0.0,0.0,0.0,-1.0019,-1.0019,-1.0068,-1.0139,-1.0188,-1.0302,-1.0416,-1.0416,-1.0481,-1.0568,-1.0645,-1.0699,-1.0737,-1.0737,-1.0737,-1.077,-1.0889,-1.0976,-1.1074,-1.1237,-1.133,-1.1395,-1.1449,-1.1455,-1.1455,-1.1455,-1.1455,-1.1455,-1.1455,-1.1455,-1.1455,-1.1455,-1.1455,-1.1455,-1.1455,-1.1455,-1.146,-1.1471,-1.1471,-1.1471,-1.1471,-1.1471,-1.1476,-1.1487,-1.1487,-1.1498,-1.1514,-1.1514,-0.9165,-0.4489,-0.4489,-0.3052,0.0,0.0,0.0,0.0,0.0,0.0,0.0,0.0,0.0,0.0,0.0,0.0,0.0,0.0,0.0,0.0,0.0,0.0,0.0,0.0,0.0,-1.9072,-1.9072,-1.9072,-1.9072,-1.9072,-1.9072,-1.9072,-1.9072,-1.6602,-1.4912,-1.4912,-1.2289,0.0,0.0,0.0,0.0,0.0,0.0,0.0,0.0,0.0,-0.9302,-0.9302,-0.9302,-0.9302,0.0,0.0,-0.9416,-0.9617,0.0,0.0,0.0,0.0,0.0,0.0,0.0,0.0,0.0,0.0,0.0,0.0,0.0,0.0,0.0,0.0,0.0,-1.021,-1.0248,-1.0394,-1.0558,-1.0558,-1.0579,-1.0628,-1.0715,-1.0737,-1.0737,-1.0737,-1.0764,-1.0824,-1.0949,-1.1069,-1.1188,-1.1302,-1.1395,-1.1455,-1.1455,-1.1455,-1.1455,-1.1455,-1.1455,-1.1455,-1.1455,-1.1455,-1.1455,-1.1455,-1.1455,-1.1455,-1.1455,-1.1455,-1.1465,-1.1482,-1.1476,-1.1482,-1.1498,-1.1493,-1.1493,-1.1504,-1.0416,-1.0426,-1.1536,-1.1536,-0.7552,0.0,0.0,0.0,0.0,0.0,0.0,0.0,0.0,0.0,0.0,0.0,0.0,0.0,0.0,0.0,0.0,0.0,0.0,0.0,0.0,0.0,0.0,0.0,0.0,0.0,-1.9072,-1.9072,-1.9072,-1.9072,-1.9072,-1.9072,-1.9072,-1.6602,-1.4912,-1.4912,-1.2289,0.0,0.0,0.0,0.0,0.0,0.0,0.0,0.0,0.0,-0.9302,-0.9302,-0.9302,-0.9302,-0.9302,-0.9302,-0.9372,-0.9492,0.0,0.0,0.0,0.0,0.0,0.0,0.0,0.0,0.0,0.0,0.0,0.0,0.0,0.0,0.0,0.0,0.0,0.0,0.0,-1.046,-1.0558,-1.0558,-1.0639,-1.0737,-1.0737,-1.0737,-1.0737,-1.0737,-1.0829,-1.0949,-1.1074,-1.1188,-1.1302,-1.1427,-1.1455,-1.1455,-1.1455,-1.1455,-1.1455,-1.1455,-1.1455,-1.1455,-1.1455,-1.1455,-1.1455,-1.1455,-1.1455,-1.1455,-1.1455,-1.1455,-1.1465,-1.1482,-1.1465,0.0,-1.1536,-1.152,-1.1504,-1.1482,-0.7699,-0.7531,-1.1536,-1.1536,-0.7552,0.0,0.0,0.0,0.0,0.0,0.0,0.0,0.0,0.0,0.0,0.0,0.0,0.0,0.0,0.0,0.0,0.0,0.0,0.0,0.0,0.0,0.0,0.0,0.0,0.0,0.0,-1.9072,-1.9072,-1.9072,-1.9072,-1.9072,-1.9072,-1.6602,-1.4912,-1.4912,-1.2289,0.0,0.0,0.0,0.0,0.0,0.0,0.0,0.0,0.0,-0.9302,-0.9302,-0.9302,-0.9302,-0.9302,-0.9302,-0.9372,-0.9492,-0.9617,-0.9731,0.0,0.0,0.0,0.0,0.0,0.0,0.0,0.0,0.0,0.0,0.0,0.0,0.0,0.0,0.0,0.0,0.0,0.0,0.0,-1.0677,-1.0704,-1.0737,-1.0737,-1.0737,-1.0737,-1.0737,-1.0829,-1.0954,-1.1074,-1.1188,-1.1308,-1.1427,-1.1455,-1.1455,-1.1455,-1.1455,-1.1455,-1.1455,-1.1455,-1.1455,-1.1455,-1.1455,-1.1455,-1.1455,-1.1455,-1.146,-1.1471,-1.1476,-1.1487,-1.152,-1.1514,-1.152,-1.1536,-1.1547,-0.8999,-0.3764,-0.251,-0.2332,-0.359,-0.359,-0.2334,0.0,0.0,0.0,0.0,0.0,0.0,0.0,0.0,0.0,0.0,0.0,0.0,0.0,0.0,0.0,0.0,0.0,0.0,0.0,0.0,0.0,0.0,0.0,0.0,0.0,0.0,-1.9072,-1.9072,-1.9072,-1.9072,-1.8944,-1.8419,-1.6203,-1.4651,-1.4128,-1.2033,0.0,0.0,0.0,0.0,0.0,0.0,0.0,0.0,-0.9325,-0.9302,-0.9302,-0.9302,-0.9302,-0.9302,-0.9302,-0.9345,-0.9427,-0.9595,-0.9709,0.0,0.0,0.0,0.0,0.0,0.0,-1.0019,0.0,0.0,0.0,0.0,0.0,0.0,0.0,0.0,0.0,0.0,0.0,0.0,0.0,-1.0737,-1.0737,-1.0737,-1.0737,-1.0737,-1.0737,-1.0862,-1.1009,-1.1085,-1.1226,-1.1362,-1.1438,-1.1455,-1.1455,-1.1455,-1.1455,-1.1455,-1.1455,-1.1455,-1.1455,-1.1455,-1.1455,-1.146,-1.1465,-1.1465,-1.1471,-1.1493,-1.1487,-1.1498,-1.1536,-1.0073,-0.9894,-1.1368,-1.1552,-0.937,-0.4493,-0.1436,0.0,0.0,0.0,0.0,0.0,0.0,0.0,0.0,0.0,0.0,0.0,0.0,0.0,0.0,0.0,0.0,0.0,0.0,0.0,0.0,0.0,0.0,0.0,0.0,0.0,0.0,0.0,0.0,0.0,0.0,-1.9072,-1.9072,-1.9072,-1.9072,-1.8547,-1.7109,-1.5684,-1.4381,-1.2947,0.0,0.0,0.0,0.0,0.0,0.0,0.0,0.0,-0.9642,-0.9467,-0.9302,-0.9302,-0.9302,-0.9302,-0.9302,-0.9302,-0.9302,-0.9313,-0.9557,-0.9682,0.0,0.0,0.0,0.0,-1.0019,-1.0019,0.0,0.0,0.0,0.0,0.0,0.0,0.0,0.0,0.0,0.0,0.0,0.0,0.0,0.0,0.0,0.0,0.0,-1.0737,-1.0737,-1.0748,-1.0927,-1.1107,-1.1112,-1.1291,0.0,-1.1455,-1.1455,-1.1455,-1.1455,-1.1455,-1.1455,-1.1455,-1.1455,-1.1455,-1.1455,-1.1455,-1.146,-1.1476,-1.1482,-1.1487,-1.1509,-1.1498,-1.132,-1.0804,-0.7356,-0.6819,-1.0471,-1.1183,-1.1188,-1.0665,-0.3777,0.0,0.0,0.0,0.0,0.0,0.0,0.0,0.0,0.0,0.0,0.0,0.0,0.0,0.0,0.0,0.0,0.0,0.0,0.0,0.0,0.0,0.0,0.0,0.0,0.0,0.0,0.0,0.0,0.0,0.0,0.0,0.0,0.0,-1.9072,-1.8547,-1.7109,-1.5684,-1.4381,0.0,0.0,0.0,0.0,0.0,0.0,0.0,0.0,0.0,-1.0335,-0.9894,-0.9735,-0.9735,-0.9446,-0.9302,-0.9302,-0.9302,-0.9302,-0.9313,-0.9557,-0.9769,0.0,0.0,0.0,0.0,-1.0019,-1.0019,0.0,0.0,0.0,0.0,-1.0019,-1.0019,0.0,0.0,0.0,0.0,0.0,0.0,0.0,0.0,-1.0737,-1.0737,-1.0737,0.0,-1.0759,-1.0851,-1.0992,-1.1123,0.0,-1.1346,-1.1455,-1.1455,-1.1455,-1.1455,-1.1455,-1.1455,-1.1455,-1.1455,-1.1455,-1.1455,-1.1455,-1.1455,-1.1455,-1.146,-1.1476,-1.1487,-1.1509,-1.152,-0.899,-0.3231,-0.1794,-0.1795,-0.2694,-0.8285,-0.8861,-0.2908,-0.0908,0.0,0.0,0.0,0.0,0.0,0.0,0.0,0.0,0.0,0.0,0.0,0.0,0.0,0.0,0.0,0.0,0.0,0.0,0.0,0.0,0.0,0.0,0.0,0.0,0.0,0.0,0.0,0.0,0.0,0.0,0.0,0.0,0.0,0.0,-1.7636,-1.6203,-1.4772,0.0,0.0,0.0,0.0,0.0,0.0,0.0,0.0,0.0,-1.0612,-1.0612,-1.0315,-1.0023,-0.9879,-0.9735,-0.9446,-0.9302,-0.9302,-0.9302,-0.9313,-0.9557,-0.9802,0.0,0.0,0.0,0.0,-1.0019,0.0,0.0,0.0,0.0,0.0,-1.0019,-1.0019,0.0,-1.0302,-1.0384,-1.0427,0.0,0.0,0.0,0.0,-1.0737,-1.0737,-1.0737,-1.0737,-1.0764,-1.0889,-1.1014,-1.1134,-1.1248,-1.1368,-1.1455,-1.1455,-1.1455,-1.1455,-1.1455,-1.1455,-1.1455,-1.1455,-1.1455,-1.1455,-1.1455,-1.146,-1.1471,-1.1482,-1.1487,-1.0054,0.0,-0.9353,-0.8273,-0.0539,0.0,0.0,0.0,-0.3971,-0.4355,-0.0182,0.0,0.0,0.0,0.0,0.0,0.0,0.0,0.0,0.0,0.0,0.0,0.0,0.0,0.0,0.0,0.0,0.0,0.0,0.0,0.0,0.0,0.0,0.0,0.0,0.0,0.0,0.0,0.0,0.0,0.0,0.0,0.0,0.0,0.0,0.0,0.0,0.0,0.0,0.0,0.0,0.0,0.0,0.0,0.0,0.0,0.0,-1.0743,-1.0757,-1.0783,-1.0611,-1.0311,-1.0023,-0.9879,-0.959,-0.9302,-0.9302,-0.9323,-0.9372,-0.9595,-0.9818,0.0,0.0,0.0,0.0,-1.0019,0.0,0.0,0.0,0.0,0.0,0.0,0.0,0.0,-1.0324,-1.04,-1.0427,-1.0661,0.0,0.0,0.0,0.0,0.0,-1.0737,-1.0737,-1.077,-1.0911,-1.1025,-1.1139,-1.127,-1.1378,-1.1455,-1.1455,-1.1455,-1.1455,-1.1455,-1.1455,-1.1455,-1.1455,-1.1455,-1.1455,-1.146,-1.1471,-1.1487,-1.1509,-1.1514,0.0,-0.2333,-0.6649,-0.7011,-0.0539,0.0,0.0,0.0,0.0,0.0,0.0,0.0,0.0,0.0,0.0,0.0,0.0,0.0,0.0,0.0,0.0,0.0,0.0,0.0,0.0,0.0,0.0,0.0,0.0,0.0,0.0,0.0,0.0,0.0,0.0,0.0,0.0,0.0,0.0,0.0,0.0,0.0,0.0,0.0,0.0,0.0,0.0,0.0,0.0,0.0,0.0,0.0,0.0,0.0,0.0,0.0,-1.0907,-1.107,-1.1226,-1.1214,-1.0805,-1.0455,-1.0455,-0.9735,-0.9302,-0.9302,-0.9302,-0.9416,-0.9617,-0.9753,-0.9889,-1.0019,0.0,0.0,-1.0019,-1.0019,0.0,0.0,0.0,0.0,0.0,0.0,0.0,0.0,-1.0416,-1.0465,-1.0427,-1.0661,0.0,0.0,0.0,0.0,0.0,-1.0737,-1.0737,-1.0791,-1.102,-1.109,-1.1161,-1.1378,-1.1438,-1.1455,-1.1455,-1.1455,-1.1455,-1.1455,-1.1455,-1.1455,-1.1455,-1.1455,-1.146,-1.1476,-1.1482,-1.1487,-1.1509,0.0,-1.0988,-0.9904,-0.4848,-0.1257,-0.0,0.0,0.0,0.0,0.0,0.0,0.0,0.0,0.0,0.0,0.0,0.0,0.0,0.0,0.0,0.0,0.0,0.0,0.0,0.0,0.0,0.0,0.0,0.0,0.0,0.0,0.0,0.0,0.0,0.0,0.0,0.0,0.0,0.0,0.0,0.0,0.0,0.0,0.0,0.0,0.0,0.0,0.0,0.0,0.0,0.0,0.0,0.0,0.0,0.0,0.0,-1.0907,-1.1056,-1.1206,-1.1321,-1.1389,-1.1252,-1.0887,-1.0455,-1.0167,-0.9735,-0.9307,-0.9372,-0.9497,-0.9677,-0.9786,-0.9905,-1.0019,-1.0019,-1.0019,-1.0019,0.0,0.0,0.0,0.0,0.0,0.0,0.0,0.0,0.0,0.0,-1.0481,-1.0427,-1.0661,0.0,0.0,0.0,0.0,0.0,-1.0737,-1.0737,-1.078,-1.096,-1.1003,-1.1069,-1.1302,-1.1357,-1.1373,-1.1438,-1.1455,-1.1455,-1.1455,-1.1455,-1.1455,-1.1455,-1.1455,-1.146,-1.1482,-1.1482,-1.1493,0.0,0.0,-0.9904,-0.5747,-0.2154,0.0,0.0,0.0,0.0,0.0,0.0,0.0,0.0,0.0,0.0,0.0,0.0,0.0,0.0,0.0,0.0,0.0,0.0,0.0,0.0,0.0,0.0,0.0,0.0,0.0,0.0,0.0,0.0,0.0,0.0,0.0,0.0,0.0,0.0,0.0,0.0,0.0,0.0,0.0,0.0,0.0,0.0,0.0,0.0,0.0,0.0,0.0,0.0,0.0,0.0,0.0,-1.0867,-1.1016,-1.1158,-1.1307,-1.1409,-1.1443,-1.1415,-1.1181,-1.0455,-1.0455,-1.0041,-0.9351,-0.947,-0.9595,-0.9715,-0.9829,-0.9932,-1.0019,-1.0019,-1.0019,-1.0019,0.0,0.0,0.0,0.0,0.0,0.0,0.0,0.0,0.0,0.0,0.0,0.0,0.0,0.0,0.0,-1.0737,-1.0737,-1.0737,-1.0737,-1.0737,-1.0759,-1.0851,-1.09,-1.0982,-1.1221,-1.127,-1.1308,0.0,0.0,-1.1455,-1.1455,-1.1455,-1.1455,-1.1455,-1.1455,-1.1465,-1.1487,-1.0763,-0.9866,-0.899,-0.8815,-0.647,-0.0539,0.0,0.0,0.0,0.0,0.0,0.0,0.0,0.0,0.0,0.0,0.0,0.0,0.0,0.0,0.0,0.0,0.0,0.0,0.0,0.0,0.0,0.0,0.0,0.0,0.0,0.0,0.0,0.0,0.0,0.0,0.0,0.0,0.0,0.0,0.0,0.0,0.0,0.0,0.0,0.0,0.0,0.0,0.0,0.0,0.0,0.0,0.0,0.0,0.0,0.0,0.0,0.0,-1.0867,-1.1016,-1.1158,-1.1307,-1.1457,-1.1599,-1.1181,-1.0894,-1.0455,-1.0167,-0.9797,-0.9476,-0.9601,-0.9715,-0.9829,-0.9954,-1.0014,-1.0019,-1.0019,-1.0019,-1.0019,-1.0019,0.0,0.0,0.0,0.0,0.0,0.0,0.0,0.0,0.0,0.0,0.0,0.0,0.0,-1.0737,-1.0737,-1.0737,-1.0737,-1.0737,-1.0737,-1.0737,-1.0748,-1.0835,-1.0982,-1.1221,-1.127,0.0,-1.1427,0.0,0.0,0.0,-1.1455,-1.1455,-1.1455,-1.1455,-1.1465,-1.1504,0.0,-0.4836,-0.1256,-0.0898,-0.0539,-0.0,0.0,0.0,0.0,0.0,0.0,0.0,0.0,0.0,0.0,0.0,0.0,0.0,0.0,0.0,0.0,0.0,0.0,0.0,0.0,0.0,0.0,0.0,0.0,0.0,0.0,0.0,0.0,0.0,0.0,0.0,0.0,0.0,0.0,0.0,0.0,0.0,0.0,0.0,0.0,0.0,0.0,0.0,0.0,0.0,0.0,0.0,0.0,0.0,0.0,0.0,0.0,0.0,-1.0948,-1.1104,-1.1158,-1.1402,-1.1415,-1.1188,-1.1044,-1.0894,-1.0455,-0.9879,-0.9512,-0.9492,-0.9612,-0.9731,-0.9845,-0.9965,-1.0019,-1.0019,-1.0019,-1.0019,-1.0019,-1.0019,-1.0019,0.0,0.0,0.0,0.0,0.0,0.0,0.0,0.0,-1.0525,-1.052,-1.0683,-1.0737,-1.0737,-1.0737,-1.0737,-1.0737,-1.0737,-1.0742,-1.0748,-1.0737,-1.078,0.0,0.0,-1.1166,-1.1221,-1.1417,-1.1455,0.0,0.0,0.0,-1.1455,-1.1455,-1.1455,-1.1465,-1.1504,-0.8067,-0.4297,-0.0538,0.0,0.0,0.0,0.0,0.0,0.0,0.0,0.0,0.0,0.0,0.0,0.0,0.0,0.0,0.0,0.0,0.0,0.0,0.0,0.0,0.0,0.0,0.0,0.0,0.0,0.0,0.0,0.0,0.0,0.0,0.0,0.0,0.0,0.0,0.0,0.0,0.0,0.0,0.0,0.0,0.0,0.0,0.0,0.0,0.0,0.0,0.0,0.0,0.0,0.0,0.0,0.0,0.0,0.0,-1.0792,-1.1023,-1.1185,-1.1233,-1.1484,-1.1476,-1.1044,-1.0894,-1.0606,-1.0311,-0.963,-0.9427,-0.9546,-0.9666,-0.9786,-0.99,-0.9981,-1.0019,-1.0019,-1.0019,-1.0019,-1.0019,-1.0019,-1.0041,0.0,0.0,0.0,0.0,0.0,0.0,0.0,0.0,-1.0525,-1.0574,-1.0699,-1.0737,-1.0737,-1.0737,-1.0742,-1.0742,-1.0742,-1.0753,-1.0425,-0.923,0.0,0.0,-1.1052,-1.1107,-1.1172,-1.1406,-1.1455,-1.1455,-1.1455,0.0,0.0,0.0,-1.146,-1.1476,-1.1504,-0.9156,-0.5736,-0.0538,0.0,0.0,0.0,0.0,0.0,0.0,0.0,0.0,0.0,0.0,0.0,0.0,0.0,0.0,0.0,0.0,0.0,0.0,0.0,0.0,0.0,0.0,0.0,0.0,0.0,0.0,0.0,0.0,0.0,0.0,0.0,0.0,0.0,0.0,0.0,0.0,0.0,0.0,0.0,0.0,0.0,0.0,0.0,0.0,0.0,0.0,0.0,0.0,0.0,0.0,0.0,0.0,0.0,0.0,-1.0941,-1.1084,-1.1233,-1.1382,-1.1538,-1.1476,-1.1044,-1.0599,-1.0311,-0.9879,-0.9573,-0.9552,-0.9671,-0.9786,-0.9905,-1.0019,-1.0019,-1.0019,-1.0019,-1.0019,-1.0019,-1.0019,-1.0019,-1.0095,-1.0204,0.0,0.0,0.0,0.0,0.0,0.0,0.0,-1.0465,-1.0579,-1.0699,-1.0737,-1.0737,-1.0737,-1.0748,-1.0764,-1.0764,-1.0597,-0.9751,-0.6379,0.0,0.0,-1.0886,-1.1107,-1.1166,-1.1406,-1.1455,-1.1455,-1.1455,-1.1455,0.0,-1.1455,-1.1471,-1.1487,-1.1509,-1.1525,-0.8636,-0.0897,0.0,0.0,0.0,0.0,0.0,0.0,0.0,0.0,0.0,0.0,0.0,0.0,0.0,0.0,0.0,0.0,0.0,0.0,0.0,0.0,0.0,0.0,0.0,0.0,0.0,0.0,0.0,0.0,0.0,0.0,0.0,0.0,0.0,0.0,0.0,0.0,0.0,0.0,0.0,0.0,0.0,0.0,0.0,0.0,0.0,0.0,0.0,0.0,0.0,0.0,0.0,0.0,0.0,0.0,-1.0941,-1.1185,-1.1341,-1.1389,-1.1252,-1.1038,-1.0599,-1.0023,-0.959,-0.9446,-0.9427,-0.9552,-0.9671,-0.9786,-0.9905,-1.0019,-1.0019,-1.0019,-1.0019,-1.0019,-1.0068,-1.015,-1.015,-1.0221,-1.0329,0.0,0.0,0.0,0.0,0.0,0.0,0.0,0.0,0.0,-1.0726,-1.0737,-1.0737,-1.0737,-1.0742,-1.0742,-1.0742,-0.8896,-0.7387,-0.8738,-0.9993,-1.096,0.0,-1.1047,0.0,0.0,-1.1411,-1.1476,-1.1476,-1.1476,0.0,-1.146,-1.1471,-1.058,-0.7885,-0.9711,-0.8636,-0.0897,0.0,0.0,0.0,0.0,0.0,0.0,0.0,0.0,0.0,0.0,0.0,0.0,0.0,0.0,0.0,0.0,0.0,0.0,0.0,0.0,0.0,0.0,0.0,0.0,0.0,0.0,0.0,0.0,0.0,0.0,0.0,0.0,0.0,0.0,0.0,0.0,0.0,0.0,0.0,0.0,0.0,0.0,0.0,0.0,0.0,0.0,-1.8547,-1.7636,0.0,0.0,0.0,0.0,0.0,0.0,0.0,-1.126,-1.1416,-1.1477,-1.1142,-1.075,-1.0311,-0.959,-0.9329,-0.9378,-0.9497,-0.9622,-0.9737,-0.9856,-0.9949,-1.0019,-1.0019,-1.0019,-1.0025,-1.0074,-1.0134,-1.0204,-1.0204,-1.0275,-1.0378,0.0,0.0,0.0,0.0,0.0,0.0,0.0,0.0,0.0,-1.0737,-1.0737,-1.0737,-1.0742,-1.0753,-1.0759,-1.077,-0.9086,-0.7741,-0.8416,-0.8662,-0.9108,-1.0767,-1.1134,0.0,0.0,-1.1427,-1.1482,-1.1471,-1.1476,0.0,-1.1465,-1.1482,-1.0595,-0.8254,-0.7363,-0.5209,-0.0539,0.0,0.0,0.0,0.0,0.0,0.0,0.0,0.0,0.0,0.0,0.0,0.0,0.0,0.0,0.0,0.0,0.0,0.0,0.0,0.0,0.0,0.0,0.0,0.0,0.0,0.0,0.0,0.0,0.0,0.0,0.0,0.0,0.0,0.0,0.0,0.0,0.0,0.0,-1.3079,-1.4651,0.0,0.0,0.0,0.0,0.0,0.0,-1.7765,-1.685,0.0,0.0,0.0,0.0,0.0,0.0,0.0,-1.1328,-1.147,-1.1469,-1.1188,-1.0606,-0.9879,-0.9457,-0.9383,-0.9503,-0.9617,-0.9726,-0.984,-0.9965,-1.0019,-1.0019,-1.0019,-1.0019,-1.003,-1.015,-1.0204,-1.0204,-1.0215,-1.0286,-1.0373,-1.0264,0.0,0.0,0.0,0.0,0.0,0.0,0.0,0.0,-1.0737,-1.0737,-1.0737,-1.0759,-1.0775,-1.0624,-1.064,-1.0651,-0.9973,-0.6758,-0.5442,-0.601,-1.0106,-1.0972,-1.1094,-1.1444,0.0,-1.1482,-1.146,-1.1471,-1.1482,-1.1482,-1.1136,-1.1152,-1.1536,-0.485,0.0,0.0,0.0,0.0,0.0,0.0,0.0,0.0,0.0,0.0,0.0,0.0,0.0,0.0,0.0,-0.0382,-0.1145,-0.0382,0.0,0.0,0.0,0.0,0.0,0.0,0.0,0.0,0.0,0.0,0.0,0.0,0.0,0.0,0.0,0.0,0.0,0.0,0.0,0.0,0.0,0.0,-1.1901,-1.4511,0.0,0.0,0.0,0.0,0.0,0.0,0.0,0.0,0.0,0.0,0.0,0.0,0.0,0.0,0.0,-1.1484,-1.1442,-1.1188,-1.0462,-0.9879,-0.9446,-0.94,-0.9508,-0.9628,-0.9655,-0.9726,-0.984,-0.9965,-1.0019,-1.0019,-1.0019,-1.0019,-1.003,-1.015,-1.0204,-1.021,-1.0307,-1.0362,-1.0384,-1.0356,-1.0362,0.0,0.0,0.0,0.0,0.0,0.0,0.0,-1.0737,-1.0737,-1.0737,-1.0742,-1.0753,-1.077,-1.0775,-1.0629,-1.0504,-0.9739,-0.5362,-0.2985,-0.9623,-0.8943,-0.7681,-1.0656,-1.1433,-1.1498,-1.1482,-1.1482,-1.1482,-1.1482,-0.896,-0.8071,-1.0988,-0.485,0.0,0.0,0.0,0.0,0.0,0.0,0.0,0.0,0.0,0.0,0.0,0.0,0.0,0.0,0.0,-0.3052,-0.9556,-0.3243,0.0,0.0,0.0,0.0,0.0,0.0,0.0,0.0,0.0,0.0,0.0,0.0,0.0,0.0,0.0,0.0,0.0,0.0,0.0,0.0,0.0,0.0,0.0,0.0,0.0,0.0,0.0,0.0,0.0,0.0,0.0,0.0,0.0,0.0,0.0,0.0,0.0,0.0,0.0,0.0,-1.1044,-1.0462,-1.0167,-0.9735,-0.9302,-0.9421,-0.9546,-0.9671,-0.9726,-0.9807,-0.9927,-0.9992,-1.0019,-1.0019,-1.0019,-1.0019,-1.003,-1.015,-1.0204,-1.0215,-1.0335,-1.0384,-1.0384,-1.0384,-1.0422,-1.0476,-1.0536,0.0,0.0,0.0,0.0,0.0,0.0,0.0,-1.0737,-1.0748,-1.0759,-0.9928,-0.6589,-0.5592,-0.562,-0.5542,-0.2803,-0.1062,-0.4836,-0.5744,-0.627,-0.8199,-1.003,-1.1514,-1.1498,-1.1504,-1.1509,-1.1509,-0.988,-0.79,-0.6287,-0.2513,0.0,0.0,0.0,0.0,0.0,0.0,0.0,0.0,0.0,0.0,0.0,0.0,0.0,0.0,0.0,-0.4009,-1.208,-0.8035,-0.5924,-0.5916,-0.5916,-0.3796,0.0,0.0,0.0,0.0,0.0,0.0,0.0,0.0,0.0,0.0,0.0,0.0,0.0,0.0,0.0,0.0,0.0,0.0,0.0,0.0,0.0,0.0,0.0,0.0,0.0,0.0,0.0,0.0,0.0,0.0,0.0,0.0,0.0,0.0,0.0,0.0,0.0,-0.9879,-0.9879,-0.9602,-0.9334,-0.9454,-0.9579,-0.9699,-0.9813,-0.9921,-1.0019,-1.0019,-1.0019,-1.0019,-1.0019,-1.0019,-1.003,-1.015,-1.0204,-1.0215,-1.0335,-1.0384,-1.0389,-1.0405,-1.0476,-1.0558,-1.0579,-1.065,-1.0737,-1.0737,0.0,0.0,0.0,0.0,-1.0742,-1.078,-1.0791,-0.9464,-0.3583,-0.1029,0.0,0.0,0.0,0.0,0.0,-0.2515,-0.4673,-0.4666,-0.7366,-0.9711,-1.0421,-1.0431,-1.0804,-1.1357,-1.1536,-0.8815,-0.1077,0.0,0.0,0.0,0.0,0.0,0.0,0.0,0.0,0.0,0.0,0.0,0.0,0.0,0.0,0.0,-0.1334,-0.4965,-1.1126,-1.1121,-1.1508,-1.2281,-1.2259,-0.7931,0.0,0.0,0.0,0.0,0.0,0.0,0.0,0.0,0.0,0.0,0.0,0.0,0.0,0.0,0.0,0.0,0.0,0.0,0.0,0.0,0.0,0.0,0.0,0.0,0.0,0.0,-1.3079,-1.2351,0.0,-1.0934,-1.105,-1.1307,-1.1369,-1.1308,-1.1005,0.0,0.0,-0.9879,-0.959,-0.9351,-0.9459,-0.9584,-0.9699,-0.9813,-0.9938,-1.0003,0.0,0.0,-1.0019,-1.0019,-1.0019,-1.0019,-1.003,-1.015,-1.0204,-1.0215,-1.0335,-1.0384,-1.04,-1.0492,-1.0541,-1.0568,-1.0677,-1.0721,-1.0737,-1.0737,-1.0737,0.0,0.0,0.0,-1.0759,-1.0867,-1.0911,-1.0779,-0.9855,-0.4879,0.0,0.0,0.0,0.0,0.0,-0.0359,-0.0718,-0.0718,-0.1255,-0.2507,-0.5909,-0.6445,-0.7531,-1.0988,-1.1536,-0.8815,-0.1077,0.0,0.0,0.0,0.0,0.0,0.0,0.0,0.0,0.0,0.0,0.0,0.0,0.0,0.0,0.0,-0.6844,-0.9361,-0.6865,-0.6856,-0.8766,-1.2237,-1.2232,-0.7921,0.0,0.0,0.0,0.0,0.0,0.0,0.0,0.0,0.0,0.0,0.0,0.0,0.0,0.0,0.0,0.0,0.0,0.0,0.0,0.0,0.0,0.0,0.0,0.0,0.0,0.0,0.0,-1.1574,-1.105,-1.1145,-1.1246,-1.1382,-1.147,-1.1259,-1.0743,-1.0455,-1.0023,-0.959,-0.9512,-0.9432,-0.9487,-0.9671,-0.9786,-0.9835,-0.996,0.0,0.0,-1.0019,-1.0019,0.0,0.0,-1.0019,-1.003,-1.015,-1.0204,-1.0221,-1.0405,-1.0481,-1.0492,-1.0612,-1.0655,-1.0666,-1.0715,0.0,0.0,0.0,-1.0737,-1.0748,-1.0819,0.0,0.0,0.0,-1.1031,-1.1063,-1.1025,-0.5646,0.0,0.0,0.0,0.0,0.0,0.0,0.0,0.0,0.0,-0.0538,-0.215,-0.2509,-0.3047,-0.4848,-0.5029,-0.3949,-0.0539,0.0,0.0,0.0,0.0,0.0,0.0,0.0,0.0,0.0,0.0,0.0,0.0,0.0,-0.2047,-0.6782,-1.028,-1.1287,-0.9551,-0.7236,-0.8182,-1.221,-1.2232,-1.0395,-0.6657,-0.2034,0.0,0.0,0.0,0.0,0.0,0.0,0.0,0.0,0.0,0.0,0.0,0.0,0.0,0.0,0.0,0.0,0.0,0.0,0.0,0.0,0.0,0.0,0.0,0.0,0.0,-1.1056,-1.1206,0.0,0.0,0.0,-1.1552,-1.1325,-1.0599,-1.0311,-0.9891,-0.9351,-0.9438,-0.9514,-0.9574,-0.9748,-0.9851,-0.9883,0.0,0.0,-1.0019,-1.0019,-1.0019,0.0,-1.0019,-1.0036,0.0,0.0,0.0,0.0,-1.0487,-1.0574,-1.0612,-1.0704,-1.0737,-1.0737,-1.0737,0.0,0.0,0.0,0.0,0.0,-1.0927,-1.0965,0.0,0.0,0.0,-1.1215,-1.1154,-0.6589,-0.1611,-0.0359,0.0,0.0,0.0,0.0,0.0,0.0,0.0,0.0,0.0,0.0,0.0,0.0,0.0,0.0,0.0,0.0,0.0,0.0,0.0,0.0,0.0,0.0,0.0,0.0,0.0,0.0,0.0,0.0,-0.3348,-1.0352,-1.0645,-1.1092,-1.2254,-0.9146,-0.9134,-1.2194,-1.2227,-1.1731,-1.0562,-0.5369,-0.2014,0.0,0.0,0.0,0.0,0.0,0.0,0.0,0.0,0.0,0.0,0.0,0.0,0.0,0.0,0.0,0.0,0.0,0.0,0.0,0.0,0.0,0.0,0.0,0.0,-1.1212,-1.1362,-1.1389,-1.145,-1.1592,-1.1613,-1.1325,-1.0599,-0.9735,-0.9356,-0.947,-0.9487,0.0,-0.9813,-0.9829,-0.9894,-1.0008,0.0,0.0,-1.0019,-1.0019,-1.0019,-1.0019,-1.0019,-1.0085,-1.0193,0.0,0.0,0.0,0.0,-1.0623,-1.0726,0.0,0.0,0.0,0.0,0.0,0.0,0.0,0.0,0.0,0.0,0.0,-1.1118,0.0,0.0,0.0,-1.1465,-0.9308,-0.6076,-0.1253,0.0,0.0,0.0,0.0,0.0,0.0,0.0,0.0,0.0,0.0,0.0,0.0,0.0,0.0,0.0,0.0,0.0,0.0,0.0,0.0,0.0,0.0,0.0,0.0,0.0,0.0,0.0,0.0,-0.2039,-0.6314,-0.6412,-0.8193,-1.2254,-1.2026,-1.1999,-1.2172,-1.2194,-1.0179,-0.6466,-1.0018,-0.7333,0.0,0.0,0.0,0.0,0.0,0.0,0.0,0.0,0.0,0.0,0.0,0.0,0.0,0.0,0.0,0.0,0.0,0.0,0.0,0.0,0.0,0.0,0.0,0.0,0.0,0.0,-1.1252,-1.1129,-1.1181,-1.1038,-1.0643,-1.0292,-1.0006,-0.977,-0.9601,-0.9671,-0.9753,-0.9835,-0.9916,-0.9976,0.0,0.0,-1.0019,-1.0019,-1.0019,-1.0019,-1.0025,-1.0101,-1.0161,-1.0215,-1.0367,0.0,0.0,0.0,0.0,0.0,0.0,0.0,0.0,0.0,0.0,0.0,0.0,0.0,0.0,0.0,0.0,0.0,0.0,-1.1422,-1.146,-1.1476,-1.0758,-0.9674,-0.7889,-0.3582,0.0,0.0,0.0,0.0,0.0,0.0,0.0,0.0,0.0,0.0,0.0,0.0,0.0,0.0,0.0,0.0,0.0,0.0,0.0,0.0,0.0,0.0,0.0,0.0,0.0,0.0,0.0,-0.184,-0.5935,-0.6182,-0.8127,-1.2199,-1.2188,-1.2178,-1.2172,-1.2188,-0.9987,-0.6279,-1.0392,-0.7703,0.0,0.0,0.0,0.0,0.0,0.0,0.0,0.0,0.0,0.0,0.0,0.0,0.0,0.0,0.0,0.0,0.0,0.0,0.0,0.0,0.0,0.0,0.0,0.0,0.0,0.0,0.0,-1.0768,-1.0819,-1.0529,-1.0292,-1.0127,-0.9991,-0.9899,-0.972,-0.9796,-0.9856,-0.99,-0.9976,-1.0019,0.0,0.0,0.0,0.0,-1.0019,-1.0041,-1.0085,-1.021,-1.0264,0.0,0.0,0.0,-1.0623,0.0,0.0,-1.0737,0.0,0.0,0.0,0.0,0.0,0.0,0.0,0.0,0.0,0.0,0.0,0.0,0.0,0.0,-1.146,-1.1471,-1.1471,-1.1476,-1.1498,-0.7706,-0.3222,-0.0537,0.0,0.0,0.0,0.0,0.0,0.0,0.0,0.0,0.0,0.0,0.0,0.0,0.0,0.0,0.0,0.0,0.0,0.0,0.0,0.0,0.0,0.0,0.0,0.0,0.0,-0.1835,-0.5954,-0.7507,-0.9449,-1.2172,-1.2172,-1.2172,-1.2172,-1.2188,-1.0746,-0.8128,-0.8147,-0.5125,0.0,0.0,0.0,0.0,0.0,0.0,0.0,0.0,0.0,0.0,0.0,0.0,0.0,0.0,0.0,0.0,0.0,0.0,0.0,0.0,0.0,0.0,-1.1025,0.0,0.0,0.0,0.0,0.0,-1.0504,-1.0222,-1.0133,-1.011,-0.9822,-0.9726,-0.9835,-0.9845,-0.99,-1.0019,-1.0019,-1.0019,-1.0019,-1.0019,-1.0019,-1.0025,0.0,-1.009,-1.0215,-1.0335,-1.0394,-1.04,0.0,-1.0628,-1.0737,0.0,-1.0737,-1.0737,0.0,0.0,0.0,-1.0742,-1.0819,0.0,-1.1063,0.0,0.0,0.0,0.0,0.0,0.0,0.0,0.0,0.0,0.0,0.0,-1.1476,-1.1482,-0.95,-0.1969,-0.0179,-0.0179,-0.0,0.0,0.0,0.0,0.0,0.0,0.0,0.0,0.0,0.0,0.0,0.0,0.0,0.0,0.0,0.0,0.0,0.0,0.0,0.0,0.0,0.0,-0.0181,-0.2022,-0.5987,-1.0045,-1.2205,-1.2172,-1.2172,-1.2172,-1.2172,-1.2188,-1.2074,-1.1662,-0.3877,-0.0183,0.0,0.0,0.0,0.0,0.0,0.0,0.0,0.0,0.0,0.0,0.0,0.0,0.0,0.0,0.0,0.0,0.0,0.0,0.0,-1.0681,-1.0687,-1.0556,0.0,0.0,0.0,-1.059,-1.0399,-1.0173,-0.9916,-0.9916,-0.9816,-0.9932,-0.9791,-0.9845,-0.9965,-0.997,-0.9987,-1.0019,-1.0019,-1.0019,-1.0019,-1.0019,-1.0063,-1.015,-1.015,-1.0221,-1.034,-1.0454,-1.0509,-1.0514,-1.0634,0.0,-1.0737,-1.0737,-1.0737,0.0,0.0,0.0,0.0,0.0,-1.0905,-1.0949,0.0,-1.1248,-1.1291,0.0,0.0,0.0,0.0,0.0,0.0,-1.1455,0.0,0.0,0.0,0.0,0.0,-0.8778,-0.6085,-0.3401,-0.0538,0.0,0.0,0.0,0.0,0.0,0.0,0.0,0.0,0.0,0.0,0.0,0.0,0.0,0.0,0.0,0.0,0.0,0.0,0.0,0.0,0.0,-0.5261,-0.7706,-0.6117,-0.9937,-1.2107,-1.2172,-1.2172,-1.2172,-1.2172,-1.2085,-1.2173,-1.2052,-0.9556,-0.5447,0.0,0.0,0.0,0.0,0.0,0.0,0.0,0.0,0.0,0.0,0.0,0.0,0.0,0.0,0.0,-1.0455,-1.0455,0.0,-1.0455,-1.0455,-1.0311,-1.0329,0.0,0.0,0.0,-1.0139,-1.007,-0.9988,-0.9737,-0.9742,-0.9791,-0.9905,-0.9911,-0.9943,-1.0019,-1.0019,-1.0019,-1.0019,-1.0019,-1.0019,-1.0019,-1.0068,-1.0134,-1.0204,-1.0253,-1.034,-1.046,-1.0525,-1.0585,0.0,0.0,0.0,0.0,-1.0742,0.0,0.0,-1.077,-0.9775,0.0,0.0,0.0,-1.1096,-1.1226,-1.1308,0.0,0.0,0.0,0.0,0.0,0.0,0.0,0.0,0.0,0.0,-1.1455,0.0,0.0,-1.1493,-0.9688,-0.7531,-0.5204,-0.2152,0.0,0.0,0.0,0.0,0.0,0.0,0.0,0.0,0.0,0.0,0.0,0.0,0.0,0.0,0.0,0.0,0.0,0.0,0.0,0.0,-0.7262,-1.0446,-0.8453,-1.0582,-1.1993,-1.2096,-1.2096,-1.2123,-1.2172,-1.2058,-1.214,-1.2046,-1.1942,-0.926,-0.4668,-0.1436,0.0,0.0,0.0,0.0,0.0,0.0,0.0,0.0,0.0,0.0,0.0,0.0,0.0,-1.0311,-1.0311,-1.0323,-1.0335,-1.0335,-1.0058,-0.9966,0.0,-0.9815,-0.9568,-0.9677,-0.9699,-0.9748,-0.9851,-0.9856,-0.9905,-1.0014,-1.0019,-1.0019,-1.0019,-1.0019,-1.0019,-1.0019,-1.003,-1.0041,-1.0041,-1.0166,-1.0231,-1.0242,0.0,0.0,-1.0574,-1.0574,-1.0634,-1.0737,0.0,0.0,-1.0737,-1.0759,-1.0764,0.0,0.0,-0.848,-0.5975,-0.9602,-1.1128,-1.1127,-1.1297,-1.1368,0.0,0.0,0.0,0.0,0.0,-1.1455,0.0,0.0,0.0,0.0,0.0,-1.1455,0.0,-1.1498,-1.1504,-1.1336,-1.1183,-0.557,-0.0718,-0.0718,-0.0718,-0.0718,-0.0718,-0.0359,0.0,0.0,0.0,0.0,0.0,0.0,0.0,0.0,0.0,0.0,0.0,0.0,-0.0359,-0.1257,-0.7432,-1.1139,-1.1507,-1.1593,-1.1868,-1.1971,-1.1971,-1.2025,-1.2129,-1.2218,-1.1737,-1.1268,-1.1925,-1.1459,-0.9904,-0.3052,0.0,0.0,0.0,0.0,0.0,0.0,0.0,0.0,0.0,0.0,0.0,-1.0023,-0.9735,-0.959,-0.959,-0.9675,-0.9742,-0.9742,-0.9684,-0.9755,-0.9777,-0.9715,-0.978,-0.9802,-0.9894,-0.996,-0.9981,-0.9987,-0.9992,-1.0019,-1.0019,-1.0019,-1.0019,-1.0019,-1.0019,-1.0019,-1.0117,-1.0166,-1.0166,-1.0291,-1.04,0.0,0.0,0.0,0.0,-1.0704,-1.0715,-1.0737,0.0,0.0,-1.0737,-1.0759,0.0,-1.078,-1.0742,-0.8548,-0.5819,-0.9788,-1.1116,-1.1154,-1.1417,-1.1465,-1.1498,0.0,0.0,0.0,0.0,0.0,0.0,0.0,0.0,0.0,0.0,0.0,0.0,-1.1465,-1.1465,-1.0926,-0.8778,-0.716,-0.5725,-0.4834,-0.4655,-0.4655,-0.4655,-0.197,0.0,0.0,0.0,0.0,0.0,0.0,0.0,0.0,0.0,0.0,0.0,0.0,-0.2693,-0.8994,-0.7732,-0.8301,-1.1485,-1.1672,-1.1732,-1.1851,-1.1851,-1.1862,-1.1889,-1.1786,-1.0245,-0.7296,-1.0335,-0.8289,-0.2154,-0.0718,0.0,0.0,0.0,0.0,0.0,0.0,0.0,0.0,0.0,0.0,0.0,-0.9781,-0.9634,-0.9487,-0.9487,-0.9536,-0.9579,-0.9579,-0.9628,-0.9688,-0.9748,-0.9856,-0.9927,-0.9927,-0.9981,-1.0019,-1.0019,-1.0074,-1.0112,-1.0112,-1.0172,-1.0204,-1.0204,-1.0204,-1.0204,-1.0204,-1.0264,-1.0297,-1.0297,-1.0411,-1.0498,0.0,0.0,0.0,0.0,-1.0737,-1.0737,-1.0742,0.0,-1.0829,-1.0829,-1.0688,0.0,-0.78,-0.6013,-0.4325,-0.2956,-0.4924,-0.6731,-0.8365,-0.8583,-0.9866,0.0,0.0,-0.9134,-0.8956,0.0,-1.1476,-1.1471,0.0,0.0,0.0,-1.1455,0.0,0.0,0.0,-1.1471,-1.1109,-0.9857,-0.95,-0.9322,-0.8786,-0.8607,-0.8607,-0.8607,-0.6994,-0.4303,-0.0538,0.0,0.0,0.0,0.0,0.0,0.0,0.0,0.0,0.0,0.0,-0.3411,-1.1173,-0.9701,-0.9527,-1.1574,-1.1558,-1.1607,-1.1726,-1.1737,-1.1775,-1.1835,-1.1925,-1.0957,-0.9118,-0.6858,-0.359,0.0,0.0,0.0,0.0,0.0,0.0,0.0,0.0,0.0,0.0,0.0,0.0,0.0,-0.9677,-0.9671,-0.9671,-0.9671,-0.9688,-0.9704,-0.9704,-0.972,-0.9769,-0.9862,-0.996,-1.0019,-1.0019,0.0,0.0,0.0,-1.0166,-1.0237,0.0,-1.0329,-1.0384,-1.0384,-1.0384,-1.0384,-1.0384,-1.0405,-1.0416,-1.0416,-1.0536,-1.059,-1.0596,-1.0688,0.0,0.0,0.0,0.0,0.0,0.0,0.0,-1.096,0.0,-0.8766,-0.5311,-0.1561,0.0,0.0,0.0,-0.1955,-0.4655,-0.4653,-0.771,-1.1146,-0.896,-0.7699,0.0,0.0,0.0,0.0,0.0,0.0,0.0,0.0,0.0,-1.146,0.0,0.0,0.0,-1.1498,-1.1498,-1.1498,-1.1498,-1.1498,-1.1498,-1.1498,-1.1514,-0.9165,-0.2327,-0.1254,0.0,-0.2154,-0.0897,-0.0539,-0.2154,-0.2154,-0.1615,-0.0179,0.0,-0.2692,-0.899,-1.061,-1.1504,-1.1482,-1.1465,-1.1504,-1.1601,-1.1618,-1.1677,-1.1775,-1.1903,-1.2057,-1.1864,-0.3605,0.0,0.0,0.0,0.0,0.0,0.0,0.0,0.0,0.0,0.0,0.0,0.0,0.0,0.0,-0.9709,-0.9671,-0.9671,-0.9671,-0.9753,-0.9818,-0.9818,-0.9911,-0.9987,-0.9998,-1.0014,-1.0019,0.0,0.0,0.0,0.0,0.0,0.0,-1.0367,0.0,-1.0384,-1.0384,-1.0384,-1.0384,-1.0384,-1.0487,-1.0536,-1.0536,-1.0655,-1.0715,-1.0715,-1.0732,0.0,0.0,-1.0786,0.0,0.0,0.0,-1.0982,0.0,-1.121,-0.9609,0.0,-0.1751,0.0,0.0,0.0,-0.0359,-0.0718,0.0,-0.5559,-1.1531,0.0,-1.0973,-0.9514,0.0,0.0,0.0,0.0,0.0,0.0,0.0,-1.1465,0.0,0.0,0.0,-1.146,-1.146,0.0,-1.146,-1.146,0.0,0.0,-1.146,-1.1476,-1.0402,-0.7153,-0.5725,-0.6273,-0.972,-0.413,-0.2693,-0.9541,-1.0262,-0.7366,-0.0537,0.0,-0.0358,-0.1254,-0.7713,-1.1504,-1.1482,-1.1465,-1.146,-1.1476,-1.1493,-1.1509,-1.1525,-1.1547,-1.1558,-1.1373,-0.3592,0.0,0.0,0.0,0.0,0.0,0.0,0.0,0.0,0.0,0.0,0.0,0.0,0.0,0.0,-0.9894,-0.9873,-0.9873,-0.9873,-0.9911,-0.9943,-0.9943,-1.0047,-1.0128,-1.0128,-1.0188,0.0,0.0,0.0,0.0,0.0,0.0,-1.0487,0.0,0.0,0.0,-1.059,-1.059,-1.059,-1.059,-1.0634,-1.0661,-1.0661,-1.071,-1.0775,-1.084,-1.084,-1.0911,0.0,-1.0971,0.0,-1.1107,0.0,-1.1156,0.0,0.0,0.0,0.0,-0.7474,-0.3919,0.0,0.0,0.0,0.0,0.0,-0.2153,0.0,0.0,0.0,0.0,0.0,0.0,0.0,0.0,0.0,0.0,0.0,0.0,0.0,-1.146,0.0,-1.1455,0.0,0.0,0.0,0.0,0.0,0.0,0.0,-1.1471,-1.112,-1.003,-0.9322,-0.879,-0.8254,0.0,0.0,-0.5022,-0.8811,-1.0088,-0.6832,-0.251,0.0,0.0,-0.3045,-0.6809,-1.1303,-1.1476,-1.1471,-1.1471,-1.1487,-1.1504,-1.1514,-0.7004,-0.4848,-0.4668,-0.1436,0.0,0.0,0.0,0.0,0.0,0.0,0.0,0.0,0.0,0.0,0.0,0.0,0.0,0.0,-1.0019,0.0,0.0,-1.0019,-1.0019,-1.003,-1.0063,-1.0177,0.0,0.0,0.0,0.0,-1.0384,-1.0416,0.0,0.0,0.0,-1.0606,0.0,0.0,-1.0737,0.0,0.0,0.0,0.0,-1.077,-1.0786,-1.0786,-1.0819,-1.0884,-1.0971,-1.0971,0.0,0.0,0.0,-1.1139,-1.1204,0.0,-1.1291,-1.133,-1.1422,-1.0921,-1.004,-1.1162,-0.6649,0.0,0.0,0.0,0.0,0.0,0.0,0.0,-0.6646,0.0,0.0,0.0,0.0,0.0,0.0,0.0,0.0,0.0,0.0,0.0,0.0,0.0,0.0,0.0,0.0,0.0,0.0,0.0,0.0,0.0,0.0,-1.1476,-1.1476,-1.1487,-1.0406,-0.7699,0.0,0.0,0.0,-0.8254,-1.1531,-1.1547,-0.538,-0.1074,-0.0,0.0,-0.2505,-0.8238,-1.0402,-1.1487,-1.1487,-1.1509,-1.1525,-1.1357,-0.3769,0.0,0.0,0.0,0.0,0.0,0.0,0.0,0.0,0.0,0.0,0.0,0.0,0.0,0.0,0.0,0.0,0.0,-1.0019,-1.0019,0.0,0.0,0.0,-1.0057,-1.0177,0.0,0.0,0.0,0.0,0.0,0.0,0.0,0.0,0.0,0.0,-1.0732,-1.0732,0.0,-1.0737,0.0,0.0,-1.0737,0.0,0.0,-1.0916,-1.0916,-1.1031,-1.109,-1.1096,-1.1096,0.0,0.0,-1.115,-1.1232,-1.1438,-1.1319,-1.134,-1.1449,-1.1455,-0.9304,-0.6267,0.0,-0.6649,0.0,0.0,0.0,0.0,0.0,0.0,0.0,0.0,0.0,0.0,0.0,0.0,0.0,0.0,0.0,0.0,-0.501,0.0,0.0,0.0,0.0,-1.1455,0.0,0.0,0.0,0.0,0.0,0.0,0.0,0.0,0.0,0.0,-1.1455,-1.146,-1.1298,0.0,0.0,0.0,-1.1303,-1.1493,-1.1509,-0.7706,-0.3939,-0.0179,0.0,-0.0179,-0.0358,-0.7531,-1.1509,-1.1509,-1.1531,-1.1536,-1.1357,-0.3769,0.0,0.0,0.0,0.0,0.0,0.0,0.0,0.0,0.0,0.0,0.0,0.0,0.0,0.0,0.0,0.0,0.0,0.0,0.0,0.0,0.0,0.0,0.0,0.0,-1.0422,0.0,0.0,0.0,0.0,0.0,0.0,-1.0677,0.0,0.0,-1.0737,-1.0737,-1.0813,0.0,0.0,0.0,-1.0938,0.0,0.0,0.0,0.0,0.0,0.0,-1.1215,-1.1215,0.0,0.0,0.0,-1.1378,0.0,0.0,0.0,0.0,0.0,-1.0779,-0.9165,0.0,0.0,0.0,0.0,0.0,0.0,0.0,0.0,0.0,0.0,-0.1795,-0.3411,-0.0718,0.0,0.0,0.0,0.0,-0.0359,-0.1611,0.0,0.0,0.0,0.0,0.0,0.0,0.0,0.0,0.0,0.0,0.0,0.0,0.0,0.0,0.0,-1.1455,-1.146,-1.1465,-1.1476,-1.1482,0.0,0.0,-1.1509,-1.1525,-1.0252,-0.6822,-0.0359,0.0,0.0,0.0,-0.2507,-0.6276,-1.1525,-1.1536,-0.8994,-0.3769,-0.1257,0.0,0.0,0.0,0.0,0.0,0.0,0.0,0.0,0.0,0.0,0.0,0.0,0.0,0.0,0.0,0.0,0.0,-1.0384,0.0,0.0,0.0,0.0,0.0,0.0,0.0,0.0,0.0,-1.0688,0.0,-1.0737,0.0,-1.0737,0.0,-1.0775,-1.0802,-1.0802,-1.0916,0.0,-1.0873,-1.102,0.0,0.0,0.0,0.0,0.0,0.0,-1.1264,-1.1335,-1.1335,-1.1378,0.0,0.0,-1.1455,-1.1455,-1.1455,-1.146,0.0,0.0,-1.1525,0.0,0.0,0.0,0.0,0.0,0.0,0.0,0.0,0.0,0.0,0.0,0.0,0.0,0.0,0.0,0.0,0.0,0.0,0.0,0.0,-0.3761,0.0,-1.0947,0.0,0.0,0.0,0.0,0.0,0.0,0.0,0.0,0.0,0.0,0.0,0.0,-1.1455,-1.1455,-1.1455,-1.1465,-1.1476,-1.1482,-1.1487,-1.1504,-1.1536,-1.0257,-0.6643,0.0,0.0,0.0,0.0,0.0,-0.2331,-0.737,-0.737,-0.4848,0.0,0.0,0.0,0.0,0.0,0.0,0.0,0.0,0.0,0.0,0.0,0.0,0.0,0.0,0.0,0.0,0.0,0.0,0.0,-1.0405,0.0,0.0,0.0,-1.0492,0.0,0.0,0.0,-1.0737,0.0,-1.0742,-1.0742,-1.0742,-1.0753,-1.0753,-1.0753,-1.0862,0.0,-1.0927,-1.1041,0.0,0.0,-1.1112,-1.1118,-1.1112,0.0,0.0,0.0,0.0,0.0,-1.1455,-1.1455,-1.1455,-1.1455,-1.1455,0.0,-1.1455,-1.1455,-1.1465,-1.1487,-1.1525,-1.1536,-1.063,-0.2872,0.0,0.0,0.0,0.0,0.0,0.0,0.0,0.0,0.0,0.0,0.0,0.0,0.0,0.0,0.0,0.0,0.0,0.0,0.0,0.0,0.0,0.0,-1.1146,0.0,0.0,0.0,0.0,0.0,0.0,0.0,0.0,0.0,0.0,0.0,-1.1455,-1.1455,-1.1455,-1.1465,-1.1482,-1.1465,-1.1298,-1.1531,-0.7892,-0.4118,0.0,0.0,0.0,0.0,0.0,0.0,0.0,0.0,0.0,0.0,0.0,0.0,0.0,0.0,0.0,0.0,0.0,0.0,0.0,0.0,0.0,0.0,0.0,0.0,0.0,0.0,0.0,0.0,-1.0645,-1.0672,-1.0683,0.0,-1.0672,-1.0688,0.0,0.0,0.0,0.0,-1.0813,-1.0873,-1.0873,-1.0954,-1.1009,-1.1009,-1.1036,0.0,0.0,0.0,0.0,-1.1107,-1.127,-1.1319,-1.1232,-1.1346,0.0,-1.1411,0.0,0.0,-1.1455,-1.1455,-1.1455,-1.1455,-1.1455,-1.1465,-1.1476,-1.1476,-1.1493,-1.1525,-1.1536,-1.1547,0.0,0.0,0.0,0.0,0.0,0.0,0.0,0.0,0.0,0.0,0.0,0.0,0.0,0.0,0.0,0.0,0.0,0.0,0.0,0.0,0.0,-0.0537,0.0,0.0,0.0,0.0,0.0,0.0,0.0,0.0,0.0,0.0,0.0,0.0,0.0,0.0,0.0,-1.1455,-1.1465,-1.1471,-1.1465,-0.966,-0.9491,-1.1336,-0.7889,-0.4118,-0.018,0.0,0.0,0.0,0.0,0.0,0.0,0.0,0.0,0.0,0.0,0.0,0.0,0.0,0.0,0.0,0.0,0.0,0.0,0.0,0.0,0.0,0.0,0.0,0.0,0.0,0.0,0.0,-1.0808,0.0,0.0,-1.0895,0.0,0.0,-1.0824,0.0,0.0,-1.0895,-1.0954,0.0,-1.0998,-1.1063,-1.1101,-1.1101,-1.115,0.0,-1.1177,0.0,0.0,-1.1259,-1.1384,-1.1422,-1.1351,-1.1422,0.0,-1.1455,0.0,0.0,-1.1455,-1.1455,-1.1455,-1.1455,-1.1455,-1.146,-1.1471,-0.9674,-0.8964,-0.8803,-0.7187,-0.6473,0.0,-0.1616,0.0,0.0,0.0,0.0,0.0,0.0,0.0,0.0,0.0,0.0,0.0,0.0,0.0,0.0,0.0,0.0,0.0,0.0,0.0,0.0,0.0,-0.1613,-0.3225,0.0,0.0,0.0,0.0,0.0,0.0,0.0,0.0,0.0,0.0,0.0,0.0,0.0,-1.1465,0.0,-1.1455,-1.0209,-0.9866,-1.133,-0.9514,0.0,0.0,0.0,0.0,0.0,-0.3231,-0.3411,-0.0,0.0,0.0,0.0,0.0,0.0,0.0,0.0,0.0,0.0,0.0,0.0,0.0,0.0,0.0,0.0,0.0,0.0,0.0,0.0,0.0,0.0,0.0,0.0,0.0,0.0,0.0,0.0,0.0,-1.1041,0.0,-1.1101,0.0,-1.1123,-1.1123,-1.1139,-1.115,-1.115,0.0,-1.1297,-1.1297,-1.1395,-1.1455,-1.1455,-1.1455,-1.1455,-1.1455,-1.1455,0.0,0.0,0.0,0.0,-1.1455,-1.1455,-1.1455,-1.1455,-1.1455,-1.146,-1.1282,-0.7877,-0.5909,-0.4655,-0.1256,0.0,0.0,0.0,0.0,0.0,0.0,0.0,0.0,0.0,0.0,0.0,0.0,0.0,0.0,0.0,0.0,0.0,0.0,0.0,0.0,0.0,0.0,0.0,0.0,0.0,0.0,0.0,0.0,-0.1434,0.0,0.0,0.0,0.0,0.0,0.0,0.0,0.0,0.0,0.0,0.0,0.0,0.0,0.0,-1.132,-1.0962,0.0,0.0,0.0,0.0,0.0,-0.0,-0.647,-0.719,-0.1616,0.0,0.0,0.0,0.0,0.0,0.0,0.0,0.0,0.0,0.0,0.0,0.0,0.0,0.0,0.0,0.0,0.0,0.0,0.0,0.0,0.0,0.0,0.0,0.0,0.0,0.0,-1.1237,-1.1215,-1.115,-1.1101,-1.1101,-1.1183,-1.1243,-1.1243,-1.1335,-1.1395,-1.1395,-1.1411,0.0,0.0,0.0,0.0,-1.1455,-1.1455,-1.1455,-1.1455,-1.1455,-1.1455,0.0,0.0,0.0,-1.1455,-1.1455,-1.1455,-1.1455,-1.1455,-1.1471,-1.1504,-1.0794,0.0,-0.0897,-0.0359,0.0,0.0,0.0,0.0,0.0,0.0,0.0,0.0,0.0,0.0,0.0,0.0,0.0,0.0,0.0,0.0,0.0,0.0,0.0,0.0,0.0,0.0,0.0,0.0,0.0,0.0,0.0,0.0,-0.0359,-0.1077,0.0,0.0,0.0,0.0,0.0,0.0,0.0,0.0,0.0,0.0,-1.1487,0.0,0.0,0.0,0.0,0.0,0.0,0.0,0.0,0.0,0.0,-0.1257,0.0,0.0,0.0,0.0,0.0,0.0,0.0,0.0,0.0,0.0,0.0,0.0,0.0,0.0,0.0,0.0,0.0,0.0,0.0,0.0,0.0,0.0,0.0,0.0,0.0,0.0,0.0,0.0,0.0,0.0,-1.1324,0.0,-1.1286,-1.1335,-1.1368,-1.1368,-1.1422,-1.1455,-1.1455,-1.1455,-1.1455,-1.1455,-1.1455,-1.1455,-1.1455,-1.1455,0.0,-1.1455,-1.1455,-1.1455,-1.1455,0.0,0.0,0.0,0.0,-1.1455,-1.1455,-1.1465,-1.1482,-1.1498,0.0,0.0,-0.5567,-0.1616,0.0,0.0,0.0,0.0,0.0,0.0,0.0,0.0,0.0,0.0,0.0,0.0,0.0,0.0,0.0,0.0,0.0,0.0,0.0,0.0,0.0,0.0,0.0,0.0,0.0,0.0,0.0,0.0,0.0,0.0,-0.3047,0.0,0.0,0.0,0.0,0.0,0.0,0.0,0.0,0.0,0.0,0.0,0.0,0.0,0.0,0.0,0.0,0.0,0.0,0.0,0.0,0.0,0.0,0.0,0.0,0.0,0.0,0.0,0.0,0.0,0.0,0.0,0.0,0.0,0.0,0.0,0.0,0.0,0.0,0.0,0.0,0.0,0.0,0.0,0.0,0.0,-1.1395,0.0,0.0,-1.0753,0.0,-1.1298,-1.1471,-1.146,-1.1455,-1.1455,-1.1455,-1.1455,-1.1455,-1.1455,-1.1455,-1.1455,-1.1455,-1.1455,-1.1455,-1.1455,-1.1455,-1.1455,-1.1455,-1.1455,-1.1455,-1.1455,0.0,0.0,0.0,0.0,0.0,0.0,0.0,0.0,0.0,0.0,0.0,-1.063,-0.8453,-0.2513,0.0,0.0,0.0,0.0,0.0,0.0,0.0,0.0,0.0,0.0,0.0,0.0,0.0,0.0,0.0,0.0,0.0,0.0,0.0,0.0,0.0,0.0,0.0,0.0,0.0,0.0,0.0,0.0,0.0,0.0,0.0,0.0,0.0,0.0,0.0,0.0,0.0,0.0,0.0,0.0,0.0,-1.0402,0.0,0.0,0.0,0.0,0.0,-1.1531,0.0,0.0,0.0,0.0,0.0,0.0,0.0,-0.5929,0.0,0.0,0.0,0.0,0.0,0.0,0.0,0.0,0.0,0.0,0.0,0.0,0.0,0.0,0.0,0.0,0.0,0.0,0.0,0.0,0.0,0.0,0.0,0.0,0.0,-1.0942,-1.1482,-1.1476,-1.146,-1.1455,-1.1455,-1.1455,-1.1455,-1.1455,-1.1455,-1.1455,-1.1455,-1.1455,-1.1455,-1.1455,-1.1455,-1.1455,-1.1455,-1.1455,-1.1455,-1.1455,0.0,0.0,0.0,0.0,0.0,0.0,0.0,0.0,0.0,0.0,-1.1536,-0.7549,-0.1077,-0.0359,0.0,0.0,0.0,0.0,0.0,0.0,0.0,0.0,0.0,0.0,0.0,0.0,0.0,0.0,0.0,0.0,0.0,0.0,0.0,0.0,0.0,0.0,0.0,0.0,0.0,0.0,0.0,0.0,0.0,0.0,0.0,-0.0179,0.0,0.0,0.0,0.0,0.0,0.0,-0.1433,0.0,0.0,0.0,-0.9496,0.0,0.0,-1.1493,0.0,0.0,0.0,0.0,-1.0446,0.0,0.0,0.0,-0.0718,-0.0718,0.0,0.0,0.0,0.0,0.0,0.0,0.0,0.0,0.0,0.0,0.0,0.0,0.0,0.0,0.0,0.0,0.0,0.0,0.0,0.0,0.0,0.0,0.0,0.0,0.0,0.0,-1.1504,-1.1498,-1.1487,-1.1471,-1.1455,-1.1455,-1.1455,-1.1455,-1.1455,-1.1455,-1.1455,-1.1455,-1.1455,-1.1455,-1.1455,-1.1455,-1.1455,-1.1455,-1.1455,-1.146,0.0,0.0,0.0,0.0,0.0,0.0,0.0,0.0,-1.1531,-1.1173,-0.6649,-0.2872,0.0,0.0,0.0,0.0,0.0,0.0,0.0,0.0,0.0,0.0,0.0,0.0,0.0,0.0,0.0,0.0,0.0,0.0,0.0,0.0,0.0,0.0,0.0,0.0,0.0,0.0,0.0,0.0,0.0,0.0,0.0,0.0,0.0,0.0,0.0,0.0,0.0,0.0,0.0,0.0,0.0,0.0,-0.4845,0.0,0.0,0.0,0.0,0.0,0.0,0.0,0.0,0.0,-1.1341,0.0,-0.4666,-0.0,0.0,0.0,0.0,0.0,0.0,0.0,0.0,0.0,0.0,0.0,0.0,0.0,0.0,0.0,0.0,0.0,0.0,0.0,0.0,0.0,0.0,-1.1336,0.0,-0.7535,0.0,-0.592,-0.5017,-0.7724,-1.0068,-1.1152,-0.9876,-0.9857,-1.0199,-1.146,-1.1465,-1.146,-1.1455,-1.146,-1.146,-1.1455,-1.146,-1.1465,-1.1465,-1.1471,0.0,-1.1471,-1.1471,-1.1476,-1.1493,-1.0387,0.0,0.0,0.0,0.0,0.0,-0.7904,-0.8094,-0.7732,-0.2334,0.0,0.0,0.0,0.0,0.0,0.0,0.0,0.0,0.0,0.0,0.0,0.0,0.0,0.0,0.0,0.0,0.0,0.0,0.0,0.0,0.0,0.0,0.0,0.0,0.0,0.0,0.0,0.0,0.0,0.0,0.0,0.0,0.0,0.0,0.0,0.0,0.0,0.0,0.0,0.0,0.0,0.0,-0.1975,-0.359,-0.3947,-0.6094,0.0,0.0,0.0,0.0,0.0,0.0,0.0,0.0,0.0,0.0,0.0,-0.1076,0.0,0.0,0.0,0.0,0.0,0.0,0.0,0.0,0.0,0.0,0.0,0.0,0.0,0.0,0.0,0.0,0.0,0.0,0.0,0.0,-1.0804,-1.1536,-0.8994,-0.1436,-0.018,-0.0,-0.0179,-0.6643,-1.0073,-0.6267,-0.5728,-0.716,-1.112,-1.1482,-1.1476,-1.1455,-1.1471,-1.1476,-1.1455,-1.1471,-1.1482,0.0,0.0,-1.1509,-1.1509,-1.1509,-1.1509,-1.1509,0.0,0.0,-1.1509,0.0,-1.1536,-1.1173,-0.359,-0.018,-0.018,-0.0,0.0,0.0,0.0,0.0,0.0,0.0,0.0,0.0,0.0,0.0,0.0,0.0,0.0,0.0,0.0,0.0,0.0,0.0,0.0,0.0,0.0,0.0,0.0,0.0,0.0,0.0,0.0,0.0,0.0,0.0,0.0,0.0,0.0,0.0,0.0,0.0,0.0,0.0,0.0,0.0,0.0,0.0,-0.6649,-0.8453,-0.0718,-0.6998,0.0,0.0,0.0,0.0,0.0,0.0,0.0,-0.0358,-0.7545,0.0,-1.1357,-0.3769,0.0,0.0,0.0,0.0,0.0,0.0,0.0,0.0,0.0,0.0,0.0,0.0,0.0,0.0,0.0,0.0,0.0,0.0,0.0,0.0,-0.3411,-0.359,-0.2872,-0.0359,0.0,0.0,0.0,-0.2153,-0.413,-0.5567,-0.5741,-0.7177,-1.1157,-1.1509,-1.0411,0.0,-1.0045,-1.1498,0.0,-1.1498,-1.0233,-0.7699,-0.7524,-0.7527,-0.7527,-0.7527,-0.8794,-1.1531,0.0,0.0,0.0,-0.6105,-0.359,-0.359,-0.1077,0.0,0.0,0.0,0.0,0.0,0.0,0.0,0.0,0.0,0.0,0.0,0.0,0.0,0.0,0.0,0.0,0.0,0.0,0.0,0.0,0.0,0.0,0.0,0.0,0.0,0.0,0.0,0.0,0.0,0.0,0.0,0.0,0.0,0.0,0.0,0.0,0.0,0.0,0.0,0.0,0.0,0.0,0.0,0.0,0.0,-0.2154,-0.485,0.0,-1.0083,0.0,0.0,0.0,0.0,0.0,0.0,0.0,0.0,-0.3766,0.0,-1.1536,-0.3769,0.0,0.0,0.0,0.0,0.0,0.0,0.0,0.0,0.0,0.0,0.0,0.0,0.0,0.0,0.0,0.0,0.0,0.0,0.0,0.0,0.0,0.0,0.0,0.0,0.0,0.0,0.0,0.0,-0.0898,-0.3234,-0.359,-0.4493,-0.6867,-0.9775,0.0,-0.6088,-0.663,-0.771,-0.9152,-1.061,-1.0431,-0.7896,-0.5017,-0.3582,-0.3582,0.0,0.0,-0.719,-0.4662,-0.4841,-0.7011,-0.2334,0.0,0.0,0.0,0.0,0.0,0.0,0.0,0.0,0.0,0.0,0.0,0.0,0.0,0.0,0.0,0.0,0.0,0.0,0.0,0.0,0.0,0.0,0.0,0.0,0.0,0.0,0.0,0.0,0.0,0.0,0.0,0.0,0.0,0.0,0.0,0.0,0.0,0.0,0.0,0.0,0.0,0.0,0.0,0.0,0.0,0.0,0.0,0.0,0.0,0.0,0.0,-0.9729,-1.0267,0.0,0.0,0.0,0.0,0.0,0.0,-0.3762,-0.1256,0.0,-0.719,-0.2334,0.0,0.0,0.0,0.0,0.0,0.0,0.0,0.0,0.0,0.0,0.0,0.0,0.0,0.0,0.0,0.0,0.0,0.0,0.0,0.0,0.0,0.0,0.0,0.0,0.0,0.0,0.0,0.0,0.0,0.0,0.0,0.0,0.0,-0.6404,-0.9304,-0.5567,0.0,0.0,0.0,-0.8644,-1.065,-1.064,-0.3775,0.0,0.0,0.0,0.0,0.0,0.0,0.0,0.0,0.0,0.0,0.0,0.0,0.0,0.0,0.0,0.0,0.0,0.0,0.0,0.0,0.0,0.0,0.0,0.0,0.0,0.0,0.0,0.0,0.0,0.0,0.0,0.0,0.0,0.0,0.0,0.0,0.0,0.0,0.0,0.0,0.0,0.0,0.0,0.0,0.0,0.0,0.0,0.0,0.0,0.0,0.0,0.0,0.0,0.0,0.0,0.0,0.0,0.0,0.0,0.0,-0.647,-0.7732,0.0,0.0,0.0,0.0,0.0,-0.737,-0.018,0.0,0.0,0.0,0.0,0.0,0.0,0.0,0.0,0.0,0.0,0.0,0.0,0.0,0.0,0.0,0.0,0.0,0.0,0.0,0.0,0.0,0.0,0.0,0.0,0.0,0.0,0.0,0.0,0.0,0.0,0.0,0.0,0.0,0.0,0.0,0.0,0.0,-0.1661,-0.2397,-0.147,-0.0551,-0.0367,-0.1286,-0.2206,-0.2748,-0.2726,-0.0908,0.0,0.0,0.0,0.0,0.0,0.0,0.0,0.0,0.0,0.0,0.0,0.0,0.0,0.0,0.0,0.0,0.0,0.0,0.0,0.0,0.0,0.0,0.0,0.0,0.0,0.0,0.0,0.0,0.0,0.0,0.0,0.0,0.0,0.0,0.0,0.0,0.0,0.0,0.0,0.0,0.0,0.0,0.0,0.0,0.0,0.0,0.0,0.0,0.0,0.0,0.0,0.0,0.0,0.0,0.0,0.0,0.0,0.0,0.0,0.0,-0.1616,-0.1975,0.0,0.0,0.0,0.0,-0.2693,-0.1975,-0.0,0.0,0.0,0.0,0.0,0.0,0.0,0.0,0.0,0.0,0.0,0.0,0.0,0.0,0.0,0.0,0.0,0.0,0.0,0.0,0.0,0.0,0.0,0.0,0.0,0.0,0.0,0.0,0.0,0.0,0.0,0.0,0.0,0.0,0.0,0.0,0.0,0.0,0.0,0.0,0.0,0.0,0.0,0.0,0.0,0.0,0.0,0.0,0.0,0.0,0.0,0.0,0.0,0.0,0.0,0.0,0.0,0.0,0.0,0.0,0.0,0.0,0.0,0.0,0.0,0.0,0.0,0.0,0.0,0.0,0.0,0.0,0.0,0.0,0.0,0.0,0.0,0.0,0.0,0.0,0.0,0.0,0.0,0.0,0.0,0.0,0.0,0.0,0.0,0.0,0.0,0.0,0.0,0.0,0.0,0.0,0.0,0.0,0.0,0.0,0.0,0.0,0.0,0.0,0.0,0.0,0.0,0.0,0.0,0.0,0.0,0.0,0.0,0.0,0.0,0.0,0.0,0.0,0.0,0.0,0.0,0.0,0.0,0.0,0.0,0.0,0.0,0.0,0.0,0.0,0.0,0.0,0.0,0.0,0.0,0.0,0.0,0.0,0.0,0.0,0.0,0.0,0.0,0.0,0.0,0.0,0.0,0.0,0.0,0.0,0.0,0.0,0.0,0.0,0.0,0.0,0.0,0.0,0.0,0.0,0.0,0.0,0.0,0.0,0.0,0.0,0.0,0.0,0.0,0.0,0.0,0.0,0.0,0.0,0.0,0.0,0.0,0.0,0.0,0.0,0.0,0.0,0.0,0.0,0.0,0.0,0.0,0.0,0.0,0.0,0.0,0.0,0.0,0.0,0.0,0.0,0.0,0.0,0.0,0.0,0.0,0.0,0.0,0.0,0.0,0.0,0.0,0.0,0.0,0.0,0.0,0.0,0.0,0.0,0.0,0.0,0.0,0.0,0.0,0.0,0.0,0.0,0.0,0.0,0.0,0.0,0.0,0.0,0.0,0.0,0.0,0.0,0.0,0.0,0.0,0.0,0.0,0.0,0.0,0.0,0.0,0.0,0.0,0.0,0.0,0.0,0.0,0.0,0.0,0.0,0.0,0.0,0.0,0.0,0.0,0.0,0.0,0.0,0.0,0.0,0.0,0.0,0.0,0.0,0.0,0.0,0.0,0.0,0.0,0.0,0.0,0.0,0.0,0.0,0.0,0.0,0.0,0.0,0.0,0.0,0.0,0.0,0.0,0.0,0.0,0.0,0.0,0.0,0.0,0.0,0.0,0.0,0.0,0.0,0.0,0.0,0.0,0.0,0.0,0.0,0.0,0.0,0.0,0.0,0.0,0.0,0.0,0.0,0.0,0.0,0.0,0.0,0.0,0.0,0.0,0.0,0.0,0.0,0.0,0.0,0.0,0.0,0.0,0.0,0.0,0.0,0.0,0.0,0.0,0.0,0.0,0.0,0.0,0.0,0.0,0.0,0.0,0.0,0.0,0.0,0.0,0.0,0.0,0.0,0.0,0.0,0.0,0.0,0.0,0.0,0.0,0.0,0.0,0.0,0.0,0.0,0.0,0.0,0.0,0.0,0.0,0.0,0.0,0.0,0.0,0.0,0.0,0.0,0.0,0.0,0.0,0.0,0.0,0.0,0.0,0.0,0.0,0.0,0.0,0.0,0.0,0.0,0.0,0.0,0.0,0.0,0.0,0.0,0.0,0.0,0.0,0.0,0.0,0.0,0.0,0.0,0.0,0.0,0.0,0.0,0.0,0.0,0.0,0.0,0.0,0.0,0.0,0.0,0.0,0.0,0.0,0.0,0.0,0.0,0.0,0.0,0.0,0.0,0.0,0.0,0.0,0.0,0.0,0.0,0.0,0.0,0.0,0.0,0.0,0.0,0.0,0.0,0.0,0.0,0.0,0.0,0.0,0.0,0.0,0.0,0.0,0.0,0.0,0.0,0.0,0.0,0.0,0.0,0.0,0.0,0.0,0.0,0.0,0.0,0.0,0.0,0.0,0.0,0.0,0.0,0.0,0.0,0.0,0.0,0.0,0.0,0.0,0.0,0.0,0.0,0.0,0.0,0.0,0.0,0.0,0.0,0.0,0.0,0.0,0.0,0.0,0.0,0.0,0.0,0.0,0.0,0.0,0.0,0.0,0.0,0.0,0.0,0.0,0.0,0.0,0.0,0.0,0.0,0.0,0.0,0.0,0.0,0.0,0.0,0.0,0.0,0.0,0.0,0.0,0.0,0.0,0.0,0.0,0.0,0.0,0.0,0.0,0.0,0.0,0.0,0.0,0.0,0.0,0.0,0.0,0.0,0.0,0.0,0.0,0.0,0.0,0.0,0.0,0.0,0.0,0.0,0.0,0.0,0.0,0.0,0.0,0.0,0.0,0.0,0.0,0.0,0.0,0.0,0.0,0.0,0.0,0.0,0.0,0.0,0.0,0.0,0.0,0.0,0.0,0.0,0.0,0.0,0.0,0.0,0.0,0.0,0.0,0.0,0.0,0.0,0.0,0.0,0.0,0.0,0.0,0.0,0.0,0.0,0.0,0.0,0.0,0.0,0.0,0.0,0.0,0.0,0.0,0.0,0.0,0.0,0.0,0.0,0.0,0.0,0.0,0.0,0.0,0.0,0.0,0.0,0.0,0.0,0.0,0.0,0.0,0.0,0.0,0.0,0.0,0.0,0.0,0.0,0.0,0.0,0.0,0.0,0.0,0.0,0.0,0.0,0.0,0.0,0.0,0.0,0.0,0.0,0.0,0.0,0.0,0.0,0.0,0.0,0.0,0.0,0.0,0.0,0.0,0.0,0.0,0.0,0.0,0.0,0.0,0.0,0.0,0.0,0.0,0.0,0.0,0.0,0.0,0.0,0.0,0.0,0.0,0.0,0.0,0.0,0.0,0.0,0.0,0.0,0.0,0.0,0.0,0.0,0.0,0.0,0.0,0.0,0.0,0.0,0.0,0.0,0.0,0.0,0.0,0.0,0.0,0.0,0.0,0.0,0.0,0.0,0.0,0.0,0.0,0.0,0.0,0.0,0.0,0.0,0.0,0.0,0.0,0.0,0.0,0.0,0.0,0.0,0.0,0.0,0.0,0.0,0.0,0.0,0.0,0.0,0.0,0.0,0.0,0.0,0.0,0.0,0.0,0.0,0.0,0.0,0.0,0.0,0.0,0.0,0.0,0.0,0.0,0.0,0.0,0.0,0.0,0.0,0.0,0.0,0.0,0.0,0.0,0.0,0.0,0.0,0.0,0.0,0.0,0.0,0.0,0.0,0.0,0.0,0.0,0.0,0.0,0.0,0.0,0.0,0.0,0.0,0.0,0.0,0.0,0.0,0.0,0.0,0.0,0.0,0.0,0.0,0.0,0.0,0.0,0.0,0.0,0.0,0.0,0.0,0.0,0.0,0.0,0.0,0.0,0.0,0.0,0.0,0.0,0.0,0.0,0.0,0.0,0.0,0.0,0.0,0.0,0.0,0.0,0.0,0.0,0.0,0.0,0.0,0.0,0.0,0.0,0.0,0.0,0.0,0.0,0.0,0.0,0.0,0.0,0.0,0.0,0.0,0.0,0.0,0.0,0.0,0.0,0.0,0.0,0.0,0.0,0.0,0.0,0.0,0.0,0.0,0.0,0.0,0.0,0.0,0.0,0.0,0.0,0.0,0.0,0.0,0.0,0.0,0.0,0.0,0.0,0.0,0.0,0.0,0.0,0.0,0.0,0.0,0.0,0.0,0.0,0.0,0.0,0.0,0.0,0.0,0.0,0.0,0.0,0.0,0.0,0.0,0.0,0.0,0.0,0.0,0.0,0.0,0.0,0.0,0.0,0.0,0.0,0.0,0.0,0.0,0.0,0.0,0.0,0.0,0.0,0.0,0.0,0.0,0.0,0.0,0.0,0.0,0.0,0.0,0.0,0.0,0.0,0.0,0.0,0.0,0.0,0.0,0.0,0.0,0.0,0.0,0.0,0.0,0.0,0.0,0.0,0.0,0.0,0.0,0.0,0.0,0.0,0.0,0.0,0.0,0.0,0.0,0.0,0.0,0.0,0.0,0.0,0.0,0.0,0.0,0.0,0.0,0.0,0.0,0.0,0.0,0.0,0.0,0.0,0.0,0.0,0.0,0.0,0.0,0.0,0.0,0.0,0.0,0.0,0.0,0.0,0.0,0.0,0.0,0.0,0.0,0.0,0.0,0.0,0.0,0.0,0.0,0.0,0.0,0.0,0.0,0.0,0.0,0.0,0.0,0.0,0.0,0.0,0.0,0.0,0.0,0.0,0.0,0.0,0.0,0.0,0.0,0.0,0.0,0.0,0.0,0.0,0.0,0.0,0.0,0.0,0.0,0.0,0.0,0.0,0.0,0.0,0.0,0.0,0.0,0.0,0.0,0.0,0.0,0.0,0.0,0.0,0.0,0.0,0.0,0.0,0.0,0.0,0.0,0.0,0.0,0.0,0.0,0.0,0.0,0.0,0.0,0.0,0.0,0.0,0.0,0.0,0.0,0.0,0.0,0.0,0.0,0.0,0.0,0.0,0.0,0.0,0.0,0.0,0.0,0.0,0.0,0.0,0.0,0.0,0.0,0.0,0.0,0.0,0.0,0.0,0.0,0.0,0.0,0.0,0.0,0.0,0.0,0.0,0.0,0.0,0.0,0.0,0.0,0.0,0.0,0.0,0.0,0.0,0.0,0.0,0.0,0.0,0.0,0.0,0.0,0.0,0.0,0.0,0.0,0.0,0.0,0.0,0.0,0.0,0.0,0.0,0.0,0.0,0.0,0.0,0.0,0.0,0.0,0.0,0.0,0.0,0.0,0.0,0.0,0.0,0.0,0.0,0.0,0.0,0.0,0.0,0.0,0.0,0.0,0.0,0.0,0.0,0.0,0.0,0.0,0.0,0.0,0.0,0.0,0.0,0.0,0.0,0.0,0.0,0.0,0.0,0.0,0.0,0.0,0.0,0.0,0.0,0.0,0.0,0.0,0.0,0.0,0.0,0.0,0.0,0.0,0.0,0.0,0.0,0.0,0.0,0.0,0.0,0.0,0.0,0.0,0.0,0.0,0.0,0.0,0.0,0.0,0.0,0.0,0.0,0.0,0.0,0.0,0.0,0.0,0.0,0.0,0.0,0.0,0.0,0.0,0.0,0.0,0.0,0.0,0.0,0.0,0.0,0.0,0.0,0.0,0.0,0.0,0.0,0.0,0.0,0.0,0.0,0.0,0.0,0.0,0.0,0.0,0.0,0.0,0.0,0.0,0.0,0.0,0.0,0.0,0.0,0.0,0.0,0.0,0.0,0.0,0.0,0.0,0.0,0.0,0.0,0.0,0.0,0.0,0.0,0.0,0.0,0.0,0.0,0.0,0.0,0.0,0.0,0.0,0.0,0.0,0.0,0.0,0.0,0.0,0.0,0.0,0.0,0.0,0.0,0.0,0.0,0.0,0.0,0.0,0.0,0.0,0.0,0.0,0.0,0.0,0.0,0.0,0.0,0.0,0.0,0.0,0.0,0.0,0.0,0.0,0.0,0.0,0.0,0.0,0.0,0.0,0.0,0.0,0.0,0.0,0.0,0.0,0.0,0.0,0.0,0.0,0.0,0.0,0.0,0.0,0.0,0.0,0.0,0.0,0.0,0.0,0.0,0.0,0.0,0.0,0.0,0.0,0.0,0.0,0.0,0.0,0.0,0.0,0.0,0.0,0.0,0.0,0.0,0.0,0.0,0.0,0.0,0.0,0.0,0.0,0.0,0.0,0.0,0.0,0.0,0.0,0.0,0.0,0.0,0.0,0.0,0.0,0.0,0.0,0.0,0.0,0.0,0.0,0.0,0.0,0.0,0.0,0.0,0.0,0.0,0.0,0.0,0.0,0.0,0.0,0.0,0.0,0.0,0.0,0.0,0.0,0.0,0.0,0.0,0.0,0.0,0.0,0.0,0.0,0.0,0.0,0.0,0.0,0.0,0.0,0.0,0.0,0.0,0.0,0.0,0.0,0.0,0.0,0.0,0.0,0.0,0.0,0.0,0.0,0.0,0.0,0.0,0.0,0.0,0.0,0.0,0.0,0.0,0.0,0.0,0.0,0.0,0.0,0.0,0.0,0.0,0.0,0.0,0.0,0.0,0.0,0.0,0.0,0.0,0.0,0.0,0.0,0.0,0.0,0.0,0.0,0.0,0.0,0.0,0.0,0.0,0.0,0.0,0.0,0.0,0.0,0.0,0.0,0.0,0.0,0.0,0.0,0.0,0.0,0.0,0.0,0.0,0.0,0.0,0.0,0.0,0.0,0.0,0.0,0.0,0.0,0.0,0.0,0.0,0.0,0.0,0.0,0.0,0.0,0.0,0.0,0.0,0.0,0.0,0.0,0.0,0.0,0.0,0.0,0.0,0.0,0.0,0.0,0.0,0.0,0.0,0.0,0.0,0.0,0.0,0.0,0.0,0.0,0.0,0.0,0.0,0.0,0.0,0.0,0.0,0.0,0.0,0.0,0.0,0.0,0.0,0.0,0.0,0.0,0.0,0.0,0.0,0.0,0.0,0.0,0.0,0.0,0.0,0.0,0.0,0.0,0.0,0.0,0.0,0.0,0.0,0.0,0.0,0.0,0.0,0.0,0.0,0.0,0.0,0.0,0.0,0.0,0.0,0.0,0.0,0.0,0.0,0.0,0.0,0.0,0.0,0.0,0.0,0.0,0.0,0.0,0.0,0.0,0.0,0.0,0.0,0.0,0.0,0.0,0.0,0.0,0.0,0.0,0.0,0.0,0.0,0.0,0.0,0.0,0.0,0.0,0.0,0.0,0.0,0.0,0.0,0.0,0.0,0.0,0.0,0.0,0.0,0.0,0.0,0.0,0.0,0.0,0.0,0.0,0.0,0.0,0.0,0.0,0.0,0.0,0.0,0.0,0.0,0.0,0.0,0.0,0.0,0.0,0.0,0.0,0.0,0.0,0.0,0.0,0.0,0.0,0.0,0.0,0.0,0.0,0.0,0.0,0.0,0.0,0.0,0.0,0.0,0.0,0.0,0.0,0.0,0.0,0.0,0.0,0.0,0.0,0.0,0.0,0.0,0.0,0.0,0.0,0.0,0.0,0.0,0.0,0.0,0.0,0.0,0.0,0.0,0.0,0.0,0.0,0.0,0.0,0.0,0.0,0.0,0.0,0.0,0.0,0.0,0.0,0.0,0.0,0.0,0.0,0.0,0.0,0.0,0.0,0.0,0.0,0.0,0.0,0.0,0.0,0.0,0.0,0.0,0.0,0.0,0.0,0.0,0.0,0.0,0.0,0.0,0.0,0.0,0.0,0.0,0.0,0.0,0.0,0.0,0.0,0.0,0.0,0.0,0.0,0.0,0.0,0.0,0.0,0.0,0.0,0.0,0.0,0.0,0.0,0.0,0.0,0.0,0.0,0.0,0.0,0.0,0.0,0.0,0.0,0.0,0.0,0.0,0.0,0.0,0.0,0.0,0.0,0.0,0.0,0.0,0.0,0.0,0.0,0.0,0.0,0.0,0.0,0.0,0.0,0.0,0.0,0.0,0.0,0.0,0.0,0.0,0.0,0.0,0.0,0.0,0.0,0.0,0.0,0.0,0.0,0.0,0.0,0.0,0.0,0.0,0.0,0.0,0.0,0.0,0.0,0.0,0.0,0.0,0.0,0.0,0.0,0.0,0.0,0.0,0.0,0.0,0.0,0.0,0.0,0.0,0.0,0.0,0.0,0.0,0.0,0.0,0.0,0.0,0.0,0.0,0.0,0.0,0.0,0.0,0.0,0.0,0.0,0.0,0.0,0.0,0.0,0.0,0.0,0.0,0.0,0.0,0.0,0.0,0.0,0.0,0.0,0.0,0.0,0.0,0.0,0.0,0.0,0.0,0.0,0.0,0.0,0.0,0.0,0.0,0.0,0.0,0.0,0.0,0.0,0.0,0.0,0.0,0.0,0.0,0.0,0.0,0.0,0.0,0.0,0.0,0.0,0.0,0.0,0.0,0.0,0.0,0.0,0.0,0.0,0.0,0.0,0.0,0.0,0.0,0.0,0.0,0.0,0.0,0.0,0.0,0.0,0.0,0.0,0.0,0.0,0.0,0.0,0.0,0.0,0.0,0.0,0.0,0.0,0.0,0.0,0.0,0.0,0.0,0.0,0.0,0.0,0.0,0.0,0.0,0.0,0.0,0.0,0.0,0.0,0.0,0.0,0.0,0.0,0.0,0.0,0.0,0.0,0.0,0.0,0.0,0.0,0.0,0.0,0.0,0.0,0.0,0.0,0.0,0.0,0.0,0.0,0.0,0.0,0.0,0.0,0.0,0.0,0.0,0.0,0.0,0.0,0.0,0.0,0.0,0.0,0.0,0.0,0.0,0.0,0.0,0.0,0.0,0.0,0.0,0.0,0.0,0.0,0.0,0.0,0.0,0.0,0.0,0.0,0.0,0.0,0.0,0.0,0.0,0.0,0.0,0.0,0.0,0.0,0.0,0.0,0.0,0.0,0.0,0.0,0.0,0.0,0.0,0.0,0.0,0.0,0.0,0.0,0.0,0.0,0.0,0.0,0.0,0.0,0.0,0.0,0.0,0.0,0.0,0.0,0.0,0.0,0.0,0.0,0.0,0.0,0.0,0.0,0.0,0.0,0.0,0.0,0.0,0.0,0.0,0.0,0.0,0.0,0.0,0.0,0.0,0.0,0.0,0.0,0.0,0.0,0.0,0.0,0.0,0.0,0.0,0.0,0.0,0.0,0.0,0.0,0.0,0.0,0.0,0.0,0.0,0.0,0.0,0.0,0.0,0.0,0.0,0.0,0.0,0.0,0.0,0.0,0.0]}]]